<?xml version='1.0' encoding='UTF-8'?><gpx version="1.1" creator="JPX - https://github.com/jenetics/jpx" xmlns="http://www.topografix.com/GPX/1/1"><trk><trkseg><trkpt lat="43.896749" lon="11.2295236"><ele>391.00000000000006</ele><time>2026-03-22T09:54:21.046Z</time></trkpt><trkpt lat="43.8967216" lon="11.2296292"><ele>391.0</ele><time>2026-03-22T09:54:25.031Z</time></trkpt><trkpt lat="43.896722" lon="11.2297388"><ele>391.0</ele><time>2026-03-22T09:54:28.045Z</time></trkpt><trkpt lat="43.8967214" lon="11.2298543"><ele>391.0</ele><time>2026-03-22T09:54:32.028Z</time></trkpt><trkpt lat="43.8967143" lon="11.2299704"><ele>391.00000000000006</ele><time>2026-03-22T09:54:35.047Z</time></trkpt><trkpt lat="43.89669" lon="11.2300748"><ele>391.0</ele><time>2026-03-22T09:54:38.045Z</time></trkpt><trkpt lat="43.8966511" lon="11.2301797"><ele>391.00000000000006</ele><time>2026-03-22T09:54:41.067Z</time></trkpt><trkpt lat="43.896623" lon="11.2302808"><ele>391.0</ele><time>2026-03-22T09:54:44.042Z</time></trkpt><trkpt lat="43.8965806" lon="11.2303692"><ele>391.0</ele><time>2026-03-22T09:54:47.024Z</time></trkpt><trkpt lat="43.8965335" lon="11.2304633"><ele>391.0</ele><time>2026-03-22T09:54:50.034Z</time></trkpt><trkpt lat="43.8964842" lon="11.230565"><ele>391.00000000000006</ele><time>2026-03-22T09:54:53.053Z</time></trkpt><trkpt lat="43.8964425" lon="11.23064"><ele>391.0</ele><time>2026-03-22T09:54:55.02Z</time></trkpt><trkpt lat="43.8964028" lon="11.2307133"><ele>390.6666666666667</ele><time>2026-03-22T09:54:57.031Z</time></trkpt><trkpt lat="43.8963614" lon="11.2308204"><ele>390.33333333333337</ele><time>2026-03-22T09:55:00.049Z</time></trkpt><trkpt lat="43.8963002" lon="11.2309152"><ele>390.0</ele><time>2026-03-22T09:55:03.038Z</time></trkpt><trkpt lat="43.8962656" lon="11.2309924"><ele>389.66666666666663</ele><time>2026-03-22T09:55:05.037Z</time></trkpt><trkpt lat="43.8962163" lon="11.2310676"><ele>389.3333333333333</ele><time>2026-03-22T09:55:07.032Z</time></trkpt><trkpt lat="43.8961665" lon="11.2311538"><ele>389.0</ele><time>2026-03-22T09:55:10.027Z</time></trkpt><trkpt lat="43.8961268" lon="11.2312309"><ele>388.99999999999994</ele><time>2026-03-22T09:55:12.039Z</time></trkpt><trkpt lat="43.8960818" lon="11.2313254"><ele>389.0</ele><time>2026-03-22T09:55:15.026Z</time></trkpt><trkpt lat="43.8960864" lon="11.2314411"><ele>389.0</ele><time>2026-03-22T09:55:18.037Z</time></trkpt><trkpt lat="43.8961438" lon="11.2314926"><ele>389.0</ele><time>2026-03-22T09:55:20.041Z</time></trkpt><trkpt lat="43.8962288" lon="11.2315557"><ele>388.99999999999994</ele><time>2026-03-22T09:55:23.047Z</time></trkpt><trkpt lat="43.8962924" lon="11.2316242"><ele>389.0</ele><time>2026-03-22T09:55:26.056Z</time></trkpt><trkpt lat="43.8963442" lon="11.2316773"><ele>390.16666666666663</ele><time>2026-03-22T09:55:31.025Z</time></trkpt><trkpt lat="43.8964115" lon="11.2317433"><ele>391.3333333333333</ele><time>2026-03-22T09:55:34.032Z</time></trkpt><trkpt lat="43.8964723" lon="11.231812"><ele>392.5</ele><time>2026-03-22T09:55:37.044Z</time></trkpt><trkpt lat="43.8965286" lon="11.231878"><ele>393.66666666666663</ele><time>2026-03-22T09:55:40.039Z</time></trkpt><trkpt lat="43.8965862" lon="11.2319524"><ele>394.8333333333333</ele><time>2026-03-22T09:55:43.027Z</time></trkpt><trkpt lat="43.8966461" lon="11.2320323"><ele>396.0</ele><time>2026-03-22T09:55:46.033Z</time></trkpt><trkpt lat="43.896697" lon="11.2321091"><ele>396.0</ele><time>2026-03-22T09:55:49.028Z</time></trkpt><trkpt lat="43.8967484" lon="11.232199"><ele>396.0</ele><time>2026-03-22T09:55:52.04Z</time></trkpt><trkpt lat="43.8967867" lon="11.2323094"><ele>396.0</ele><time>2026-03-22T09:55:55.035Z</time></trkpt><trkpt lat="43.8968065" lon="11.2324265"><ele>396.0</ele><time>2026-03-22T09:55:58.044Z</time></trkpt><trkpt lat="43.8968071" lon="11.2325141"><ele>396.0</ele><time>2026-03-22T09:56:00.03Z</time></trkpt><trkpt lat="43.8967845" lon="11.2326215"><ele>396.0</ele><time>2026-03-22T09:56:02.976Z</time></trkpt><trkpt lat="43.8967678" lon="11.2327344"><ele>399.0</ele><time>2026-03-22T09:56:05.935Z</time></trkpt><trkpt lat="43.8967437" lon="11.2328376"><ele>402.0</ele><time>2026-03-22T09:56:09.03Z</time></trkpt><trkpt lat="43.8967211" lon="11.23295"><ele>405.0</ele><time>2026-03-22T09:56:12.027Z</time></trkpt><trkpt lat="43.8967013" lon="11.2330347"><ele>408.0</ele><time>2026-03-22T09:56:14.038Z</time></trkpt><trkpt lat="43.8966731" lon="11.2331378"><ele>411.0</ele><time>2026-03-22T09:56:17.027Z</time></trkpt><trkpt lat="43.8966464" lon="11.2332499"><ele>414.0</ele><time>2026-03-22T09:56:20.056Z</time></trkpt><trkpt lat="43.8966225" lon="11.2333447"><ele>415.1666666666667</ele><time>2026-03-22T09:56:22.993Z</time></trkpt><trkpt lat="43.8965948" lon="11.2334558"><ele>416.33333333333337</ele><time>2026-03-22T09:56:26.03Z</time></trkpt><trkpt lat="43.8965594" lon="11.2335882"><ele>417.5</ele><time>2026-03-22T09:56:29.037Z</time></trkpt><trkpt lat="43.896535" lon="11.2336856"><ele>418.6666666666667</ele><time>2026-03-22T09:56:31.041Z</time></trkpt><trkpt lat="43.8965119" lon="11.2337833"><ele>419.83333333333337</ele><time>2026-03-22T09:56:33.04Z</time></trkpt><trkpt lat="43.8964917" lon="11.2338704"><ele>421.0</ele><time>2026-03-22T09:56:35.027Z</time></trkpt><trkpt lat="43.896458" lon="11.2339863"><ele>421.42857142857144</ele><time>2026-03-22T09:56:38.037Z</time></trkpt><trkpt lat="43.8964224" lon="11.234086"><ele>421.8571428571429</ele><time>2026-03-22T09:56:41.048Z</time></trkpt><trkpt lat="43.8964379" lon="11.2341783"><ele>422.28571428571433</ele><time>2026-03-22T09:56:44.058Z</time></trkpt><trkpt lat="43.8964794" lon="11.2342583"><ele>422.7142857142857</ele><time>2026-03-22T09:56:47.042Z</time></trkpt><trkpt lat="43.8965507" lon="11.2342726"><ele>423.1428571428571</ele><time>2026-03-22T09:56:50.01Z</time></trkpt><trkpt lat="43.8966224" lon="11.234298"><ele>423.5714285714286</ele><time>2026-03-22T09:56:53.026Z</time></trkpt><trkpt lat="43.896681" lon="11.2343571"><ele>424.0</ele><time>2026-03-22T09:56:55.979Z</time></trkpt><trkpt lat="43.8967366" lon="11.2344274"><ele>422.14285714285717</ele><time>2026-03-22T09:56:59.024Z</time></trkpt><trkpt lat="43.8967836" lon="11.2344914"><ele>420.2857142857143</ele><time>2026-03-22T09:57:02.029Z</time></trkpt><trkpt lat="43.8968225" lon="11.2345693"><ele>418.42857142857144</ele><time>2026-03-22T09:57:05.033Z</time></trkpt><trkpt lat="43.8968437" lon="11.2346626"><ele>416.57142857142856</ele><time>2026-03-22T09:57:08.03Z</time></trkpt><trkpt lat="43.8968606" lon="11.2347617"><ele>414.71428571428567</ele><time>2026-03-22T09:57:11.032Z</time></trkpt><trkpt lat="43.8968764" lon="11.2348493"><ele>412.85714285714283</ele><time>2026-03-22T09:57:14.033Z</time></trkpt><trkpt lat="43.8968888" lon="11.2349522"><ele>411.0</ele><time>2026-03-22T09:57:17.952Z</time></trkpt><trkpt lat="43.896893" lon="11.2350439"><ele>411.0</ele><time>2026-03-22T09:57:21.029Z</time></trkpt><trkpt lat="43.8968896" lon="11.2351331"><ele>411.0</ele><time>2026-03-22T09:57:24.032Z</time></trkpt><trkpt lat="43.8968893" lon="11.235231"><ele>411.0</ele><time>2026-03-22T09:57:27.037Z</time></trkpt><trkpt lat="43.8968716" lon="11.2353445"><ele>411.0</ele><time>2026-03-22T09:57:30.039Z</time></trkpt><trkpt lat="43.8968509" lon="11.2354474"><ele>411.0</ele><time>2026-03-22T09:57:33.057Z</time></trkpt><trkpt lat="43.8968363" lon="11.2355602"><ele>411.0</ele><time>2026-03-22T09:57:35.996Z</time></trkpt><trkpt lat="43.8968313" lon="11.2356508"><ele>411.0</ele><time>2026-03-22T09:57:38.03Z</time></trkpt><trkpt lat="43.8968532" lon="11.2357706"><ele>411.8333333333333</ele><time>2026-03-22T09:57:41.023Z</time></trkpt><trkpt lat="43.8968764" lon="11.2358801"><ele>412.66666666666663</ele><time>2026-03-22T09:57:44.036Z</time></trkpt><trkpt lat="43.8968885" lon="11.2359921"><ele>413.5</ele><time>2026-03-22T09:57:47.053Z</time></trkpt><trkpt lat="43.8968796" lon="11.2361108"><ele>414.3333333333333</ele><time>2026-03-22T09:57:50.031Z</time></trkpt><trkpt lat="43.8968465" lon="11.2362076"><ele>415.16666666666663</ele><time>2026-03-22T09:57:53.035Z</time></trkpt><trkpt lat="43.8968113" lon="11.2362908"><ele>416.0</ele><time>2026-03-22T09:57:57.023Z</time></trkpt><trkpt lat="43.8967929" lon="11.2363922"><ele>417.16666666666663</ele><time>2026-03-22T09:58:01.026Z</time></trkpt><trkpt lat="43.8968197" lon="11.2364781"><ele>418.3333333333333</ele><time>2026-03-22T09:58:04.025Z</time></trkpt><trkpt lat="43.8968639" lon="11.2365543"><ele>419.5</ele><time>2026-03-22T09:58:07.025Z</time></trkpt><trkpt lat="43.8969037" lon="11.2366481"><ele>420.66666666666663</ele><time>2026-03-22T09:58:10.05Z</time></trkpt><trkpt lat="43.8969309" lon="11.2367392"><ele>421.8333333333333</ele><time>2026-03-22T09:58:13.033Z</time></trkpt><trkpt lat="43.8969429" lon="11.2368495"><ele>423.0</ele><time>2026-03-22T09:58:16.027Z</time></trkpt><trkpt lat="43.8969438" lon="11.2369692"><ele>423.0</ele><time>2026-03-22T09:58:19.028Z</time></trkpt><trkpt lat="43.8969329" lon="11.2370845"><ele>423.0</ele><time>2026-03-22T09:58:22.056Z</time></trkpt><trkpt lat="43.8969345" lon="11.2371768"><ele>423.0</ele><time>2026-03-22T09:58:24.031Z</time></trkpt><trkpt lat="43.8969348" lon="11.2372803"><ele>423.0</ele><time>2026-03-22T09:58:26.043Z</time></trkpt><trkpt lat="43.8969343" lon="11.2373722"><ele>423.0</ele><time>2026-03-22T09:58:29.028Z</time></trkpt><trkpt lat="43.8969368" lon="11.2374969"><ele>423.0</ele><time>2026-03-22T09:58:32.017Z</time></trkpt><trkpt lat="43.8969351" lon="11.2375857"><ele>423.0</ele><time>2026-03-22T09:58:34.03Z</time></trkpt><trkpt lat="43.8969362" lon="11.2376779"><ele>426.1666666666667</ele><time>2026-03-22T09:58:35.969Z</time></trkpt><trkpt lat="43.8969347" lon="11.2377881"><ele>429.33333333333337</ele><time>2026-03-22T09:58:37.894Z</time></trkpt><trkpt lat="43.8969271" lon="11.2379039"><ele>432.5</ele><time>2026-03-22T09:58:40.043Z</time></trkpt><trkpt lat="43.8969175" lon="11.2380102"><ele>435.6666666666667</ele><time>2026-03-22T09:58:42.035Z</time></trkpt><trkpt lat="43.8969067" lon="11.2381178"><ele>438.83333333333337</ele><time>2026-03-22T09:58:44.026Z</time></trkpt><trkpt lat="43.8969029" lon="11.2382078"><ele>442.0</ele><time>2026-03-22T09:58:46.02Z</time></trkpt><trkpt lat="43.8969386" lon="11.2382955"><ele>442.00000000000006</ele><time>2026-03-22T09:58:48.017Z</time></trkpt><trkpt lat="43.8970153" lon="11.2383092"><ele>442.0</ele><time>2026-03-22T09:58:50.034Z</time></trkpt><trkpt lat="43.8970784" lon="11.2382491"><ele>442.0</ele><time>2026-03-22T09:58:52.047Z</time></trkpt><trkpt lat="43.897147" lon="11.2381975"><ele>442.0</ele><time>2026-03-22T09:58:54.03Z</time></trkpt><trkpt lat="43.8972374" lon="11.2381683"><ele>442.00000000000006</ele><time>2026-03-22T09:58:57.029Z</time></trkpt><trkpt lat="43.8973039" lon="11.2381432"><ele>442.0</ele><time>2026-03-22T09:58:59.031Z</time></trkpt><trkpt lat="43.8973943" lon="11.2381238"><ele>442.00000000000006</ele><time>2026-03-22T09:59:02.032Z</time></trkpt><trkpt lat="43.897485" lon="11.2381277"><ele>442.0</ele><time>2026-03-22T09:59:05.025Z</time></trkpt><trkpt lat="43.8975574" lon="11.238151"><ele>442.0</ele><time>2026-03-22T09:59:07.019Z</time></trkpt><trkpt lat="43.897628" lon="11.2381745"><ele>442.0</ele><time>2026-03-22T09:59:09.026Z</time></trkpt><trkpt lat="43.8977319" lon="11.2382135"><ele>442.00000000000006</ele><time>2026-03-22T09:59:12.021Z</time></trkpt><trkpt lat="43.897809" lon="11.2382735"><ele>442.0</ele><time>2026-03-22T09:59:14.934Z</time></trkpt><trkpt lat="43.8978592" lon="11.2383365"><ele>442.50000000000006</ele><time>2026-03-22T09:59:17.034Z</time></trkpt><trkpt lat="43.8979148" lon="11.2384268"><ele>443.0</ele><time>2026-03-22T09:59:19.952Z</time></trkpt><trkpt lat="43.8979613" lon="11.2385036"><ele>443.5</ele><time>2026-03-22T09:59:22.034Z</time></trkpt><trkpt lat="43.897993" lon="11.2385837"><ele>444.0</ele><time>2026-03-22T09:59:24.042Z</time></trkpt><trkpt lat="43.8980239" lon="11.238693"><ele>444.50000000000006</ele><time>2026-03-22T09:59:27.029Z</time></trkpt><trkpt lat="43.8980551" lon="11.2387999"><ele>445.0</ele><time>2026-03-22T09:59:30.02Z</time></trkpt><trkpt lat="43.898076" lon="11.2389245"><ele>446.6666666666667</ele><time>2026-03-22T09:59:33.03Z</time></trkpt><trkpt lat="43.8980862" lon="11.2390316"><ele>448.33333333333337</ele><time>2026-03-22T09:59:35.039Z</time></trkpt><trkpt lat="43.8980708" lon="11.2391565"><ele>450.0</ele><time>2026-03-22T09:59:38.041Z</time></trkpt><trkpt lat="43.8980557" lon="11.2392416"><ele>451.66666666666663</ele><time>2026-03-22T09:59:40.052Z</time></trkpt><trkpt lat="43.8980465" lon="11.2393336"><ele>453.3333333333333</ele><time>2026-03-22T09:59:42.037Z</time></trkpt><trkpt lat="43.8980426" lon="11.2394591"><ele>455.0</ele><time>2026-03-22T09:59:45.05Z</time></trkpt><trkpt lat="43.8980146" lon="11.2395849"><ele>455.0</ele><time>2026-03-22T09:59:48.036Z</time></trkpt><trkpt lat="43.8979816" lon="11.2396773"><ele>455.0</ele><time>2026-03-22T09:59:50.045Z</time></trkpt><trkpt lat="43.8979512" lon="11.2397651"><ele>455.0</ele><time>2026-03-22T09:59:52.032Z</time></trkpt><trkpt lat="43.8979219" lon="11.2398525"><ele>455.0</ele><time>2026-03-22T09:59:54.044Z</time></trkpt><trkpt lat="43.8978913" lon="11.2399439"><ele>455.0</ele><time>2026-03-22T09:59:56.052Z</time></trkpt><trkpt lat="43.8978561" lon="11.2400308"><ele>455.0</ele><time>2026-03-22T09:59:58.034Z</time></trkpt><trkpt lat="43.8978274" lon="11.2401118"><ele>455.0</ele><time>2026-03-22T10:00:00.058Z</time></trkpt><trkpt lat="43.8977888" lon="11.2402027"><ele>454.99999999999994</ele><time>2026-03-22T10:00:02.042Z</time></trkpt><trkpt lat="43.8977474" lon="11.2402928"><ele>455.0</ele><time>2026-03-22T10:00:04.032Z</time></trkpt><trkpt lat="43.8977061" lon="11.2403879"><ele>455.0</ele><time>2026-03-22T10:00:06.049Z</time></trkpt><trkpt lat="43.897671" lon="11.2404875"><ele>455.0</ele><time>2026-03-22T10:00:08.04Z</time></trkpt><trkpt lat="43.8976465" lon="11.2405951"><ele>454.99999999999994</ele><time>2026-03-22T10:00:10.032Z</time></trkpt><trkpt lat="43.8976403" lon="11.2407092"><ele>455.0</ele><time>2026-03-22T10:00:13.047Z</time></trkpt><trkpt lat="43.8976436" lon="11.2408253"><ele>454.99999999999994</ele><time>2026-03-22T10:00:16.039Z</time></trkpt><trkpt lat="43.8976471" lon="11.2409539"><ele>455.0</ele><time>2026-03-22T10:00:19.041Z</time></trkpt><trkpt lat="43.897651" lon="11.2410791"><ele>455.0</ele><time>2026-03-22T10:00:22.021Z</time></trkpt><trkpt lat="43.8976577" lon="11.2411785"><ele>455.0</ele><time>2026-03-22T10:00:24.044Z</time></trkpt><trkpt lat="43.8976568" lon="11.241277"><ele>454.99999999999994</ele><time>2026-03-22T10:00:26.044Z</time></trkpt><trkpt lat="43.89766" lon="11.2413643"><ele>455.0</ele><time>2026-03-22T10:00:28.038Z</time></trkpt><trkpt lat="43.8976603" lon="11.2414867"><ele>456.16666666666663</ele><time>2026-03-22T10:00:31.033Z</time></trkpt><trkpt lat="43.8976618" lon="11.2416115"><ele>457.3333333333333</ele><time>2026-03-22T10:00:34.032Z</time></trkpt><trkpt lat="43.8976582" lon="11.2417056"><ele>458.5</ele><time>2026-03-22T10:00:36.049Z</time></trkpt><trkpt lat="43.8976654" lon="11.2418275"><ele>459.66666666666663</ele><time>2026-03-22T10:00:39.036Z</time></trkpt><trkpt lat="43.8976724" lon="11.241939"><ele>460.8333333333333</ele><time>2026-03-22T10:00:42.056Z</time></trkpt><trkpt lat="43.897669" lon="11.2420636"><ele>462.0</ele><time>2026-03-22T10:00:45.034Z</time></trkpt><trkpt lat="43.8976728" lon="11.2421509"><ele>462.0</ele><time>2026-03-22T10:00:47.027Z</time></trkpt><trkpt lat="43.8976743" lon="11.2422692"><ele>462.0</ele><time>2026-03-22T10:00:50.041Z</time></trkpt><trkpt lat="43.8976755" lon="11.242392"><ele>462.0</ele><time>2026-03-22T10:00:53.035Z</time></trkpt><trkpt lat="43.8977174" lon="11.2424917"><ele>462.0</ele><time>2026-03-22T10:00:56.047Z</time></trkpt><trkpt lat="43.8978057" lon="11.2425404"><ele>462.0</ele><time>2026-03-22T10:00:59.051Z</time></trkpt><trkpt lat="43.897863" lon="11.2425968"><ele>462.0</ele><time>2026-03-22T10:01:01.025Z</time></trkpt><trkpt lat="43.8979383" lon="11.2426716"><ele>463.5</ele><time>2026-03-22T10:01:04.053Z</time></trkpt><trkpt lat="43.8980082" lon="11.24275"><ele>465.0</ele><time>2026-03-22T10:01:07.034Z</time></trkpt><trkpt lat="43.8980687" lon="11.2428016"><ele>466.5</ele><time>2026-03-22T10:01:10.03Z</time></trkpt><trkpt lat="43.8981207" lon="11.2428587"><ele>468.0</ele><time>2026-03-22T10:01:13.041Z</time></trkpt><trkpt lat="43.8981764" lon="11.2429367"><ele>469.5</ele><time>2026-03-22T10:01:16.049Z</time></trkpt><trkpt lat="43.8982279" lon="11.2430195"><ele>471.0</ele><time>2026-03-22T10:01:19.032Z</time></trkpt><trkpt lat="43.8982912" lon="11.2431025"><ele>470.5</ele><time>2026-03-22T10:01:22.044Z</time></trkpt><trkpt lat="43.8983577" lon="11.2431645"><ele>470.0</ele><time>2026-03-22T10:01:25.031Z</time></trkpt><trkpt lat="43.8984255" lon="11.2432418"><ele>469.5</ele><time>2026-03-22T10:01:28.038Z</time></trkpt><trkpt lat="43.8984748" lon="11.2433407"><ele>469.0</ele><time>2026-03-22T10:01:31.032Z</time></trkpt><trkpt lat="43.8985277" lon="11.2434367"><ele>468.5</ele><time>2026-03-22T10:01:34.036Z</time></trkpt><trkpt lat="43.8985658" lon="11.2435388"><ele>468.0</ele><time>2026-03-22T10:01:37.039Z</time></trkpt><trkpt lat="43.8985837" lon="11.2436598"><ele>468.0</ele><time>2026-03-22T10:01:39.949Z</time></trkpt><trkpt lat="43.8985818" lon="11.2437827"><ele>468.0</ele><time>2026-03-22T10:01:43.043Z</time></trkpt><trkpt lat="43.8985722" lon="11.2438861"><ele>468.0</ele><time>2026-03-22T10:01:45.708Z</time></trkpt><trkpt lat="43.8985741" lon="11.2439902"><ele>468.0</ele><time>2026-03-22T10:01:49.025Z</time></trkpt><trkpt lat="43.898578" lon="11.2441142"><ele>468.0</ele><time>2026-03-22T10:01:52.025Z</time></trkpt><trkpt lat="43.8985817" lon="11.2442519"><ele>468.0</ele><time>2026-03-22T10:01:55.042Z</time></trkpt><trkpt lat="43.8985887" lon="11.2443724"><ele>469.5</ele><time>2026-03-22T10:01:58.054Z</time></trkpt><trkpt lat="43.8985996" lon="11.2444643"><ele>471.0</ele><time>2026-03-22T10:02:00.044Z</time></trkpt><trkpt lat="43.8986324" lon="11.2445776"><ele>472.5</ele><time>2026-03-22T10:02:03.026Z</time></trkpt><trkpt lat="43.8986733" lon="11.2446467"><ele>474.0</ele><time>2026-03-22T10:02:05.041Z</time></trkpt><trkpt lat="43.8987389" lon="11.244732"><ele>475.5</ele><time>2026-03-22T10:02:08.03Z</time></trkpt><trkpt lat="43.8988024" lon="11.2448163"><ele>477.0</ele><time>2026-03-22T10:02:11.051Z</time></trkpt><trkpt lat="43.8988579" lon="11.2449193"><ele>478.8333333333333</ele><time>2026-03-22T10:02:14.025Z</time></trkpt><trkpt lat="43.8989118" lon="11.2450275"><ele>480.66666666666663</ele><time>2026-03-22T10:02:17.034Z</time></trkpt><trkpt lat="43.8989594" lon="11.2451291"><ele>482.5</ele><time>2026-03-22T10:02:20.061Z</time></trkpt><trkpt lat="43.8990041" lon="11.2451985"><ele>484.3333333333333</ele><time>2026-03-22T10:02:23.035Z</time></trkpt><trkpt lat="43.8990601" lon="11.2452888"><ele>486.16666666666663</ele><time>2026-03-22T10:02:26.037Z</time></trkpt><trkpt lat="43.8991042" lon="11.2453741"><ele>488.0</ele><time>2026-03-22T10:02:31.045Z</time></trkpt><trkpt lat="43.8991466" lon="11.2454669"><ele>487.99999999999994</ele><time>2026-03-22T10:02:35.035Z</time></trkpt><trkpt lat="43.8991889" lon="11.2455424"><ele>488.0</ele><time>2026-03-22T10:02:38.03Z</time></trkpt><trkpt lat="43.8992171" lon="11.2456315"><ele>487.99999999999994</ele><time>2026-03-22T10:02:41.044Z</time></trkpt><trkpt lat="43.8992464" lon="11.245716"><ele>487.99999999999994</ele><time>2026-03-22T10:02:44.039Z</time></trkpt><trkpt lat="43.8992992" lon="11.245797"><ele>488.0</ele><time>2026-03-22T10:02:47.028Z</time></trkpt><trkpt lat="43.899351" lon="11.2458791"><ele>487.99999999999994</ele><time>2026-03-22T10:02:50.037Z</time></trkpt><trkpt lat="43.8994122" lon="11.2459599"><ele>487.99999999999994</ele><time>2026-03-22T10:02:53.024Z</time></trkpt><trkpt lat="43.8994866" lon="11.2460061"><ele>489.49999999999994</ele><time>2026-03-22T10:02:56.043Z</time></trkpt><trkpt lat="43.8995631" lon="11.2460495"><ele>491.0</ele><time>2026-03-22T10:02:59.037Z</time></trkpt><trkpt lat="43.8996458" lon="11.2460799"><ele>492.5</ele><time>2026-03-22T10:03:02.031Z</time></trkpt><trkpt lat="43.8997164" lon="11.2461023"><ele>494.0</ele><time>2026-03-22T10:03:05.05Z</time></trkpt><trkpt lat="43.8997943" lon="11.2461485"><ele>495.49999999999994</ele><time>2026-03-22T10:03:08.025Z</time></trkpt><trkpt lat="43.8998666" lon="11.2462162"><ele>497.0</ele><time>2026-03-22T10:03:11.032Z</time></trkpt><trkpt lat="43.8999376" lon="11.2462649"><ele>497.0</ele><time>2026-03-22T10:03:14.033Z</time></trkpt><trkpt lat="43.8999822" lon="11.2463287"><ele>497.0</ele><time>2026-03-22T10:03:17.953Z</time></trkpt><trkpt lat="43.8999282" lon="11.2464046"><ele>497.0</ele><time>2026-03-22T10:03:21.039Z</time></trkpt><trkpt lat="43.8998588" lon="11.246459"><ele>497.0</ele><time>2026-03-22T10:03:25.031Z</time></trkpt><trkpt lat="43.8998075" lon="11.2465183"><ele>497.0</ele><time>2026-03-22T10:03:28.033Z</time></trkpt><trkpt lat="43.8997563" lon="11.2465705"><ele>497.0</ele><time>2026-03-22T10:03:30.971Z</time></trkpt><trkpt lat="43.8997035" lon="11.2466533"><ele>497.0</ele><time>2026-03-22T10:03:34.043Z</time></trkpt><trkpt lat="43.8996667" lon="11.2467313"><ele>498.1428571428571</ele><time>2026-03-22T10:03:37.036Z</time></trkpt><trkpt lat="43.8996211" lon="11.2468076"><ele>499.2857142857143</ele><time>2026-03-22T10:03:40.039Z</time></trkpt><trkpt lat="43.8995557" lon="11.2468894"><ele>500.42857142857144</ele><time>2026-03-22T10:03:43.021Z</time></trkpt><trkpt lat="43.899481" lon="11.2469534"><ele>501.57142857142856</ele><time>2026-03-22T10:03:46.029Z</time></trkpt><trkpt lat="43.8994303" lon="11.2470113"><ele>502.71428571428567</ele><time>2026-03-22T10:03:49.042Z</time></trkpt><trkpt lat="43.8993877" lon="11.2470897"><ele>503.85714285714283</ele><time>2026-03-22T10:03:59.029Z</time></trkpt><trkpt lat="43.8993306" lon="11.2471348"><ele>505.0</ele><time>2026-03-22T10:04:02.036Z</time></trkpt><trkpt lat="43.899283" lon="11.2472193"><ele>505.71428571428567</ele><time>2026-03-22T10:04:06.026Z</time></trkpt><trkpt lat="43.8992944" lon="11.2473157"><ele>506.4285714285714</ele><time>2026-03-22T10:04:10.037Z</time></trkpt><trkpt lat="43.8992877" lon="11.2474042"><ele>507.1428571428571</ele><time>2026-03-22T10:04:14.022Z</time></trkpt><trkpt lat="43.8992534" lon="11.2474882"><ele>507.8571428571429</ele><time>2026-03-22T10:04:18.046Z</time></trkpt><trkpt lat="43.8992106" lon="11.2475611"><ele>508.5714285714286</ele><time>2026-03-22T10:04:22.023Z</time></trkpt><trkpt lat="43.899149" lon="11.2476135"><ele>509.28571428571433</ele><time>2026-03-22T10:04:26.033Z</time></trkpt><trkpt lat="43.8990863" lon="11.2476324"><ele>510.0</ele><time>2026-03-22T10:04:30.032Z</time></trkpt><trkpt lat="43.8990161" lon="11.2476172"><ele>510.8571428571429</ele><time>2026-03-22T10:04:34.044Z</time></trkpt><trkpt lat="43.898953" lon="11.2476106"><ele>511.7142857142858</ele><time>2026-03-22T10:04:38.039Z</time></trkpt><trkpt lat="43.8988839" lon="11.2475801"><ele>512.5714285714286</ele><time>2026-03-22T10:04:42.034Z</time></trkpt><trkpt lat="43.8988137" lon="11.2476195"><ele>513.4285714285714</ele><time>2026-03-22T10:04:46.032Z</time></trkpt><trkpt lat="43.8987479" lon="11.2476701"><ele>514.2857142857142</ele><time>2026-03-22T10:04:50.034Z</time></trkpt><trkpt lat="43.8986836" lon="11.2477397"><ele>515.1428571428571</ele><time>2026-03-22T10:04:55.042Z</time></trkpt><trkpt lat="43.8986155" lon="11.2477895"><ele>516.0</ele><time>2026-03-22T10:04:59.046Z</time></trkpt><trkpt lat="43.898549" lon="11.247857"><ele>515.9999999999999</ele><time>2026-03-22T10:05:03.038Z</time></trkpt><trkpt lat="43.898493" lon="11.24791"><ele>516.0</ele><time>2026-03-22T10:05:07.031Z</time></trkpt><trkpt lat="43.8984381" lon="11.2479536"><ele>516.0</ele><time>2026-03-22T10:05:10.037Z</time></trkpt><trkpt lat="43.8983747" lon="11.2480083"><ele>516.0</ele><time>2026-03-22T10:05:14.038Z</time></trkpt><trkpt lat="43.8983061" lon="11.2480546"><ele>516.0</ele><time>2026-03-22T10:05:18.033Z</time></trkpt><trkpt lat="43.8982475" lon="11.2480935"><ele>515.9999999999999</ele><time>2026-03-22T10:05:21.034Z</time></trkpt><trkpt lat="43.8981798" lon="11.2481345"><ele>516.0</ele><time>2026-03-22T10:05:45.037Z</time></trkpt><trkpt lat="43.8981122" lon="11.248183"><ele>518.9999999999999</ele><time>2026-03-22T10:05:49.038Z</time></trkpt><trkpt lat="43.8980425" lon="11.2482256"><ele>522.0</ele><time>2026-03-22T10:05:53.032Z</time></trkpt><trkpt lat="43.8979805" lon="11.2482839"><ele>525.0</ele><time>2026-03-22T10:05:57.037Z</time></trkpt><trkpt lat="43.897925" lon="11.2483581"><ele>528.0</ele><time>2026-03-22T10:06:01.025Z</time></trkpt><trkpt lat="43.897866" lon="11.2484084"><ele>531.0</ele><time>2026-03-22T10:06:04.032Z</time></trkpt><trkpt lat="43.8978095" lon="11.2484675"><ele>533.9999999999999</ele><time>2026-03-22T10:06:07.035Z</time></trkpt><trkpt lat="43.8977408" lon="11.2485274"><ele>537.0</ele><time>2026-03-22T10:06:11.044Z</time></trkpt><trkpt lat="43.8976647" lon="11.2485719"><ele>536.9999999999999</ele><time>2026-03-22T10:06:15.023Z</time></trkpt><trkpt lat="43.8975861" lon="11.2485921"><ele>537.0</ele><time>2026-03-22T10:06:19.036Z</time></trkpt><trkpt lat="43.8975693" lon="11.2486941"><ele>537.0</ele><time>2026-03-22T10:06:23.025Z</time></trkpt><trkpt lat="43.8976237" lon="11.2487668"><ele>537.0</ele><time>2026-03-22T10:06:27.039Z</time></trkpt><trkpt lat="43.8976784" lon="11.2488156"><ele>537.0</ele><time>2026-03-22T10:06:32.037Z</time></trkpt><trkpt lat="43.8977432" lon="11.2488355"><ele>536.9999999999999</ele><time>2026-03-22T10:06:36.039Z</time></trkpt><trkpt lat="43.8978141" lon="11.2488506"><ele>537.0</ele><time>2026-03-22T10:06:40.04Z</time></trkpt><trkpt lat="43.8978863" lon="11.2488635"><ele>536.9999999999999</ele><time>2026-03-22T10:06:44.037Z</time></trkpt><trkpt lat="43.8979491" lon="11.2489124"><ele>537.0</ele><time>2026-03-22T10:06:48.041Z</time></trkpt><trkpt lat="43.898026" lon="11.2489605"><ele>537.0</ele><time>2026-03-22T10:06:52.043Z</time></trkpt><trkpt lat="43.8980851" lon="11.249016"><ele>537.0</ele><time>2026-03-22T10:06:56.031Z</time></trkpt><trkpt lat="43.8981406" lon="11.2490808"><ele>537.0</ele><time>2026-03-22T10:07:00.044Z</time></trkpt><trkpt lat="43.8981844" lon="11.2491476"><ele>536.9999999999999</ele><time>2026-03-22T10:07:04.039Z</time></trkpt><trkpt lat="43.8982395" lon="11.2492111"><ele>537.0</ele><time>2026-03-22T10:07:09.042Z</time></trkpt><trkpt lat="43.8982777" lon="11.2492963"><ele>537.6666666666666</ele><time>2026-03-22T10:07:13.045Z</time></trkpt><trkpt lat="43.8983321" lon="11.2493804"><ele>538.3333333333334</ele><time>2026-03-22T10:07:17.028Z</time></trkpt><trkpt lat="43.8983896" lon="11.2494513"><ele>539.0</ele><time>2026-03-22T10:07:22.024Z</time></trkpt><trkpt lat="43.898454" lon="11.2495065"><ele>539.6666666666667</ele><time>2026-03-22T10:07:28.038Z</time></trkpt><trkpt lat="43.8985178" lon="11.2495611"><ele>540.3333333333334</ele><time>2026-03-22T10:07:33.032Z</time></trkpt><trkpt lat="43.8985734" lon="11.2496336"><ele>541.0</ele><time>2026-03-22T10:07:37.025Z</time></trkpt><trkpt lat="43.8986507" lon="11.2496938"><ele>540.7142857142858</ele><time>2026-03-22T10:07:41.027Z</time></trkpt><trkpt lat="43.8987162" lon="11.2497439"><ele>540.4285714285714</ele><time>2026-03-22T10:07:45.027Z</time></trkpt><trkpt lat="43.8987888" lon="11.249771"><ele>540.1428571428571</ele><time>2026-03-22T10:07:49.046Z</time></trkpt><trkpt lat="43.898836" lon="11.2498503"><ele>539.8571428571429</ele><time>2026-03-22T10:07:54.033Z</time></trkpt><trkpt lat="43.8988644" lon="11.2499296"><ele>539.5714285714286</ele><time>2026-03-22T10:07:57.027Z</time></trkpt><trkpt lat="43.8989077" lon="11.2499937"><ele>539.2857142857143</ele><time>2026-03-22T10:08:00.054Z</time></trkpt><trkpt lat="43.8989567" lon="11.2500754"><ele>539.0</ele><time>2026-03-22T10:08:05.047Z</time></trkpt><trkpt lat="43.8990099" lon="11.250127"><ele>539.0</ele><time>2026-03-22T10:08:20.03Z</time></trkpt><trkpt lat="43.8990787" lon="11.2501788"><ele>539.0</ele><time>2026-03-22T10:08:24.029Z</time></trkpt><trkpt lat="43.8991512" lon="11.2502225"><ele>539.0</ele><time>2026-03-22T10:08:28.05Z</time></trkpt><trkpt lat="43.8992183" lon="11.2502672"><ele>539.0</ele><time>2026-03-22T10:08:32.03Z</time></trkpt><trkpt lat="43.8992825" lon="11.2503311"><ele>539.0</ele><time>2026-03-22T10:08:37.028Z</time></trkpt><trkpt lat="43.8993445" lon="11.2503724"><ele>539.0</ele><time>2026-03-22T10:08:41.04Z</time></trkpt><trkpt lat="43.8994137" lon="11.250394"><ele>539.1428571428571</ele><time>2026-03-22T10:08:45.033Z</time></trkpt><trkpt lat="43.8994816" lon="11.2504059"><ele>539.2857142857142</ele><time>2026-03-22T10:08:50.043Z</time></trkpt><trkpt lat="43.8995466" lon="11.2504223"><ele>539.4285714285714</ele><time>2026-03-22T10:08:54.036Z</time></trkpt><trkpt lat="43.8996118" lon="11.2504659"><ele>539.5714285714286</ele><time>2026-03-22T10:08:58.028Z</time></trkpt><trkpt lat="43.8996752" lon="11.2504947"><ele>539.7142857142857</ele><time>2026-03-22T10:09:01.031Z</time></trkpt><trkpt lat="43.8997352" lon="11.2505213"><ele>539.8571428571429</ele><time>2026-03-22T10:09:04.034Z</time></trkpt><trkpt lat="43.8997951" lon="11.2505633"><ele>540.0</ele><time>2026-03-22T10:09:08.038Z</time></trkpt><trkpt lat="43.899852" lon="11.2506286"><ele>540.7142857142857</ele><time>2026-03-22T10:09:13.029Z</time></trkpt><trkpt lat="43.8999221" lon="11.250653"><ele>541.4285714285713</ele><time>2026-03-22T10:09:18.03Z</time></trkpt><trkpt lat="43.8999927" lon="11.2506633"><ele>542.1428571428571</ele><time>2026-03-22T10:09:22.025Z</time></trkpt><trkpt lat="43.9000605" lon="11.2506536"><ele>542.8571428571429</ele><time>2026-03-22T10:09:27.041Z</time></trkpt><trkpt lat="43.9001306" lon="11.2506716"><ele>543.5714285714287</ele><time>2026-03-22T10:09:31.013Z</time></trkpt><trkpt lat="43.9002021" lon="11.2506869"><ele>544.2857142857143</ele><time>2026-03-22T10:09:35.041Z</time></trkpt><trkpt lat="43.9002769" lon="11.2506877"><ele>545.0</ele><time>2026-03-22T10:09:39.032Z</time></trkpt><trkpt lat="43.9003609" lon="11.2506702"><ele>546.0</ele><time>2026-03-22T10:09:44.042Z</time></trkpt><trkpt lat="43.9004342" lon="11.2506393"><ele>547.0</ele><time>2026-03-22T10:09:49.054Z</time></trkpt><trkpt lat="43.9005109" lon="11.2506733"><ele>548.0</ele><time>2026-03-22T10:09:53.03Z</time></trkpt><trkpt lat="43.90058" lon="11.2506909"><ele>549.0</ele><time>2026-03-22T10:09:57.036Z</time></trkpt><trkpt lat="43.900644" lon="11.2507207"><ele>550.0</ele><time>2026-03-22T10:10:01.023Z</time></trkpt><trkpt lat="43.9007111" lon="11.2507174"><ele>551.0</ele><time>2026-03-22T10:10:06.036Z</time></trkpt><trkpt lat="43.9007788" lon="11.2506906"><ele>552.0</ele><time>2026-03-22T10:10:11.024Z</time></trkpt><trkpt lat="43.9008572" lon="11.2506836"><ele>553.7142857142858</ele><time>2026-03-22T10:10:15.034Z</time></trkpt><trkpt lat="43.9009187" lon="11.2506277"><ele>555.4285714285714</ele><time>2026-03-22T10:10:18.034Z</time></trkpt><trkpt lat="43.9009798" lon="11.2505915"><ele>557.1428571428571</ele><time>2026-03-22T10:10:21.049Z</time></trkpt><trkpt lat="43.901047" lon="11.250585"><ele>558.8571428571429</ele><time>2026-03-22T10:10:24.042Z</time></trkpt><trkpt lat="43.9011038" lon="11.2506345"><ele>560.5714285714286</ele><time>2026-03-22T10:10:28.05Z</time></trkpt><trkpt lat="43.9011432" lon="11.2507248"><ele>562.2857142857143</ele><time>2026-03-22T10:10:33.03Z</time></trkpt><trkpt lat="43.9011902" lon="11.2508116"><ele>564.0</ele><time>2026-03-22T10:10:37.037Z</time></trkpt><trkpt lat="43.9012535" lon="11.2508759"><ele>565.8333333333334</ele><time>2026-03-22T10:10:41.034Z</time></trkpt><trkpt lat="43.9013126" lon="11.2509613"><ele>567.6666666666666</ele><time>2026-03-22T10:10:45.054Z</time></trkpt><trkpt lat="43.9013862" lon="11.2510119"><ele>569.5</ele><time>2026-03-22T10:10:49.04Z</time></trkpt><trkpt lat="43.9014536" lon="11.2510561"><ele>571.3333333333333</ele><time>2026-03-22T10:10:53.043Z</time></trkpt><trkpt lat="43.9015064" lon="11.251116"><ele>573.1666666666666</ele><time>2026-03-22T10:10:56.022Z</time></trkpt><trkpt lat="43.9015767" lon="11.251177"><ele>575.0</ele><time>2026-03-22T10:11:00.039Z</time></trkpt><trkpt lat="43.9016269" lon="11.2512326"><ele>575.0</ele><time>2026-03-22T10:11:04.045Z</time></trkpt><trkpt lat="43.9016846" lon="11.2512984"><ele>575.0</ele><time>2026-03-22T10:11:09.027Z</time></trkpt><trkpt lat="43.9017269" lon="11.2513851"><ele>575.0</ele><time>2026-03-22T10:11:14.027Z</time></trkpt><trkpt lat="43.9017642" lon="11.2514582"><ele>575.0</ele><time>2026-03-22T10:11:18.024Z</time></trkpt><trkpt lat="43.9018103" lon="11.2515233"><ele>575.0</ele><time>2026-03-22T10:11:22.039Z</time></trkpt><trkpt lat="43.9018694" lon="11.2515842"><ele>575.0</ele><time>2026-03-22T10:11:26.028Z</time></trkpt><trkpt lat="43.9019304" lon="11.2516335"><ele>575.0</ele><time>2026-03-22T10:11:30.026Z</time></trkpt><trkpt lat="43.9020032" lon="11.2516454"><ele>576.5714285714286</ele><time>2026-03-22T10:11:36.026Z</time></trkpt><trkpt lat="43.9020777" lon="11.2516277"><ele>578.1428571428571</ele><time>2026-03-22T10:11:41.022Z</time></trkpt><trkpt lat="43.9021404" lon="11.2516454"><ele>579.7142857142857</ele><time>2026-03-22T10:11:45.03Z</time></trkpt><trkpt lat="43.9022035" lon="11.251652"><ele>581.2857142857142</ele><time>2026-03-22T10:11:49.031Z</time></trkpt><trkpt lat="43.902268" lon="11.2516565"><ele>582.8571428571429</ele><time>2026-03-22T10:12:16.024Z</time></trkpt><trkpt lat="43.9023461" lon="11.2516534"><ele>584.4285714285713</ele><time>2026-03-22T10:12:22.029Z</time></trkpt><trkpt lat="43.9024096" lon="11.2516409"><ele>586.0</ele><time>2026-03-22T10:12:26.034Z</time></trkpt><trkpt lat="43.9024711" lon="11.2516085"><ele>586.0</ele><time>2026-03-22T10:12:30.036Z</time></trkpt><trkpt lat="43.9025432" lon="11.2515719"><ele>586.0</ele><time>2026-03-22T10:12:35.03Z</time></trkpt><trkpt lat="43.9026124" lon="11.2515326"><ele>586.0</ele><time>2026-03-22T10:12:40.016Z</time></trkpt><trkpt lat="43.9026799" lon="11.2514918"><ele>586.0</ele><time>2026-03-22T10:12:44.019Z</time></trkpt><trkpt lat="43.9027582" lon="11.2514719"><ele>586.0</ele><time>2026-03-22T10:12:48.016Z</time></trkpt><trkpt lat="43.9028341" lon="11.2515046"><ele>586.0</ele><time>2026-03-22T10:12:52.024Z</time></trkpt><trkpt lat="43.902894" lon="11.2515542"><ele>587.1428571428571</ele><time>2026-03-22T10:12:56.03Z</time></trkpt><trkpt lat="43.9029512" lon="11.2516165"><ele>588.2857142857142</ele><time>2026-03-22T10:13:00.029Z</time></trkpt><trkpt lat="43.9029968" lon="11.2516775"><ele>589.4285714285714</ele><time>2026-03-22T10:13:04.042Z</time></trkpt><trkpt lat="43.903012" lon="11.2517659"><ele>590.5714285714286</ele><time>2026-03-22T10:13:09.034Z</time></trkpt><trkpt lat="43.9030361" lon="11.251848"><ele>591.7142857142858</ele><time>2026-03-22T10:13:14.016Z</time></trkpt><trkpt lat="43.903074" lon="11.2519192"><ele>592.8571428571429</ele><time>2026-03-22T10:13:18.024Z</time></trkpt><trkpt lat="43.9031297" lon="11.2519828"><ele>594.0</ele><time>2026-03-22T10:13:23.026Z</time></trkpt><trkpt lat="43.9031891" lon="11.252012"><ele>594.0</ele><time>2026-03-22T10:13:27.039Z</time></trkpt><trkpt lat="43.9032579" lon="11.2520084"><ele>594.0</ele><time>2026-03-22T10:13:31.021Z</time></trkpt><trkpt lat="43.9033295" lon="11.2520044"><ele>594.0</ele><time>2026-03-22T10:13:35.037Z</time></trkpt><trkpt lat="43.9034032" lon="11.2520142"><ele>594.0</ele><time>2026-03-22T10:13:40.037Z</time></trkpt><trkpt lat="43.9034693" lon="11.2519829"><ele>594.0</ele><time>2026-03-22T10:13:48.018Z</time></trkpt><trkpt lat="43.9035316" lon="11.2519638"><ele>594.0</ele><time>2026-03-22T10:13:52.024Z</time></trkpt><trkpt lat="43.9035982" lon="11.2519605"><ele>594.0</ele><time>2026-03-22T10:13:56.03Z</time></trkpt><trkpt lat="43.9036616" lon="11.2519656"><ele>593.8571428571429</ele><time>2026-03-22T10:14:00.041Z</time></trkpt><trkpt lat="43.9037115" lon="11.252021"><ele>593.7142857142858</ele><time>2026-03-22T10:14:05.036Z</time></trkpt><trkpt lat="43.9037462" lon="11.2521085"><ele>593.5714285714286</ele><time>2026-03-22T10:14:10.025Z</time></trkpt><trkpt lat="43.903729" lon="11.2522127"><ele>593.4285714285714</ele><time>2026-03-22T10:14:15.033Z</time></trkpt><trkpt lat="43.903713" lon="11.2523117"><ele>593.2857142857142</ele><time>2026-03-22T10:14:20.024Z</time></trkpt><trkpt lat="43.9037039" lon="11.2524204"><ele>593.1428571428571</ele><time>2026-03-22T10:14:25.044Z</time></trkpt><trkpt lat="43.9036784" lon="11.2525177"><ele>593.0</ele><time>2026-03-22T10:14:29.043Z</time></trkpt><trkpt lat="43.9036491" lon="11.2526183"><ele>592.9999999999999</ele><time>2026-03-22T10:14:33.016Z</time></trkpt><trkpt lat="43.9036165" lon="11.2527259"><ele>593.0</ele><time>2026-03-22T10:14:38.019Z</time></trkpt><trkpt lat="43.9036023" lon="11.2528114"><ele>593.0</ele><time>2026-03-22T10:14:42.043Z</time></trkpt><trkpt lat="43.9036209" lon="11.2529047"><ele>593.0</ele><time>2026-03-22T10:14:46.029Z</time></trkpt><trkpt lat="43.9036461" lon="11.2529995"><ele>593.0</ele><time>2026-03-22T10:14:50.034Z</time></trkpt><trkpt lat="43.9036677" lon="11.253098"><ele>592.9999999999999</ele><time>2026-03-22T10:14:54.027Z</time></trkpt><trkpt lat="43.9036755" lon="11.2531878"><ele>593.0</ele><time>2026-03-22T10:14:57.036Z</time></trkpt><trkpt lat="43.9037011" lon="11.2532713"><ele>594.1428571428571</ele><time>2026-03-22T10:15:00.037Z</time></trkpt><trkpt lat="43.9037361" lon="11.2533496"><ele>595.2857142857142</ele><time>2026-03-22T10:15:03.038Z</time></trkpt><trkpt lat="43.9037953" lon="11.2534236"><ele>596.4285714285713</ele><time>2026-03-22T10:15:08.043Z</time></trkpt><trkpt lat="43.9038208" lon="11.2535147"><ele>597.5714285714286</ele><time>2026-03-22T10:15:12.021Z</time></trkpt><trkpt lat="43.9038262" lon="11.2536175"><ele>598.7142857142858</ele><time>2026-03-22T10:15:16.045Z</time></trkpt><trkpt lat="43.9038532" lon="11.2537137"><ele>599.8571428571428</ele><time>2026-03-22T10:15:20.034Z</time></trkpt><trkpt lat="43.903924" lon="11.2537511"><ele>601.0</ele><time>2026-03-22T10:15:24.027Z</time></trkpt><trkpt lat="43.9039908" lon="11.2537719"><ele>601.0</ele><time>2026-03-22T10:15:28.046Z</time></trkpt><trkpt lat="43.9040584" lon="11.253807"><ele>601.0</ele><time>2026-03-22T10:15:32.042Z</time></trkpt><trkpt lat="43.9041243" lon="11.2538625"><ele>601.0</ele><time>2026-03-22T10:15:37.03Z</time></trkpt><trkpt lat="43.9041911" lon="11.2538929"><ele>601.0</ele><time>2026-03-22T10:15:41.028Z</time></trkpt><trkpt lat="43.90426" lon="11.2539057"><ele>601.0</ele><time>2026-03-22T10:15:45.035Z</time></trkpt><trkpt lat="43.9043246" lon="11.2539445"><ele>601.0</ele><time>2026-03-22T10:15:49.046Z</time></trkpt><trkpt lat="43.9043887" lon="11.2539644"><ele>601.0</ele><time>2026-03-22T10:15:53.035Z</time></trkpt><trkpt lat="43.9044675" lon="11.2539533"><ele>600.5714285714286</ele><time>2026-03-22T10:15:58.033Z</time></trkpt><trkpt lat="43.9045356" lon="11.2539646"><ele>600.1428571428572</ele><time>2026-03-22T10:16:03.036Z</time></trkpt><trkpt lat="43.9046045" lon="11.2539993"><ele>599.7142857142858</ele><time>2026-03-22T10:16:07.026Z</time></trkpt><trkpt lat="43.9046683" lon="11.2539955"><ele>599.2857142857142</ele><time>2026-03-22T10:16:11.046Z</time></trkpt><trkpt lat="43.9047439" lon="11.2540117"><ele>598.8571428571429</ele><time>2026-03-22T10:16:15.036Z</time></trkpt><trkpt lat="43.9047984" lon="11.2540741"><ele>598.4285714285714</ele><time>2026-03-22T10:16:19.052Z</time></trkpt><trkpt lat="43.9048481" lon="11.2541288"><ele>598.0</ele><time>2026-03-22T10:16:22.043Z</time></trkpt><trkpt lat="43.9049059" lon="11.2542025"><ele>598.0</ele><time>2026-03-22T10:16:26.03Z</time></trkpt><trkpt lat="43.9049578" lon="11.2542598"><ele>598.0</ele><time>2026-03-22T10:16:32.028Z</time></trkpt><trkpt lat="43.9050098" lon="11.2543193"><ele>598.0</ele><time>2026-03-22T10:16:36.053Z</time></trkpt><trkpt lat="43.9050515" lon="11.2544013"><ele>598.0</ele><time>2026-03-22T10:16:42.025Z</time></trkpt><trkpt lat="43.9051186" lon="11.2544158"><ele>598.0</ele><time>2026-03-22T10:16:48.037Z</time></trkpt><trkpt lat="43.9051853" lon="11.2544381"><ele>598.0</ele><time>2026-03-22T10:16:54.033Z</time></trkpt><trkpt lat="43.9052646" lon="11.2544298"><ele>598.0</ele><time>2026-03-22T10:16:59.022Z</time></trkpt><trkpt lat="43.9053346" lon="11.2544384"><ele>597.2857142857142</ele><time>2026-03-22T10:17:03.048Z</time></trkpt><trkpt lat="43.9054074" lon="11.2544178"><ele>596.5714285714286</ele><time>2026-03-22T10:17:09.027Z</time></trkpt><trkpt lat="43.9054772" lon="11.2543856"><ele>595.8571428571429</ele><time>2026-03-22T10:17:13.02Z</time></trkpt><trkpt lat="43.9055467" lon="11.2543578"><ele>595.1428571428571</ele><time>2026-03-22T10:17:17.028Z</time></trkpt><trkpt lat="43.9056225" lon="11.2543462"><ele>594.4285714285714</ele><time>2026-03-22T10:17:21.022Z</time></trkpt><trkpt lat="43.9056925" lon="11.2543501"><ele>593.7142857142857</ele><time>2026-03-22T10:17:25.053Z</time></trkpt><trkpt lat="43.9057746" lon="11.2543666"><ele>593.0</ele><time>2026-03-22T10:17:30.038Z</time></trkpt><trkpt lat="43.9058332" lon="11.2544225"><ele>592.9999999999999</ele><time>2026-03-22T10:17:34.023Z</time></trkpt><trkpt lat="43.9059011" lon="11.2544532"><ele>593.0</ele><time>2026-03-22T10:17:37.043Z</time></trkpt><trkpt lat="43.9059744" lon="11.2544548"><ele>593.0</ele><time>2026-03-22T10:17:40.022Z</time></trkpt><trkpt lat="43.9060484" lon="11.2544472"><ele>593.0</ele><time>2026-03-22T10:17:44.03Z</time></trkpt><trkpt lat="43.906119" lon="11.2544685"><ele>593.0</ele><time>2026-03-22T10:17:48.038Z</time></trkpt><trkpt lat="43.9061749" lon="11.2545101"><ele>592.9999999999999</ele><time>2026-03-22T10:17:52.021Z</time></trkpt><trkpt lat="43.9062439" lon="11.2545518"><ele>593.0</ele><time>2026-03-22T10:17:56.051Z</time></trkpt><trkpt lat="43.9063102" lon="11.2545773"><ele>593.2857142857142</ele><time>2026-03-22T10:18:01.022Z</time></trkpt><trkpt lat="43.9063563" lon="11.2546579"><ele>593.5714285714286</ele><time>2026-03-22T10:18:07.029Z</time></trkpt><trkpt lat="43.9064181" lon="11.2547079"><ele>593.8571428571429</ele><time>2026-03-22T10:18:11.018Z</time></trkpt><trkpt lat="43.9064706" lon="11.2547817"><ele>594.1428571428571</ele><time>2026-03-22T10:26:37.046Z</time></trkpt><trkpt lat="43.9065257" lon="11.2548317"><ele>594.4285714285714</ele><time>2026-03-22T10:26:44.02Z</time></trkpt><trkpt lat="43.9065922" lon="11.2548696"><ele>594.7142857142857</ele><time>2026-03-22T10:26:50.028Z</time></trkpt><trkpt lat="43.9066563" lon="11.2549117"><ele>595.0</ele><time>2026-03-22T10:26:55.019Z</time></trkpt><trkpt lat="43.9067304" lon="11.2549611"><ele>593.7142857142857</ele><time>2026-03-22T10:27:01.019Z</time></trkpt><trkpt lat="43.9067808" lon="11.2550358"><ele>592.4285714285714</ele><time>2026-03-22T10:27:06.029Z</time></trkpt><trkpt lat="43.9068206" lon="11.2551137"><ele>591.1428571428571</ele><time>2026-03-22T10:27:10.022Z</time></trkpt><trkpt lat="43.9068708" lon="11.2551866"><ele>589.8571428571429</ele><time>2026-03-22T10:27:14.026Z</time></trkpt><trkpt lat="43.9069256" lon="11.2552666"><ele>588.5714285714286</ele><time>2026-03-22T10:27:19.029Z</time></trkpt><trkpt lat="43.9069658" lon="11.2553475"><ele>587.2857142857142</ele><time>2026-03-22T10:27:23.015Z</time></trkpt><trkpt lat="43.9070024" lon="11.2554295"><ele>586.0</ele><time>2026-03-22T10:27:27.028Z</time></trkpt><trkpt lat="43.9070373" lon="11.2555137"><ele>585.9999999999999</ele><time>2026-03-22T10:27:31.014Z</time></trkpt><trkpt lat="43.9070607" lon="11.2555959"><ele>586.0</ele><time>2026-03-22T10:27:35.013Z</time></trkpt><trkpt lat="43.9070736" lon="11.2556851"><ele>586.0</ele><time>2026-03-22T10:27:39.024Z</time></trkpt><trkpt lat="43.9071038" lon="11.2557747"><ele>586.0</ele><time>2026-03-22T10:27:43.022Z</time></trkpt><trkpt lat="43.9071481" lon="11.2558499"><ele>586.0</ele><time>2026-03-22T10:27:46.025Z</time></trkpt><trkpt lat="43.9071961" lon="11.2559079"><ele>585.9999999999999</ele><time>2026-03-22T10:27:49.019Z</time></trkpt><trkpt lat="43.9072553" lon="11.2559741"><ele>586.0</ele><time>2026-03-22T10:27:53.031Z</time></trkpt><trkpt lat="43.9073016" lon="11.2560449"><ele>586.8571428571428</ele><time>2026-03-22T10:27:56.023Z</time></trkpt><trkpt lat="43.907347" lon="11.2561236"><ele>587.7142857142857</ele><time>2026-03-22T10:28:00.049Z</time></trkpt><trkpt lat="43.9073996" lon="11.2561982"><ele>588.5714285714286</ele><time>2026-03-22T10:28:05.026Z</time></trkpt><trkpt lat="43.9074377" lon="11.2562811"><ele>589.4285714285713</ele><time>2026-03-22T10:28:09.017Z</time></trkpt><trkpt lat="43.9074917" lon="11.2563423"><ele>590.2857142857142</ele><time>2026-03-22T10:28:13.025Z</time></trkpt><trkpt lat="43.9075482" lon="11.2564163"><ele>591.1428571428571</ele><time>2026-03-22T10:28:17.033Z</time></trkpt><trkpt lat="43.9075902" lon="11.2565041"><ele>592.0</ele><time>2026-03-22T10:28:21.02Z</time></trkpt><trkpt lat="43.9076354" lon="11.2565745"><ele>592.0</ele><time>2026-03-22T10:28:25.028Z</time></trkpt><trkpt lat="43.9076957" lon="11.2566316"><ele>592.0</ele><time>2026-03-22T10:28:29.036Z</time></trkpt><trkpt lat="43.9076394" lon="11.2565898"><ele>592.0</ele><time>2026-03-22T10:32:23.045Z</time></trkpt><trkpt lat="43.9075998" lon="11.2565155"><ele>592.0</ele><time>2026-03-22T10:32:33.041Z</time></trkpt><trkpt lat="43.907566" lon="11.2564308"><ele>592.0</ele><time>2026-03-22T10:32:41.046Z</time></trkpt><trkpt lat="43.9075206" lon="11.2563675"><ele>592.0</ele><time>2026-03-22T10:33:20.007Z</time></trkpt><trkpt lat="43.9074652" lon="11.2563069"><ele>592.0</ele><time>2026-03-22T10:33:26.024Z</time></trkpt><trkpt lat="43.9074175" lon="11.2562424"><ele>592.8571428571429</ele><time>2026-03-22T10:33:31.043Z</time></trkpt><trkpt lat="43.9073683" lon="11.2561775"><ele>593.7142857142857</ele><time>2026-03-22T10:33:37.018Z</time></trkpt><trkpt lat="43.9073242" lon="11.2561134"><ele>594.5714285714286</ele><time>2026-03-22T10:33:43.035Z</time></trkpt><trkpt lat="43.9072856" lon="11.2560252"><ele>595.4285714285714</ele><time>2026-03-22T10:33:48.052Z</time></trkpt><trkpt lat="43.9072325" lon="11.2559602"><ele>596.2857142857143</ele><time>2026-03-22T10:33:54.053Z</time></trkpt><trkpt lat="43.9071863" lon="11.2558789"><ele>597.1428571428571</ele><time>2026-03-22T10:34:16.024Z</time></trkpt><trkpt lat="43.9071407" lon="11.2558101"><ele>598.0</ele><time>2026-03-22T10:34:21.026Z</time></trkpt><trkpt lat="43.9070948" lon="11.2557208"><ele>598.0</ele><time>2026-03-22T10:34:26.025Z</time></trkpt><trkpt lat="43.9070844" lon="11.2556223"><ele>598.0</ele><time>2026-03-22T10:34:31.028Z</time></trkpt><trkpt lat="43.9070697" lon="11.2555265"><ele>598.0</ele><time>2026-03-22T10:34:35.028Z</time></trkpt><trkpt lat="43.9070513" lon="11.2554357"><ele>598.0</ele><time>2026-03-22T10:34:39.025Z</time></trkpt><trkpt lat="43.907004" lon="11.2553552"><ele>598.0</ele><time>2026-03-22T10:34:42.026Z</time></trkpt><trkpt lat="43.9069589" lon="11.2552609"><ele>598.0</ele><time>2026-03-22T10:34:46.024Z</time></trkpt><trkpt lat="43.9069181" lon="11.2551869"><ele>598.0</ele><time>2026-03-22T10:34:49.029Z</time></trkpt><trkpt lat="43.9068684" lon="11.2551067"><ele>598.0</ele><time>2026-03-22T10:34:53.021Z</time></trkpt><trkpt lat="43.9068265" lon="11.255018"><ele>598.0</ele><time>2026-03-22T10:34:57.038Z</time></trkpt><trkpt lat="43.9067945" lon="11.2549416"><ele>598.0</ele><time>2026-03-22T10:35:00.028Z</time></trkpt><trkpt lat="43.9067378" lon="11.2548958"><ele>598.0</ele><time>2026-03-22T10:35:03.023Z</time></trkpt><trkpt lat="43.906676" lon="11.2548609"><ele>598.0</ele><time>2026-03-22T10:35:06.03Z</time></trkpt><trkpt lat="43.906601" lon="11.2548233"><ele>598.0</ele><time>2026-03-22T10:35:10.028Z</time></trkpt><trkpt lat="43.9065425" lon="11.2547847"><ele>598.0</ele><time>2026-03-22T10:35:14.032Z</time></trkpt><trkpt lat="43.9064862" lon="11.2547389"><ele>597.5</ele><time>2026-03-22T10:35:18.016Z</time></trkpt><trkpt lat="43.9064161" lon="11.254668"><ele>597.0</ele><time>2026-03-22T10:35:22.037Z</time></trkpt><trkpt lat="43.9063418" lon="11.2546159"><ele>596.5</ele><time>2026-03-22T10:35:26.023Z</time></trkpt><trkpt lat="43.906276" lon="11.2545604"><ele>596.0</ele><time>2026-03-22T10:35:30.024Z</time></trkpt><trkpt lat="43.9062096" lon="11.2545144"><ele>595.5</ele><time>2026-03-22T10:35:34.039Z</time></trkpt><trkpt lat="43.9061429" lon="11.2544614"><ele>595.0</ele><time>2026-03-22T10:35:38.019Z</time></trkpt><trkpt lat="43.9060862" lon="11.2544183"><ele>595.0</ele><time>2026-03-22T10:35:42.037Z</time></trkpt><trkpt lat="43.9060233" lon="11.2544038"><ele>595.0</ele><time>2026-03-22T10:35:45.034Z</time></trkpt><trkpt lat="43.9059582" lon="11.2544084"><ele>595.0</ele><time>2026-03-22T10:35:48.013Z</time></trkpt><trkpt lat="43.9058856" lon="11.2543972"><ele>595.0</ele><time>2026-03-22T10:35:51.064Z</time></trkpt><trkpt lat="43.9058142" lon="11.2543745"><ele>595.0</ele><time>2026-03-22T10:35:55.023Z</time></trkpt><trkpt lat="43.9057575" lon="11.2543362"><ele>595.0</ele><time>2026-03-22T10:35:59.022Z</time></trkpt><trkpt lat="43.9056929" lon="11.2543365"><ele>595.0</ele><time>2026-03-22T10:36:04.011Z</time></trkpt><trkpt lat="43.9056197" lon="11.2543415"><ele>594.6666666666667</ele><time>2026-03-22T10:36:09.026Z</time></trkpt><trkpt lat="43.90554" lon="11.2543613"><ele>594.3333333333334</ele><time>2026-03-22T10:36:13.038Z</time></trkpt><trkpt lat="43.9054643" lon="11.2543818"><ele>594.0</ele><time>2026-03-22T10:36:17.042Z</time></trkpt><trkpt lat="43.9053982" lon="11.2544105"><ele>593.6666666666666</ele><time>2026-03-22T10:36:21.024Z</time></trkpt><trkpt lat="43.9053249" lon="11.2544033"><ele>593.3333333333333</ele><time>2026-03-22T10:36:25.028Z</time></trkpt><trkpt lat="43.9052413" lon="11.2544186"><ele>593.0</ele><time>2026-03-22T10:36:29.024Z</time></trkpt><trkpt lat="43.9051705" lon="11.2544075"><ele>592.9999999999999</ele><time>2026-03-22T10:36:34.02Z</time></trkpt><trkpt lat="43.9051058" lon="11.2544023"><ele>593.0</ele><time>2026-03-22T10:36:38.035Z</time></trkpt><trkpt lat="43.9050421" lon="11.254365"><ele>593.0</ele><time>2026-03-22T10:36:43.011Z</time></trkpt><trkpt lat="43.9049925" lon="11.2542942"><ele>593.0</ele><time>2026-03-22T10:36:48.028Z</time></trkpt><trkpt lat="43.9049371" lon="11.2542277"><ele>593.0</ele><time>2026-03-22T10:36:52.011Z</time></trkpt><trkpt lat="43.9048765" lon="11.2541653"><ele>592.9999999999999</ele><time>2026-03-22T10:36:57.027Z</time></trkpt><trkpt lat="43.9048336" lon="11.2541013"><ele>593.0</ele><time>2026-03-22T10:37:01.015Z</time></trkpt><trkpt lat="43.9047795" lon="11.2540213"><ele>593.7142857142857</ele><time>2026-03-22T10:37:05.012Z</time></trkpt><trkpt lat="43.9047046" lon="11.2539885"><ele>594.4285714285714</ele><time>2026-03-22T10:37:09.033Z</time></trkpt><trkpt lat="43.9046236" lon="11.2539706"><ele>595.1428571428571</ele><time>2026-03-22T10:37:13.027Z</time></trkpt><trkpt lat="43.9045609" lon="11.253934"><ele>595.8571428571429</ele><time>2026-03-22T10:37:17.033Z</time></trkpt><trkpt lat="43.9044986" lon="11.2539091"><ele>596.5714285714286</ele><time>2026-03-22T10:37:21.024Z</time></trkpt><trkpt lat="43.9044177" lon="11.2539146"><ele>597.2857142857142</ele><time>2026-03-22T10:37:25.033Z</time></trkpt><trkpt lat="43.9043469" lon="11.253909"><ele>598.0</ele><time>2026-03-22T10:37:29.026Z</time></trkpt><trkpt lat="43.9042768" lon="11.2538827"><ele>598.4285714285714</ele><time>2026-03-22T10:37:33.027Z</time></trkpt><trkpt lat="43.9042066" lon="11.2538598"><ele>598.8571428571429</ele><time>2026-03-22T10:37:37.044Z</time></trkpt><trkpt lat="43.9041431" lon="11.2538392"><ele>599.2857142857142</ele><time>2026-03-22T10:37:41.018Z</time></trkpt><trkpt lat="43.9040826" lon="11.2538016"><ele>599.7142857142858</ele><time>2026-03-22T10:37:45.037Z</time></trkpt><trkpt lat="43.9040276" lon="11.2537495"><ele>600.1428571428572</ele><time>2026-03-22T10:37:48.02Z</time></trkpt><trkpt lat="43.903962" lon="11.2537291"><ele>600.5714285714286</ele><time>2026-03-22T10:37:52.027Z</time></trkpt><trkpt lat="43.9038921" lon="11.2537254"><ele>601.0</ele><time>2026-03-22T10:37:56.031Z</time></trkpt><trkpt lat="43.9038409" lon="11.2536669"><ele>601.0</ele><time>2026-03-22T10:38:00.014Z</time></trkpt><trkpt lat="43.903812" lon="11.2535673"><ele>601.0</ele><time>2026-03-22T10:38:05.027Z</time></trkpt><trkpt lat="43.9038011" lon="11.2534599"><ele>601.0</ele><time>2026-03-22T10:38:09.023Z</time></trkpt><trkpt lat="43.9037554" lon="11.2533735"><ele>601.0</ele><time>2026-03-22T10:38:14.021Z</time></trkpt><trkpt lat="43.9037062" lon="11.2532932"><ele>601.0</ele><time>2026-03-22T10:38:18.021Z</time></trkpt><trkpt lat="43.9036904" lon="11.2531975"><ele>601.0</ele><time>2026-03-22T10:38:22.027Z</time></trkpt><trkpt lat="43.9036912" lon="11.2531057"><ele>601.0</ele><time>2026-03-22T10:38:26.015Z</time></trkpt><trkpt lat="43.9036679" lon="11.2529994"><ele>599.8571428571428</ele><time>2026-03-22T10:38:30.032Z</time></trkpt><trkpt lat="43.9036551" lon="11.2529058"><ele>598.7142857142858</ele><time>2026-03-22T10:38:34.029Z</time></trkpt><trkpt lat="43.9036386" lon="11.2528207"><ele>597.5714285714286</ele><time>2026-03-22T10:38:39.025Z</time></trkpt><trkpt lat="43.9036728" lon="11.2527188"><ele>596.4285714285713</ele><time>2026-03-22T10:38:45.032Z</time></trkpt><trkpt lat="43.9037046" lon="11.2526337"><ele>595.2857142857142</ele><time>2026-03-22T10:38:49.024Z</time></trkpt><trkpt lat="43.903731" lon="11.2525374"><ele>594.1428571428571</ele><time>2026-03-22T10:38:53.028Z</time></trkpt><trkpt lat="43.9037575" lon="11.2524442"><ele>593.0</ele><time>2026-03-22T10:38:57.03Z</time></trkpt><trkpt lat="43.903762" lon="11.2523453"><ele>591.9999999999999</ele><time>2026-03-22T10:39:02.025Z</time></trkpt><trkpt lat="43.9037763" lon="11.2522575"><ele>591.0</ele><time>2026-03-22T10:39:06.031Z</time></trkpt><trkpt lat="43.9037956" lon="11.2521596"><ele>590.0</ele><time>2026-03-22T10:39:10.04Z</time></trkpt><trkpt lat="43.9037744" lon="11.2520696"><ele>589.0</ele><time>2026-03-22T10:39:23.024Z</time></trkpt><trkpt lat="43.9037367" lon="11.2519971"><ele>588.0</ele><time>2026-03-22T10:39:27.016Z</time></trkpt><trkpt lat="43.903675" lon="11.2519458"><ele>586.9999999999999</ele><time>2026-03-22T10:39:32.047Z</time></trkpt><trkpt lat="43.9037208" lon="11.2519708"><ele>586.0</ele><time>2026-03-22T10:41:29.033Z</time></trkpt><trkpt lat="43.9037596" lon="11.2520398"><ele>585.9999999999999</ele><time>2026-03-22T10:41:37.032Z</time></trkpt><trkpt lat="43.9038208" lon="11.251992"><ele>586.0</ele><time>2026-03-22T10:41:50.014Z</time></trkpt><trkpt lat="43.9038675" lon="11.2519096"><ele>586.0</ele><time>2026-03-22T10:41:56.024Z</time></trkpt><trkpt lat="43.9038994" lon="11.251828"><ele>586.0</ele><time>2026-03-22T10:42:02.045Z</time></trkpt><trkpt lat="43.9039471" lon="11.2517517"><ele>586.0</ele><time>2026-03-22T10:42:08.022Z</time></trkpt><trkpt lat="43.9039942" lon="11.2516902"><ele>585.9999999999999</ele><time>2026-03-22T10:42:12.028Z</time></trkpt><trkpt lat="43.9040473" lon="11.2516258"><ele>586.0</ele><time>2026-03-22T10:42:16.022Z</time></trkpt><trkpt lat="43.9040928" lon="11.2515629"><ele>585.9999999999999</ele><time>2026-03-22T10:42:20.023Z</time></trkpt><trkpt lat="43.9041354" lon="11.2514967"><ele>586.0</ele><time>2026-03-22T10:42:24.025Z</time></trkpt><trkpt lat="43.9042021" lon="11.2515167"><ele>586.0</ele><time>2026-03-22T10:42:29.023Z</time></trkpt><trkpt lat="43.904246" lon="11.2515934"><ele>586.0</ele><time>2026-03-22T10:42:33.018Z</time></trkpt><trkpt lat="43.9042906" lon="11.251668"><ele>586.0</ele><time>2026-03-22T10:43:30.006Z</time></trkpt><trkpt lat="43.9043461" lon="11.2517437"><ele>585.9999999999999</ele><time>2026-03-22T10:43:36.007Z</time></trkpt><trkpt lat="43.9044058" lon="11.2518076"><ele>586.0</ele><time>2026-03-22T10:43:40.006Z</time></trkpt><trkpt lat="43.904489" lon="11.2518294"><ele>583.5714285714286</ele><time>2026-03-22T10:43:44.009Z</time></trkpt><trkpt lat="43.9045582" lon="11.2518211"><ele>581.1428571428571</ele><time>2026-03-22T10:43:48.025Z</time></trkpt><trkpt lat="43.904627" lon="11.2518258"><ele>578.7142857142858</ele><time>2026-03-22T10:43:55.013Z</time></trkpt><trkpt lat="43.9046956" lon="11.2518498"><ele>576.2857142857142</ele><time>2026-03-22T10:44:00.028Z</time></trkpt><trkpt lat="43.9047915" lon="11.251861"><ele>573.8571428571429</ele><time>2026-03-22T10:44:41.007Z</time></trkpt><trkpt lat="43.9048647" lon="11.2518311"><ele>571.4285714285714</ele><time>2026-03-22T10:44:48.013Z</time></trkpt><trkpt lat="43.9049265" lon="11.251851"><ele>569.0</ele><time>2026-03-22T10:44:52.03Z</time></trkpt><trkpt lat="43.9049858" lon="11.2518869"><ele>569.0000000000001</ele><time>2026-03-22T10:45:00.008Z</time></trkpt><trkpt lat="43.9050507" lon="11.2519128"><ele>569.0</ele><time>2026-03-22T10:45:07.019Z</time></trkpt><trkpt lat="43.9051121" lon="11.2519449"><ele>569.0</ele><time>2026-03-22T10:45:13.015Z</time></trkpt><trkpt lat="43.9050562" lon="11.2519003"><ele>569.0</ele><time>2026-03-22T10:49:59.019Z</time></trkpt><trkpt lat="43.9049909" lon="11.2518994"><ele>569.0</ele><time>2026-03-22T10:50:18.022Z</time></trkpt><trkpt lat="43.9049354" lon="11.251852"><ele>569.0000000000001</ele><time>2026-03-22T10:50:53.01Z</time></trkpt><trkpt lat="43.9048632" lon="11.2518569"><ele>569.0</ele><time>2026-03-22T10:50:58.022Z</time></trkpt><trkpt lat="43.9047922" lon="11.2518674"><ele>569.0000000000001</ele><time>2026-03-22T10:51:03.006Z</time></trkpt><trkpt lat="43.9047215" lon="11.2518387"><ele>569.0</ele><time>2026-03-22T10:51:09.016Z</time></trkpt><trkpt lat="43.9046496" lon="11.2517994"><ele>569.0</ele><time>2026-03-22T10:51:14.022Z</time></trkpt><trkpt lat="43.9045873" lon="11.2517838"><ele>569.0</ele><time>2026-03-22T10:51:18.014Z</time></trkpt><trkpt lat="43.9045082" lon="11.2517887"><ele>569.0</ele><time>2026-03-22T10:51:22.026Z</time></trkpt><trkpt lat="43.9044283" lon="11.2517838"><ele>569.0000000000001</ele><time>2026-03-22T10:51:26.031Z</time></trkpt><trkpt lat="43.9043733" lon="11.2517265"><ele>569.0</ele><time>2026-03-22T10:51:29.03Z</time></trkpt><trkpt lat="43.9043284" lon="11.2516601"><ele>569.0000000000001</ele><time>2026-03-22T10:51:33.015Z</time></trkpt><trkpt lat="43.9042776" lon="11.2516041"><ele>569.0</ele><time>2026-03-22T10:51:36.007Z</time></trkpt><trkpt lat="43.9042232" lon="11.2515449"><ele>569.0</ele><time>2026-03-22T10:51:39.058Z</time></trkpt><trkpt lat="43.9041702" lon="11.2514958"><ele>569.0</ele><time>2026-03-22T10:51:43.026Z</time></trkpt><trkpt lat="43.9041016" lon="11.2515198"><ele>569.0</ele><time>2026-03-22T10:52:08.01Z</time></trkpt><trkpt lat="43.9040683" lon="11.2515946"><ele>569.0000000000001</ele><time>2026-03-22T10:52:11.036Z</time></trkpt><trkpt lat="43.9040191" lon="11.251652"><ele>569.0</ele><time>2026-03-22T10:52:15.014Z</time></trkpt><trkpt lat="43.9039652" lon="11.251727"><ele>571.4285714285714</ele><time>2026-03-22T10:52:19.015Z</time></trkpt><trkpt lat="43.9039129" lon="11.2517891"><ele>573.8571428571429</ele><time>2026-03-22T10:52:23.009Z</time></trkpt><trkpt lat="43.9038634" lon="11.2518677"><ele>576.2857142857142</ele><time>2026-03-22T10:52:27.012Z</time></trkpt><trkpt lat="43.9038303" lon="11.2519462"><ele>578.7142857142858</ele><time>2026-03-22T10:52:30.013Z</time></trkpt><trkpt lat="43.9037875" lon="11.2520156"><ele>581.1428571428571</ele><time>2026-03-22T10:52:33.026Z</time></trkpt><trkpt lat="43.9037277" lon="11.2520442"><ele>583.5714285714286</ele><time>2026-03-22T10:52:53.005Z</time></trkpt><trkpt lat="43.903687" lon="11.2519749"><ele>586.0</ele><time>2026-03-22T10:52:58.004Z</time></trkpt><trkpt lat="43.9036215" lon="11.2519604"><ele>585.9999999999999</ele><time>2026-03-22T10:53:03.026Z</time></trkpt><trkpt lat="43.9035535" lon="11.2519537"><ele>586.0</ele><time>2026-03-22T10:53:07.061Z</time></trkpt><trkpt lat="43.903486" lon="11.2519556"><ele>586.0</ele><time>2026-03-22T10:53:12.02Z</time></trkpt><trkpt lat="43.9034131" lon="11.2519749"><ele>586.0</ele><time>2026-03-22T10:53:17.022Z</time></trkpt><trkpt lat="43.9033453" lon="11.2519868"><ele>586.0</ele><time>2026-03-22T10:53:21.016Z</time></trkpt><trkpt lat="43.9032745" lon="11.251984"><ele>585.9999999999999</ele><time>2026-03-22T10:53:25.008Z</time></trkpt><trkpt lat="43.9032027" lon="11.2519732"><ele>586.0</ele><time>2026-03-22T10:53:37.01Z</time></trkpt><trkpt lat="43.9031328" lon="11.2519387"><ele>587.1428571428571</ele><time>2026-03-22T10:53:42.03Z</time></trkpt><trkpt lat="43.9030839" lon="11.2518752"><ele>588.2857142857142</ele><time>2026-03-22T10:53:46.013Z</time></trkpt><trkpt lat="43.9030457" lon="11.251794"><ele>589.4285714285714</ele><time>2026-03-22T10:53:50.01Z</time></trkpt><trkpt lat="43.9030163" lon="11.2517022"><ele>590.5714285714286</ele><time>2026-03-22T10:53:54.019Z</time></trkpt><trkpt lat="43.9029757" lon="11.2516251"><ele>591.7142857142858</ele><time>2026-03-22T10:53:58.009Z</time></trkpt><trkpt lat="43.9029281" lon="11.2515678"><ele>592.8571428571429</ele><time>2026-03-22T10:54:01.014Z</time></trkpt><trkpt lat="43.9028623" lon="11.251515"><ele>594.0</ele><time>2026-03-22T10:54:05.028Z</time></trkpt><trkpt lat="43.902803" lon="11.2514812"><ele>594.0</ele><time>2026-03-22T10:54:09.025Z</time></trkpt><trkpt lat="43.9027282" lon="11.2514681"><ele>594.0</ele><time>2026-03-22T10:54:12.022Z</time></trkpt><trkpt lat="43.9026647" lon="11.2514845"><ele>594.0</ele><time>2026-03-22T10:54:15.014Z</time></trkpt><trkpt lat="43.9025964" lon="11.2515158"><ele>594.0</ele><time>2026-03-22T10:54:20.019Z</time></trkpt><trkpt lat="43.9025365" lon="11.2515519"><ele>594.0</ele><time>2026-03-22T10:54:24.005Z</time></trkpt><trkpt lat="43.9024754" lon="11.2516035"><ele>594.0</ele><time>2026-03-22T10:54:28.001Z</time></trkpt><trkpt lat="43.9023961" lon="11.2516344"><ele>594.0</ele><time>2026-03-22T10:54:33.008Z</time></trkpt><trkpt lat="43.9023182" lon="11.2516607"><ele>592.8571428571429</ele><time>2026-03-22T10:54:37.016Z</time></trkpt><trkpt lat="43.902247" lon="11.2516555"><ele>591.7142857142858</ele><time>2026-03-22T10:54:40.019Z</time></trkpt><trkpt lat="43.9021789" lon="11.2516549"><ele>590.5714285714286</ele><time>2026-03-22T10:54:43.017Z</time></trkpt><trkpt lat="43.9021126" lon="11.2516318"><ele>589.4285714285714</ele><time>2026-03-22T10:54:47.022Z</time></trkpt><trkpt lat="43.902036" lon="11.2516157"><ele>588.2857142857142</ele><time>2026-03-22T10:54:52.002Z</time></trkpt><trkpt lat="43.9019651" lon="11.2516327"><ele>587.1428571428571</ele><time>2026-03-22T10:54:56.031Z</time></trkpt><trkpt lat="43.9018987" lon="11.2516351"><ele>586.0</ele><time>2026-03-22T10:55:01.002Z</time></trkpt><trkpt lat="43.9018441" lon="11.2515843"><ele>585.9999999999999</ele><time>2026-03-22T10:55:06.016Z</time></trkpt><trkpt lat="43.9017839" lon="11.2515373"><ele>586.0</ele><time>2026-03-22T10:55:11.016Z</time></trkpt><trkpt lat="43.9017379" lon="11.2514616"><ele>586.0</ele><time>2026-03-22T10:55:16.018Z</time></trkpt><trkpt lat="43.9017087" lon="11.2513828"><ele>586.0</ele><time>2026-03-22T10:55:20.012Z</time></trkpt><trkpt lat="43.9016725" lon="11.2513025"><ele>586.0</ele><time>2026-03-22T10:55:29.028Z</time></trkpt><trkpt lat="43.9016239" lon="11.2512268"><ele>585.9999999999999</ele><time>2026-03-22T10:55:39.011Z</time></trkpt><trkpt lat="43.9015634" lon="11.2511709"><ele>586.0</ele><time>2026-03-22T10:55:44.016Z</time></trkpt><trkpt lat="43.9015052" lon="11.2511269"><ele>584.4285714285713</ele><time>2026-03-22T10:55:48.03Z</time></trkpt><trkpt lat="43.9014562" lon="11.2510715"><ele>582.8571428571429</ele><time>2026-03-22T10:55:53.014Z</time></trkpt><trkpt lat="43.9014032" lon="11.2510135"><ele>581.2857142857142</ele><time>2026-03-22T10:55:57.023Z</time></trkpt><trkpt lat="43.9013505" lon="11.2509535"><ele>579.7142857142857</ele><time>2026-03-22T10:56:01.009Z</time></trkpt><trkpt lat="43.901285" lon="11.250907"><ele>578.1428571428571</ele><time>2026-03-22T10:56:05.029Z</time></trkpt><trkpt lat="43.9012403" lon="11.2508383"><ele>576.5714285714286</ele><time>2026-03-22T10:56:09.024Z</time></trkpt><trkpt lat="43.9011718" lon="11.2507762"><ele>575.0</ele><time>2026-03-22T10:56:13.028Z</time></trkpt><trkpt lat="43.9011232" lon="11.2507037"><ele>573.1666666666666</ele><time>2026-03-22T10:56:17.001Z</time></trkpt><trkpt lat="43.9010828" lon="11.2506139"><ele>571.3333333333333</ele><time>2026-03-22T10:56:23.02Z</time></trkpt><trkpt lat="43.9010067" lon="11.2505838"><ele>569.5</ele><time>2026-03-22T10:56:28.022Z</time></trkpt><trkpt lat="43.9009348" lon="11.2506004"><ele>567.6666666666666</ele><time>2026-03-22T10:56:32.021Z</time></trkpt><trkpt lat="43.900869" lon="11.250653"><ele>565.8333333333334</ele><time>2026-03-22T10:56:35.019Z</time></trkpt><trkpt lat="43.9007979" lon="11.250697"><ele>564.0</ele><time>2026-03-22T10:56:39.018Z</time></trkpt><trkpt lat="43.9007191" lon="11.2507133"><ele>562.2857142857143</ele><time>2026-03-22T10:56:43.024Z</time></trkpt><trkpt lat="43.9006517" lon="11.2507213"><ele>560.5714285714286</ele><time>2026-03-22T10:56:47.027Z</time></trkpt><trkpt lat="43.9005774" lon="11.2507025"><ele>558.8571428571429</ele><time>2026-03-22T10:56:51.017Z</time></trkpt><trkpt lat="43.9005132" lon="11.2506727"><ele>557.1428571428571</ele><time>2026-03-22T10:56:55.013Z</time></trkpt><trkpt lat="43.9004451" lon="11.2506404"><ele>555.4285714285714</ele><time>2026-03-22T10:57:00.009Z</time></trkpt><trkpt lat="43.9003797" lon="11.2506713"><ele>553.7142857142858</ele><time>2026-03-22T10:57:04.018Z</time></trkpt><trkpt lat="43.900306" lon="11.2506799"><ele>552.0</ele><time>2026-03-22T10:57:08.02Z</time></trkpt><trkpt lat="43.9002383" lon="11.2506753"><ele>552.0</ele><time>2026-03-22T10:57:11.018Z</time></trkpt><trkpt lat="43.9001631" lon="11.2506577"><ele>552.0</ele><time>2026-03-22T10:57:15.017Z</time></trkpt><trkpt lat="43.9000913" lon="11.2506388"><ele>552.0</ele><time>2026-03-22T10:57:19.005Z</time></trkpt><trkpt lat="43.9000198" lon="11.2506386"><ele>552.0</ele><time>2026-03-22T10:57:22.024Z</time></trkpt><trkpt lat="43.8999507" lon="11.2506462"><ele>552.0</ele><time>2026-03-22T10:57:26.019Z</time></trkpt><trkpt lat="43.8998862" lon="11.250635"><ele>552.0</ele><time>2026-03-22T10:57:31.023Z</time></trkpt><trkpt lat="43.8998362" lon="11.2505742"><ele>552.0</ele><time>2026-03-22T10:57:35.014Z</time></trkpt><trkpt lat="43.8997772" lon="11.2505273"><ele>550.2857142857143</ele><time>2026-03-22T10:57:40.023Z</time></trkpt><trkpt lat="43.8997059" lon="11.2504709"><ele>548.5714285714287</ele><time>2026-03-22T10:57:45.021Z</time></trkpt><trkpt lat="43.8996429" lon="11.2504331"><ele>546.8571428571429</ele><time>2026-03-22T10:57:48.022Z</time></trkpt><trkpt lat="43.8995722" lon="11.2503997"><ele>545.1428571428571</ele><time>2026-03-22T10:57:52.014Z</time></trkpt><trkpt lat="43.8994966" lon="11.2503957"><ele>543.4285714285713</ele><time>2026-03-22T10:57:57.012Z</time></trkpt><trkpt lat="43.8994277" lon="11.250394"><ele>541.7142857142857</ele><time>2026-03-22T10:58:01.023Z</time></trkpt><trkpt lat="43.8993541" lon="11.2503799"><ele>540.0</ele><time>2026-03-22T10:58:05.027Z</time></trkpt><trkpt lat="43.8992812" lon="11.2503416"><ele>539.8333333333334</ele><time>2026-03-22T10:58:09.006Z</time></trkpt><trkpt lat="43.8992221" lon="11.2502824"><ele>539.6666666666666</ele><time>2026-03-22T10:58:13.021Z</time></trkpt><trkpt lat="43.8991534" lon="11.2502256"><ele>539.5</ele><time>2026-03-22T10:58:17.009Z</time></trkpt><trkpt lat="43.8990879" lon="11.2501765"><ele>539.3333333333333</ele><time>2026-03-22T10:58:21.013Z</time></trkpt><trkpt lat="43.8990184" lon="11.250123"><ele>539.1666666666666</ele><time>2026-03-22T10:58:25.009Z</time></trkpt><trkpt lat="43.8989573" lon="11.2500598"><ele>539.0</ele><time>2026-03-22T10:58:29.019Z</time></trkpt><trkpt lat="43.8989" lon="11.2499965"><ele>539.0</ele><time>2026-03-22T10:58:32.034Z</time></trkpt><trkpt lat="43.8988563" lon="11.2499257"><ele>539.0</ele><time>2026-03-22T10:58:35.006Z</time></trkpt><trkpt lat="43.8988249" lon="11.2498493"><ele>539.0</ele><time>2026-03-22T10:58:38.014Z</time></trkpt><trkpt lat="43.8988038" lon="11.2497575"><ele>539.0</ele><time>2026-03-22T10:58:41.019Z</time></trkpt><trkpt lat="43.8987448" lon="11.2497059"><ele>539.0</ele><time>2026-03-22T10:58:44.012Z</time></trkpt><trkpt lat="43.8986757" lon="11.2496495"><ele>539.0</ele><time>2026-03-22T10:58:48.019Z</time></trkpt><trkpt lat="43.8986112" lon="11.2495869"><ele>539.0</ele><time>2026-03-22T10:58:52.034Z</time></trkpt><trkpt lat="43.8985447" lon="11.2495383"><ele>539.2857142857143</ele><time>2026-03-22T10:58:56.014Z</time></trkpt><trkpt lat="43.8984865" lon="11.2494995"><ele>539.5714285714286</ele><time>2026-03-22T10:59:00.028Z</time></trkpt><trkpt lat="43.8984279" lon="11.2494558"><ele>539.8571428571429</ele><time>2026-03-22T10:59:04.031Z</time></trkpt><trkpt lat="43.898376" lon="11.249403"><ele>540.1428571428571</ele><time>2026-03-22T10:59:08.026Z</time></trkpt><trkpt lat="43.8983213" lon="11.2493419"><ele>540.4285714285714</ele><time>2026-03-22T10:59:12.013Z</time></trkpt><trkpt lat="43.8982718" lon="11.2492641"><ele>540.7142857142858</ele><time>2026-03-22T10:59:17.016Z</time></trkpt><trkpt lat="43.8982262" lon="11.2491793"><ele>541.0</ele><time>2026-03-22T10:59:21.028Z</time></trkpt><trkpt lat="43.8981814" lon="11.2490968"><ele>541.0</ele><time>2026-03-22T10:59:25.024Z</time></trkpt><trkpt lat="43.8981197" lon="11.2490235"><ele>541.0</ele><time>2026-03-22T10:59:29.025Z</time></trkpt><trkpt lat="43.8980563" lon="11.2489665"><ele>541.0</ele><time>2026-03-22T10:59:33.016Z</time></trkpt><trkpt lat="43.8979932" lon="11.2489133"><ele>541.0</ele><time>2026-03-22T10:59:37.02Z</time></trkpt><trkpt lat="43.8979223" lon="11.2488616"><ele>541.0</ele><time>2026-03-22T10:59:41.028Z</time></trkpt><trkpt lat="43.8978469" lon="11.2488303"><ele>541.0</ele><time>2026-03-22T10:59:45.018Z</time></trkpt><trkpt lat="43.8977817" lon="11.2488347"><ele>541.0</ele><time>2026-03-22T10:59:48.014Z</time></trkpt><trkpt lat="43.8977029" lon="11.2488151"><ele>541.0</ele><time>2026-03-22T10:59:52.012Z</time></trkpt><trkpt lat="43.8976394" lon="11.248771"><ele>541.0</ele><time>2026-03-22T10:59:56.021Z</time></trkpt><trkpt lat="43.8975842" lon="11.2487013"><ele>541.0</ele><time>2026-03-22T11:00:01.013Z</time></trkpt><trkpt lat="43.8976029" lon="11.2486046"><ele>541.0</ele><time>2026-03-22T11:00:42.03Z</time></trkpt><trkpt lat="43.8976773" lon="11.2485794"><ele>541.0</ele><time>2026-03-22T11:00:47.012Z</time></trkpt><trkpt lat="43.8977634" lon="11.2485282"><ele>540.3333333333334</ele><time>2026-03-22T11:00:50.025Z</time></trkpt><trkpt lat="43.8978401" lon="11.248466"><ele>539.6666666666667</ele><time>2026-03-22T11:00:53.023Z</time></trkpt><trkpt lat="43.8979032" lon="11.2484102"><ele>539.0</ele><time>2026-03-22T11:00:56.021Z</time></trkpt><trkpt lat="43.8979555" lon="11.2483364"><ele>538.3333333333334</ele><time>2026-03-22T11:00:59.028Z</time></trkpt><trkpt lat="43.8980236" lon="11.2482781"><ele>537.6666666666666</ele><time>2026-03-22T11:01:02.008Z</time></trkpt><trkpt lat="43.8980985" lon="11.2482357"><ele>537.0</ele><time>2026-03-22T11:01:06.009Z</time></trkpt><trkpt lat="43.8981597" lon="11.2481929"><ele>536.9999999999999</ele><time>2026-03-22T11:01:09.041Z</time></trkpt><trkpt lat="43.8982181" lon="11.2481504"><ele>537.0</ele><time>2026-03-22T11:01:12.005Z</time></trkpt><trkpt lat="43.8982829" lon="11.248122"><ele>537.0</ele><time>2026-03-22T11:01:15.013Z</time></trkpt><trkpt lat="43.8983434" lon="11.2480864"><ele>537.0</ele><time>2026-03-22T11:01:18.023Z</time></trkpt><trkpt lat="43.8984114" lon="11.2480318"><ele>537.0</ele><time>2026-03-22T11:01:22.029Z</time></trkpt><trkpt lat="43.8984703" lon="11.2479853"><ele>536.9999999999999</ele><time>2026-03-22T11:01:25.016Z</time></trkpt><trkpt lat="43.8985279" lon="11.2479381"><ele>537.0</ele><time>2026-03-22T11:01:28.019Z</time></trkpt><trkpt lat="43.8985923" lon="11.2478849"><ele>533.9999999999999</ele><time>2026-03-22T11:01:32.024Z</time></trkpt><trkpt lat="43.8986503" lon="11.2478137"><ele>531.0</ele><time>2026-03-22T11:01:36.012Z</time></trkpt><trkpt lat="43.8987078" lon="11.2477412"><ele>528.0</ele><time>2026-03-22T11:01:40.018Z</time></trkpt><trkpt lat="43.8987744" lon="11.2476812"><ele>525.0</ele><time>2026-03-22T11:01:44.017Z</time></trkpt><trkpt lat="43.8988289" lon="11.2476326"><ele>522.0</ele><time>2026-03-22T11:01:47.023Z</time></trkpt><trkpt lat="43.8989049" lon="11.247598"><ele>518.9999999999999</ele><time>2026-03-22T11:01:51.016Z</time></trkpt><trkpt lat="43.898968" lon="11.2476"><ele>516.0</ele><time>2026-03-22T11:01:55.012Z</time></trkpt><trkpt lat="43.8990332" lon="11.2476174"><ele>516.0</ele><time>2026-03-22T11:01:58.014Z</time></trkpt><trkpt lat="43.8991106" lon="11.2476406"><ele>516.0</ele><time>2026-03-22T11:02:02.029Z</time></trkpt><trkpt lat="43.8991928" lon="11.2476145"><ele>516.0</ele><time>2026-03-22T11:02:06.014Z</time></trkpt><trkpt lat="43.899247" lon="11.2475455"><ele>516.0</ele><time>2026-03-22T11:02:09.019Z</time></trkpt><trkpt lat="43.8992788" lon="11.2474667"><ele>516.0</ele><time>2026-03-22T11:02:12.012Z</time></trkpt><trkpt lat="43.8993043" lon="11.2473708"><ele>516.0</ele><time>2026-03-22T11:02:16.011Z</time></trkpt><trkpt lat="43.8993063" lon="11.247263"><ele>514.4285714285713</ele><time>2026-03-22T11:02:20.018Z</time></trkpt><trkpt lat="43.8993065" lon="11.2471528"><ele>512.8571428571429</ele><time>2026-03-22T11:02:24.008Z</time></trkpt><trkpt lat="43.8993607" lon="11.2470923"><ele>511.2857142857142</ele><time>2026-03-22T11:02:27.008Z</time></trkpt><trkpt lat="43.8994185" lon="11.2470533"><ele>509.71428571428567</ele><time>2026-03-22T11:02:29.014Z</time></trkpt><trkpt lat="43.8994772" lon="11.2469936"><ele>508.1428571428571</ele><time>2026-03-22T11:02:32.02Z</time></trkpt><trkpt lat="43.8995423" lon="11.2469381"><ele>506.57142857142856</ele><time>2026-03-22T11:02:35.019Z</time></trkpt><trkpt lat="43.899596" lon="11.2468792"><ele>505.0</ele><time>2026-03-22T11:02:38.025Z</time></trkpt><trkpt lat="43.8996535" lon="11.2468057"><ele>505.0</ele><time>2026-03-22T11:02:41.021Z</time></trkpt><trkpt lat="43.8996993" lon="11.246731"><ele>504.99999999999994</ele><time>2026-03-22T11:02:45.017Z</time></trkpt><trkpt lat="43.8997418" lon="11.2466424"><ele>505.0</ele><time>2026-03-22T11:02:49.023Z</time></trkpt><trkpt lat="43.8997891" lon="11.2465756"><ele>505.0</ele><time>2026-03-22T11:02:52.008Z</time></trkpt><trkpt lat="43.8998465" lon="11.2465048"><ele>504.99999999999994</ele><time>2026-03-22T11:02:56.019Z</time></trkpt><trkpt lat="43.8999058" lon="11.2464382"><ele>505.0</ele><time>2026-03-22T11:03:00.019Z</time></trkpt><trkpt lat="43.8999615" lon="11.2463612"><ele>505.0</ele><time>2026-03-22T11:03:04.021Z</time></trkpt><trkpt lat="43.899975" lon="11.2462577"><ele>503.6666666666667</ele><time>2026-03-22T11:03:08.022Z</time></trkpt><trkpt lat="43.8999199" lon="11.2461994"><ele>502.33333333333337</ele><time>2026-03-22T11:03:11.006Z</time></trkpt><trkpt lat="43.8998463" lon="11.2461851"><ele>501.0</ele><time>2026-03-22T11:03:14.024Z</time></trkpt><trkpt lat="43.8997691" lon="11.2461364"><ele>499.66666666666663</ele><time>2026-03-22T11:03:18.019Z</time></trkpt><trkpt lat="43.8997046" lon="11.2460967"><ele>498.3333333333333</ele><time>2026-03-22T11:03:21.017Z</time></trkpt><trkpt lat="43.8996251" lon="11.2460588"><ele>497.0</ele><time>2026-03-22T11:03:24.012Z</time></trkpt><trkpt lat="43.8995625" lon="11.2460194"><ele>497.0</ele><time>2026-03-22T11:03:27.021Z</time></trkpt><trkpt lat="43.899508" lon="11.2459746"><ele>497.0</ele><time>2026-03-22T11:03:30.019Z</time></trkpt><trkpt lat="43.8994329" lon="11.2459385"><ele>497.0</ele><time>2026-03-22T11:03:34.023Z</time></trkpt><trkpt lat="43.8993784" lon="11.2458657"><ele>497.0</ele><time>2026-03-22T11:03:38.031Z</time></trkpt><trkpt lat="43.8993316" lon="11.2458003"><ele>497.0</ele><time>2026-03-22T11:03:41.012Z</time></trkpt><trkpt lat="43.8992791" lon="11.2457091"><ele>497.0</ele><time>2026-03-22T11:03:45.005Z</time></trkpt><trkpt lat="43.8992494" lon="11.2456216"><ele>497.0</ele><time>2026-03-22T11:03:48.01Z</time></trkpt><trkpt lat="43.8992171" lon="11.2455296"><ele>495.49999999999994</ele><time>2026-03-22T11:03:51.012Z</time></trkpt><trkpt lat="43.8991746" lon="11.2454414"><ele>494.0</ele><time>2026-03-22T11:03:54.011Z</time></trkpt><trkpt lat="43.8991254" lon="11.2453708"><ele>492.5</ele><time>2026-03-22T11:03:58.02Z</time></trkpt><trkpt lat="43.8990697" lon="11.2452871"><ele>491.0</ele><time>2026-03-22T11:04:02.004Z</time></trkpt><trkpt lat="43.8990193" lon="11.2452006"><ele>489.49999999999994</ele><time>2026-03-22T11:04:06.012Z</time></trkpt><trkpt lat="43.8989788" lon="11.2451285"><ele>488.0</ele><time>2026-03-22T11:04:09.012Z</time></trkpt><trkpt lat="43.8989274" lon="11.24504"><ele>487.99999999999994</ele><time>2026-03-22T11:04:12.023Z</time></trkpt><trkpt lat="43.8988821" lon="11.24493"><ele>488.0</ele><time>2026-03-22T11:04:15.019Z</time></trkpt><trkpt lat="43.8988268" lon="11.2448324"><ele>488.0</ele><time>2026-03-22T11:04:18.013Z</time></trkpt><trkpt lat="43.8987627" lon="11.2447311"><ele>488.0</ele><time>2026-03-22T11:04:21.021Z</time></trkpt><trkpt lat="43.8987157" lon="11.244664"><ele>487.99999999999994</ele><time>2026-03-22T11:04:23.03Z</time></trkpt><trkpt lat="43.8986613" lon="11.2445689"><ele>488.0</ele><time>2026-03-22T11:04:26.025Z</time></trkpt><trkpt lat="43.8986231" lon="11.2444602"><ele>486.42857142857133</ele><time>2026-03-22T11:04:29Z</time></trkpt><trkpt lat="43.8986099" lon="11.2443731"><ele>484.85714285714283</ele><time>2026-03-22T11:04:31.015Z</time></trkpt><trkpt lat="43.8986142" lon="11.2442409"><ele>483.2857142857142</ele><time>2026-03-22T11:04:34.025Z</time></trkpt><trkpt lat="43.8986113" lon="11.2441392"><ele>481.71428571428567</ele><time>2026-03-22T11:04:36.018Z</time></trkpt><trkpt lat="43.8986168" lon="11.2440348"><ele>480.1428571428571</ele><time>2026-03-22T11:04:38.023Z</time></trkpt><trkpt lat="43.8986172" lon="11.2439395"><ele>478.57142857142856</ele><time>2026-03-22T11:04:40.016Z</time></trkpt><trkpt lat="43.8986176" lon="11.2438501"><ele>477.0</ele><time>2026-03-22T11:04:42.006Z</time></trkpt><trkpt lat="43.8986161" lon="11.2437625"><ele>475.5</ele><time>2026-03-22T11:04:44.011Z</time></trkpt><trkpt lat="43.8986165" lon="11.2436712"><ele>474.0</ele><time>2026-03-22T11:04:46.013Z</time></trkpt><trkpt lat="43.8986161" lon="11.2435722"><ele>472.5</ele><time>2026-03-22T11:04:47.972Z</time></trkpt><trkpt lat="43.8985761" lon="11.2434581"><ele>471.0</ele><time>2026-03-22T11:04:51.012Z</time></trkpt><trkpt lat="43.8985377" lon="11.2433797"><ele>469.5</ele><time>2026-03-22T11:04:53.014Z</time></trkpt><trkpt lat="43.8984979" lon="11.2433109"><ele>468.0</ele><time>2026-03-22T11:04:55.011Z</time></trkpt><trkpt lat="43.8984325" lon="11.2432206"><ele>468.5</ele><time>2026-03-22T11:04:58.025Z</time></trkpt><trkpt lat="43.8983826" lon="11.2431628"><ele>469.0</ele><time>2026-03-22T11:05:00.017Z</time></trkpt><trkpt lat="43.8983149" lon="11.2430781"><ele>469.5</ele><time>2026-03-22T11:05:03.016Z</time></trkpt><trkpt lat="43.8982448" lon="11.2429963"><ele>470.0</ele><time>2026-03-22T11:05:06.022Z</time></trkpt><trkpt lat="43.8981789" lon="11.2429104"><ele>470.5</ele><time>2026-03-22T11:05:09.022Z</time></trkpt><trkpt lat="43.898111" lon="11.2428267"><ele>471.0</ele><time>2026-03-22T11:05:12.021Z</time></trkpt><trkpt lat="43.898053" lon="11.2427497"><ele>471.0</ele><time>2026-03-22T11:05:15.006Z</time></trkpt><trkpt lat="43.8979949" lon="11.2426826"><ele>471.0</ele><time>2026-03-22T11:05:18.008Z</time></trkpt><trkpt lat="43.897936" lon="11.242614"><ele>471.0</ele><time>2026-03-22T11:05:21.002Z</time></trkpt><trkpt lat="43.8978777" lon="11.2425531"><ele>471.0</ele><time>2026-03-22T11:05:24.016Z</time></trkpt><trkpt lat="43.8977958" lon="11.242509"><ele>471.0</ele><time>2026-03-22T11:05:27.018Z</time></trkpt><trkpt lat="43.8977203" lon="11.242482"><ele>471.0</ele><time>2026-03-22T11:05:30.016Z</time></trkpt><trkpt lat="43.8976802" lon="11.2423963"><ele>471.00000000000006</ele><time>2026-03-22T11:05:33.022Z</time></trkpt><trkpt lat="43.8976892" lon="11.2423058"><ele>471.0</ele><time>2026-03-22T11:05:35.023Z</time></trkpt><trkpt lat="43.8977034" lon="11.2422189"><ele>471.00000000000006</ele><time>2026-03-22T11:05:36.967Z</time></trkpt><trkpt lat="43.8977039" lon="11.2421149"><ele>471.00000000000006</ele><time>2026-03-22T11:05:39.015Z</time></trkpt><trkpt lat="43.8977017" lon="11.2420222"><ele>471.0</ele><time>2026-03-22T11:05:40.925Z</time></trkpt><trkpt lat="43.8976972" lon="11.2419338"><ele>471.00000000000006</ele><time>2026-03-22T11:05:43.026Z</time></trkpt><trkpt lat="43.8976947" lon="11.2418136"><ele>471.00000000000006</ele><time>2026-03-22T11:05:46.001Z</time></trkpt><trkpt lat="43.8976854" lon="11.2417027"><ele>469.5</ele><time>2026-03-22T11:05:49.016Z</time></trkpt><trkpt lat="43.897681" lon="11.2415822"><ele>468.0</ele><time>2026-03-22T11:05:52.027Z</time></trkpt><trkpt lat="43.8976761" lon="11.2414575"><ele>466.5</ele><time>2026-03-22T11:05:55.018Z</time></trkpt><trkpt lat="43.8976746" lon="11.2413262"><ele>465.0</ele><time>2026-03-22T11:05:58.012Z</time></trkpt><trkpt lat="43.8976721" lon="11.2412359"><ele>463.5</ele><time>2026-03-22T11:06:00.011Z</time></trkpt><trkpt lat="43.8976691" lon="11.2411464"><ele>462.0</ele><time>2026-03-22T11:06:02.025Z</time></trkpt><trkpt lat="43.8976677" lon="11.2410551"><ele>460.8333333333333</ele><time>2026-03-22T11:06:04.021Z</time></trkpt><trkpt lat="43.8976636" lon="11.2409654"><ele>459.66666666666663</ele><time>2026-03-22T11:06:06.024Z</time></trkpt><trkpt lat="43.8976627" lon="11.2408359"><ele>458.5</ele><time>2026-03-22T11:06:09.022Z</time></trkpt><trkpt lat="43.8976685" lon="11.2407215"><ele>457.3333333333333</ele><time>2026-03-22T11:06:12.023Z</time></trkpt><trkpt lat="43.897681" lon="11.2406113"><ele>456.16666666666663</ele><time>2026-03-22T11:06:15.023Z</time></trkpt><trkpt lat="43.8976991" lon="11.240522"><ele>455.0</ele><time>2026-03-22T11:06:17.023Z</time></trkpt><trkpt lat="43.8977353" lon="11.2404088"><ele>454.7142857142857</ele><time>2026-03-22T11:06:19.014Z</time></trkpt><trkpt lat="43.8977703" lon="11.240309"><ele>454.42857142857144</ele><time>2026-03-22T11:06:21.01Z</time></trkpt><trkpt lat="43.8978098" lon="11.2402249"><ele>454.1428571428571</ele><time>2026-03-22T11:06:23.015Z</time></trkpt><trkpt lat="43.8978396" lon="11.240141"><ele>453.85714285714283</ele><time>2026-03-22T11:06:25.013Z</time></trkpt><trkpt lat="43.8978713" lon="11.2400586"><ele>453.57142857142856</ele><time>2026-03-22T11:06:27.02Z</time></trkpt><trkpt lat="43.8978985" lon="11.2399736"><ele>453.2857142857142</ele><time>2026-03-22T11:06:29.02Z</time></trkpt><trkpt lat="43.8979272" lon="11.2398891"><ele>452.99999999999994</ele><time>2026-03-22T11:06:31.012Z</time></trkpt><trkpt lat="43.897952" lon="11.2398083"><ele>453.3333333333333</ele><time>2026-03-22T11:06:33.002Z</time></trkpt><trkpt lat="43.8979992" lon="11.2396912"><ele>453.66666666666663</ele><time>2026-03-22T11:06:36.02Z</time></trkpt><trkpt lat="43.8980372" lon="11.2395905"><ele>454.0</ele><time>2026-03-22T11:06:38.999Z</time></trkpt><trkpt lat="43.8980384" lon="11.2394897"><ele>454.3333333333333</ele><time>2026-03-22T11:06:55.019Z</time></trkpt><trkpt lat="43.8980552" lon="11.2393868"><ele>454.66666666666663</ele><time>2026-03-22T11:06:58.013Z</time></trkpt><trkpt lat="43.8980606" lon="11.2392765"><ele>455.0</ele><time>2026-03-22T11:07:01.016Z</time></trkpt><trkpt lat="43.898073" lon="11.2391525"><ele>454.99999999999994</ele><time>2026-03-22T11:07:04.028Z</time></trkpt><trkpt lat="43.8980889" lon="11.2390252"><ele>455.0</ele><time>2026-03-22T11:07:07.019Z</time></trkpt><trkpt lat="43.8980878" lon="11.238925"><ele>455.0</ele><time>2026-03-22T11:07:09.015Z</time></trkpt><trkpt lat="43.8980674" lon="11.2388277"><ele>455.0</ele><time>2026-03-22T11:07:11.013Z</time></trkpt><trkpt lat="43.8980409" lon="11.238747"><ele>454.99999999999994</ele><time>2026-03-22T11:07:13.021Z</time></trkpt><trkpt lat="43.8980066" lon="11.2386359"><ele>455.0</ele><time>2026-03-22T11:07:16.016Z</time></trkpt><trkpt lat="43.8979807" lon="11.2385541"><ele>453.3333333333333</ele><time>2026-03-22T11:07:18.02Z</time></trkpt><trkpt lat="43.8979341" lon="11.2384453"><ele>451.66666666666663</ele><time>2026-03-22T11:07:21.013Z</time></trkpt><trkpt lat="43.8978947" lon="11.238372"><ele>450.0</ele><time>2026-03-22T11:07:23.022Z</time></trkpt><trkpt lat="43.8978483" lon="11.238301"><ele>448.33333333333337</ele><time>2026-03-22T11:07:25.019Z</time></trkpt><trkpt lat="43.8977873" lon="11.2382551"><ele>446.6666666666667</ele><time>2026-03-22T11:07:27.011Z</time></trkpt><trkpt lat="43.897729" lon="11.2382221"><ele>445.0</ele><time>2026-03-22T11:07:29.013Z</time></trkpt><trkpt lat="43.8976397" lon="11.2381884"><ele>444.50000000000006</ele><time>2026-03-22T11:07:32.032Z</time></trkpt><trkpt lat="43.8975772" lon="11.2381757"><ele>444.0</ele><time>2026-03-22T11:07:34.029Z</time></trkpt><trkpt lat="43.8974916" lon="11.2381518"><ele>443.5</ele><time>2026-03-22T11:07:37.022Z</time></trkpt><trkpt lat="43.8974276" lon="11.2381337"><ele>443.0</ele><time>2026-03-22T11:07:39.018Z</time></trkpt><trkpt lat="43.8973394" lon="11.2381251"><ele>442.50000000000006</ele><time>2026-03-22T11:07:42.016Z</time></trkpt><trkpt lat="43.897247" lon="11.2381424"><ele>442.0</ele><time>2026-03-22T11:07:45.017Z</time></trkpt><trkpt lat="43.8971851" lon="11.2381666"><ele>442.00000000000006</ele><time>2026-03-22T11:07:47.011Z</time></trkpt><trkpt lat="43.8971186" lon="11.2381937"><ele>442.0</ele><time>2026-03-22T11:07:49.014Z</time></trkpt><trkpt lat="43.8970545" lon="11.2382249"><ele>442.0</ele><time>2026-03-22T11:07:50.968Z</time></trkpt><trkpt lat="43.8969753" lon="11.2382723"><ele>442.0</ele><time>2026-03-22T11:07:54.019Z</time></trkpt><trkpt lat="43.896912" lon="11.2382392"><ele>442.0</ele><time>2026-03-22T11:07:57.017Z</time></trkpt><trkpt lat="43.8969024" lon="11.2381526"><ele>442.00000000000006</ele><time>2026-03-22T11:07:59.005Z</time></trkpt><trkpt lat="43.8969287" lon="11.2380648"><ele>442.0</ele><time>2026-03-22T11:08:01.018Z</time></trkpt><trkpt lat="43.8969446" lon="11.2379754"><ele>442.00000000000006</ele><time>2026-03-22T11:08:03.013Z</time></trkpt><trkpt lat="43.8969535" lon="11.2378851"><ele>442.0</ele><time>2026-03-22T11:08:05.019Z</time></trkpt><trkpt lat="43.8969576" lon="11.2377859"><ele>442.0</ele><time>2026-03-22T11:08:07.008Z</time></trkpt><trkpt lat="43.8969529" lon="11.2376764"><ele>442.0</ele><time>2026-03-22T11:08:09.007Z</time></trkpt><trkpt lat="43.89695" lon="11.2375592"><ele>442.00000000000006</ele><time>2026-03-22T11:08:11.012Z</time></trkpt><trkpt lat="43.8969536" lon="11.2374519"><ele>442.0</ele><time>2026-03-22T11:08:13.025Z</time></trkpt><trkpt lat="43.8969538" lon="11.2373269"><ele>438.83333333333337</ele><time>2026-03-22T11:08:16.022Z</time></trkpt><trkpt lat="43.8969584" lon="11.2372008"><ele>435.6666666666667</ele><time>2026-03-22T11:08:19.013Z</time></trkpt><trkpt lat="43.8969682" lon="11.2370771"><ele>432.5</ele><time>2026-03-22T11:08:22.011Z</time></trkpt><trkpt lat="43.8969785" lon="11.2369892"><ele>429.33333333333337</ele><time>2026-03-22T11:08:24.017Z</time></trkpt><trkpt lat="43.8969842" lon="11.2369019"><ele>426.1666666666667</ele><time>2026-03-22T11:08:25.999Z</time></trkpt><trkpt lat="43.8969773" lon="11.2368058"><ele>423.0</ele><time>2026-03-22T11:08:28.015Z</time></trkpt><trkpt lat="43.8969517" lon="11.2367067"><ele>423.0</ele><time>2026-03-22T11:08:30.02Z</time></trkpt><trkpt lat="43.8969116" lon="11.236609"><ele>423.0</ele><time>2026-03-22T11:08:32.021Z</time></trkpt><trkpt lat="43.8968687" lon="11.2365235"><ele>423.0</ele><time>2026-03-22T11:08:34.03Z</time></trkpt><trkpt lat="43.8968257" lon="11.2364435"><ele>423.0</ele><time>2026-03-22T11:08:36.019Z</time></trkpt><trkpt lat="43.8967979" lon="11.2363403"><ele>423.0</ele><time>2026-03-22T11:08:39.007Z</time></trkpt><trkpt lat="43.896824" lon="11.2362525"><ele>423.0</ele><time>2026-03-22T11:08:41.979Z</time></trkpt><trkpt lat="43.8968868" lon="11.2361762"><ele>421.8333333333333</ele><time>2026-03-22T11:08:47.015Z</time></trkpt><trkpt lat="43.8969278" lon="11.2360846"><ele>420.66666666666663</ele><time>2026-03-22T11:08:50.047Z</time></trkpt><trkpt lat="43.8969385" lon="11.2359615"><ele>419.5</ele><time>2026-03-22T11:08:53.009Z</time></trkpt><trkpt lat="43.8969186" lon="11.2358319"><ele>418.3333333333333</ele><time>2026-03-22T11:08:56.021Z</time></trkpt><trkpt lat="43.8968818" lon="11.235748"><ele>417.16666666666663</ele><time>2026-03-22T11:08:58.019Z</time></trkpt><trkpt lat="43.896851" lon="11.2356641"><ele>416.0</ele><time>2026-03-22T11:09:00.019Z</time></trkpt><trkpt lat="43.8968407" lon="11.2355668"><ele>415.16666666666663</ele><time>2026-03-22T11:09:01.923Z</time></trkpt><trkpt lat="43.8968643" lon="11.2354453"><ele>414.3333333333333</ele><time>2026-03-22T11:09:04.943Z</time></trkpt><trkpt lat="43.8968936" lon="11.235329"><ele>413.5</ele><time>2026-03-22T11:09:08.007Z</time></trkpt><trkpt lat="43.8969022" lon="11.2352167"><ele>412.66666666666663</ele><time>2026-03-22T11:09:11.014Z</time></trkpt><trkpt lat="43.896894" lon="11.235109"><ele>411.8333333333333</ele><time>2026-03-22T11:09:14.009Z</time></trkpt><trkpt lat="43.8968783" lon="11.2349854"><ele>411.0</ele><time>2026-03-22T11:09:17.032Z</time></trkpt><trkpt lat="43.8968597" lon="11.2348557"><ele>408.8333333333333</ele><time>2026-03-22T11:09:20.037Z</time></trkpt><trkpt lat="43.8968508" lon="11.2347623"><ele>406.66666666666663</ele><time>2026-03-22T11:09:22.02Z</time></trkpt><trkpt lat="43.8968444" lon="11.2346604"><ele>404.5</ele><time>2026-03-22T11:09:24.947Z</time></trkpt><trkpt lat="43.8968148" lon="11.2345525"><ele>402.3333333333333</ele><time>2026-03-22T11:09:28.014Z</time></trkpt><trkpt lat="43.8967657" lon="11.234464"><ele>400.16666666666663</ele><time>2026-03-22T11:09:31.021Z</time></trkpt><trkpt lat="43.8966995" lon="11.2343926"><ele>398.0</ele><time>2026-03-22T11:09:34.016Z</time></trkpt><trkpt lat="43.8966239" lon="11.2343145"><ele>401.8333333333333</ele><time>2026-03-22T11:09:37.07Z</time></trkpt><trkpt lat="43.8965695" lon="11.2342619"><ele>405.66666666666663</ele><time>2026-03-22T11:09:39.012Z</time></trkpt><trkpt lat="43.896477" lon="11.2342412"><ele>409.5</ele><time>2026-03-22T11:09:42Z</time></trkpt><trkpt lat="43.8964173" lon="11.2341964"><ele>413.33333333333337</ele><time>2026-03-22T11:09:46.01Z</time></trkpt><trkpt lat="43.8964103" lon="11.2341022"><ele>417.1666666666667</ele><time>2026-03-22T11:09:50.022Z</time></trkpt><trkpt lat="43.896464" lon="11.2340234"><ele>421.0</ele><time>2026-03-22T11:09:53.013Z</time></trkpt><trkpt lat="43.8965113" lon="11.2339226"><ele>421.00000000000006</ele><time>2026-03-22T11:09:56.017Z</time></trkpt><trkpt lat="43.8965431" lon="11.2338064"><ele>421.0</ele><time>2026-03-22T11:09:59.013Z</time></trkpt><trkpt lat="43.8965766" lon="11.2336662"><ele>421.0</ele><time>2026-03-22T11:10:02.018Z</time></trkpt><trkpt lat="43.8966064" lon="11.2335482"><ele>421.0</ele><time>2026-03-22T11:10:05.026Z</time></trkpt><trkpt lat="43.8966295" lon="11.233457"><ele>421.00000000000006</ele><time>2026-03-22T11:10:06.983Z</time></trkpt><trkpt lat="43.8966567" lon="11.2333594"><ele>421.0</ele><time>2026-03-22T11:10:09.008Z</time></trkpt><trkpt lat="43.8966835" lon="11.2332625"><ele>421.00000000000006</ele><time>2026-03-22T11:10:12.023Z</time></trkpt><trkpt lat="43.8967053" lon="11.2331726"><ele>421.0</ele><time>2026-03-22T11:10:15.016Z</time></trkpt><trkpt lat="43.8967291" lon="11.2330777"><ele>421.0</ele><time>2026-03-22T11:10:17.805Z</time></trkpt><trkpt lat="43.8967509" lon="11.2329655"><ele>421.0</ele><time>2026-03-22T11:10:21.011Z</time></trkpt><trkpt lat="43.89677" lon="11.2328645"><ele>421.00000000000006</ele><time>2026-03-22T11:10:24.024Z</time></trkpt><trkpt lat="43.8967864" lon="11.2327591"><ele>421.0</ele><time>2026-03-22T11:10:27.005Z</time></trkpt><trkpt lat="43.8968102" lon="11.232653"><ele>416.83333333333337</ele><time>2026-03-22T11:10:30.005Z</time></trkpt><trkpt lat="43.8968244" lon="11.2325321"><ele>412.6666666666667</ele><time>2026-03-22T11:10:33.03Z</time></trkpt><trkpt lat="43.8968213" lon="11.2324418"><ele>408.5</ele><time>2026-03-22T11:10:35.009Z</time></trkpt><trkpt lat="43.8968021" lon="11.2323459"><ele>404.33333333333337</ele><time>2026-03-22T11:10:37.004Z</time></trkpt><trkpt lat="43.8967656" lon="11.2322473"><ele>400.1666666666667</ele><time>2026-03-22T11:10:39.996Z</time></trkpt><trkpt lat="43.8967143" lon="11.2321441"><ele>396.0</ele><time>2026-03-22T11:10:43.012Z</time></trkpt><trkpt lat="43.8966498" lon="11.2320452"><ele>396.0</ele><time>2026-03-22T11:10:46.011Z</time></trkpt><trkpt lat="43.8965981" lon="11.2319781"><ele>396.0</ele><time>2026-03-22T11:10:48.032Z</time></trkpt><trkpt lat="43.8965451" lon="11.2319136"><ele>396.0</ele><time>2026-03-22T11:10:50.019Z</time></trkpt><trkpt lat="43.8964912" lon="11.2318584"><ele>396.0</ele><time>2026-03-22T11:10:52.015Z</time></trkpt><trkpt lat="43.896437" lon="11.2318085"><ele>396.0</ele><time>2026-03-22T11:10:53.944Z</time></trkpt><trkpt lat="43.8963739" lon="11.231722"><ele>396.0</ele><time>2026-03-22T11:10:56.927Z</time></trkpt><trkpt lat="43.8963294" lon="11.23166"><ele>396.0</ele><time>2026-03-22T11:10:59.019Z</time></trkpt><trkpt lat="43.8962752" lon="11.2316105"><ele>396.0</ele><time>2026-03-22T11:11:01.059Z</time></trkpt><trkpt lat="43.8962171" lon="11.231554"><ele>396.0</ele><time>2026-03-22T11:11:03.02Z</time></trkpt><trkpt lat="43.8961347" lon="11.231492"><ele>396.0</ele><time>2026-03-22T11:11:06.009Z</time></trkpt><trkpt lat="43.8960852" lon="11.2314245"><ele>396.0</ele><time>2026-03-22T11:11:08.884Z</time></trkpt><trkpt lat="43.8961102" lon="11.2313133"><ele>396.0</ele><time>2026-03-22T11:11:12.007Z</time></trkpt><trkpt lat="43.8961625" lon="11.2312427"><ele>396.0</ele><time>2026-03-22T11:11:15.012Z</time></trkpt><trkpt lat="43.8962157" lon="11.2311511"><ele>395.2857142857143</ele><time>2026-03-22T11:11:18.002Z</time></trkpt><trkpt lat="43.8962744" lon="11.2310424"><ele>394.57142857142856</ele><time>2026-03-22T11:11:21.014Z</time></trkpt><trkpt lat="43.8963128" lon="11.2309731"><ele>393.85714285714283</ele><time>2026-03-22T11:11:23.029Z</time></trkpt><trkpt lat="43.8963535" lon="11.2308934"><ele>393.1428571428571</ele><time>2026-03-22T11:11:25.032Z</time></trkpt><trkpt lat="43.8963894" lon="11.2308057"><ele>392.42857142857144</ele><time>2026-03-22T11:11:27.003Z</time></trkpt><trkpt lat="43.8964215" lon="11.2307274"><ele>391.71428571428567</ele><time>2026-03-22T11:11:28.965Z</time></trkpt><trkpt lat="43.8964607" lon="11.2306471"><ele>391.0</ele><time>2026-03-22T11:11:31.018Z</time></trkpt><trkpt lat="43.8965004" lon="11.2305684"><ele>391.00000000000006</ele><time>2026-03-22T11:11:33.016Z</time></trkpt><trkpt lat="43.8965358" lon="11.2304947"><ele>391.0</ele><time>2026-03-22T11:11:35.001Z</time></trkpt><trkpt lat="43.896584" lon="11.2303802"><ele>391.0</ele><time>2026-03-22T11:11:38.016Z</time></trkpt><trkpt lat="43.8966325" lon="11.2302738"><ele>391.0</ele><time>2026-03-22T11:11:41.013Z</time></trkpt><trkpt lat="43.8966802" lon="11.230164"><ele>391.00000000000006</ele><time>2026-03-22T11:11:44.018Z</time></trkpt><trkpt lat="43.8967207" lon="11.2300569"><ele>391.0</ele><time>2026-03-22T11:11:46.939Z</time></trkpt><trkpt lat="43.8967385" lon="11.2299694"><ele>391.00000000000006</ele><time>2026-03-22T11:11:48.988Z</time></trkpt><trkpt lat="43.8967503" lon="11.2298633"><ele>391.0</ele><time>2026-03-22T11:11:51.011Z</time></trkpt><trkpt lat="43.8967559" lon="11.229734"><ele>391.0</ele><time>2026-03-22T11:11:54.03Z</time></trkpt><trkpt lat="43.8967469" lon="11.2296169"><ele>391.0</ele><time>2026-03-22T11:11:57.031Z</time></trkpt><trkpt lat="43.8967663" lon="11.2295136"><ele>391.00000000000006</ele><time>2026-03-22T11:12:00.012Z</time></trkpt><trkpt lat="43.8968423" lon="11.229475"><ele>391.0</ele><time>2026-03-22T11:12:02.944Z</time></trkpt><trkpt lat="43.8969119" lon="11.2294677"><ele>387.1666666666667</ele><time>2026-03-22T11:12:05.014Z</time></trkpt><trkpt lat="43.8970048" lon="11.2294316"><ele>383.33333333333337</ele><time>2026-03-22T11:12:08.035Z</time></trkpt><trkpt lat="43.8970716" lon="11.2293899"><ele>379.5</ele><time>2026-03-22T11:12:10.022Z</time></trkpt><trkpt lat="43.8971329" lon="11.2293276"><ele>375.6666666666667</ele><time>2026-03-22T11:12:12.025Z</time></trkpt><trkpt lat="43.8971741" lon="11.2292308"><ele>371.83333333333337</ele><time>2026-03-22T11:12:14.015Z</time></trkpt><trkpt lat="43.8971923" lon="11.2291441"><ele>368.0</ele><time>2026-03-22T11:12:16.017Z</time></trkpt><trkpt lat="43.8972087" lon="11.2290334"><ele>367.5714285714286</ele><time>2026-03-22T11:12:19.014Z</time></trkpt><trkpt lat="43.8972232" lon="11.2289224"><ele>367.1428571428571</ele><time>2026-03-22T11:12:22.015Z</time></trkpt><trkpt lat="43.8972297" lon="11.2288115"><ele>366.7142857142857</ele><time>2026-03-22T11:12:25.026Z</time></trkpt><trkpt lat="43.8972244" lon="11.2287012"><ele>366.28571428571433</ele><time>2026-03-22T11:12:27.983Z</time></trkpt><trkpt lat="43.897212" lon="11.228609"><ele>365.8571428571429</ele><time>2026-03-22T11:12:30.028Z</time></trkpt><trkpt lat="43.8971927" lon="11.2285181"><ele>365.42857142857144</ele><time>2026-03-22T11:12:32.011Z</time></trkpt><trkpt lat="43.8971663" lon="11.2284258"><ele>365.0</ele><time>2026-03-22T11:12:34.03Z</time></trkpt><trkpt lat="43.8971397" lon="11.228342"><ele>365.0</ele><time>2026-03-22T11:12:36.018Z</time></trkpt><trkpt lat="43.8971116" lon="11.2282252"><ele>365.0</ele><time>2026-03-22T11:12:39.026Z</time></trkpt><trkpt lat="43.897087" lon="11.228128"><ele>365.0</ele><time>2026-03-22T11:12:42.019Z</time></trkpt><trkpt lat="43.897071" lon="11.2280247"><ele>365.0</ele><time>2026-03-22T11:12:46.014Z</time></trkpt><trkpt lat="43.8970984" lon="11.2279422"><ele>365.0</ele><time>2026-03-22T11:12:49.014Z</time></trkpt><trkpt lat="43.8971767" lon="11.2278947"><ele>365.0</ele><time>2026-03-22T11:12:52.011Z</time></trkpt><trkpt lat="43.8972564" lon="11.2278605"><ele>365.7142857142857</ele><time>2026-03-22T11:12:55.041Z</time></trkpt><trkpt lat="43.897314" lon="11.227824"><ele>366.42857142857144</ele><time>2026-03-22T11:12:58.007Z</time></trkpt><trkpt lat="43.8973754" lon="11.2277904"><ele>367.1428571428571</ele><time>2026-03-22T11:13:01.043Z</time></trkpt><trkpt lat="43.8974335" lon="11.2277414"><ele>367.8571428571429</ele><time>2026-03-22T11:13:05.027Z</time></trkpt><trkpt lat="43.8975021" lon="11.2276922"><ele>368.57142857142856</ele><time>2026-03-22T11:13:09.009Z</time></trkpt><trkpt lat="43.8975715" lon="11.2276291"><ele>369.2857142857143</ele><time>2026-03-22T11:13:12.009Z</time></trkpt><trkpt lat="43.8976387" lon="11.2275531"><ele>370.0</ele><time>2026-03-22T11:13:15.029Z</time></trkpt><trkpt lat="43.8977159" lon="11.2274793"><ele>366.8333333333333</ele><time>2026-03-22T11:13:19.019Z</time></trkpt><trkpt lat="43.8977878" lon="11.2273985"><ele>363.66666666666663</ele><time>2026-03-22T11:13:22.017Z</time></trkpt><trkpt lat="43.8978417" lon="11.2273352"><ele>360.5</ele><time>2026-03-22T11:13:24.014Z</time></trkpt><trkpt lat="43.8978946" lon="11.2272662"><ele>357.3333333333333</ele><time>2026-03-22T11:13:26.013Z</time></trkpt><trkpt lat="43.897938" lon="11.2271969"><ele>354.1666666666667</ele><time>2026-03-22T11:13:28.034Z</time></trkpt><trkpt lat="43.897972" lon="11.2271221"><ele>351.0</ele><time>2026-03-22T11:13:30.001Z</time></trkpt><trkpt lat="43.8980166" lon="11.2270198"><ele>351.0</ele><time>2026-03-22T11:13:33.011Z</time></trkpt><trkpt lat="43.898079" lon="11.2269516"><ele>351.0</ele><time>2026-03-22T11:13:36.022Z</time></trkpt><trkpt lat="43.8981477" lon="11.2269093"><ele>351.0</ele><time>2026-03-22T11:13:38.924Z</time></trkpt><trkpt lat="43.8982228" lon="11.2268572"><ele>351.0</ele><time>2026-03-22T11:13:42.023Z</time></trkpt><trkpt lat="43.8982987" lon="11.2268355"><ele>351.0</ele><time>2026-03-22T11:13:46.026Z</time></trkpt><trkpt lat="43.8983609" lon="11.2268076"><ele>351.0</ele><time>2026-03-22T11:13:49.023Z</time></trkpt><trkpt lat="43.8984524" lon="11.2267763"><ele>346.8333333333333</ele><time>2026-03-22T11:13:52.019Z</time></trkpt><trkpt lat="43.8985237" lon="11.2267663"><ele>342.6666666666667</ele><time>2026-03-22T11:13:54.034Z</time></trkpt><trkpt lat="43.8985937" lon="11.2267501"><ele>338.5</ele><time>2026-03-22T11:13:56.022Z</time></trkpt><trkpt lat="43.8986574" lon="11.2267368"><ele>334.33333333333337</ele><time>2026-03-22T11:13:58.009Z</time></trkpt><trkpt lat="43.8987393" lon="11.2266856"><ele>330.1666666666667</ele><time>2026-03-22T11:14:01.003Z</time></trkpt><trkpt lat="43.8988092" lon="11.2265975"><ele>326.0</ele><time>2026-03-22T11:14:04.019Z</time></trkpt><trkpt lat="43.8988708" lon="11.2265071"><ele>326.83333333333337</ele><time>2026-03-22T11:14:07.013Z</time></trkpt><trkpt lat="43.8989061" lon="11.2263811"><ele>327.6666666666667</ele><time>2026-03-22T11:14:10.002Z</time></trkpt><trkpt lat="43.8989378" lon="11.2262912"><ele>328.5</ele><time>2026-03-22T11:14:12.015Z</time></trkpt><trkpt lat="43.8989789" lon="11.2262128"><ele>329.3333333333333</ele><time>2026-03-22T11:14:14.028Z</time></trkpt><trkpt lat="43.8990229" lon="11.2261448"><ele>330.16666666666663</ele><time>2026-03-22T11:14:16.008Z</time></trkpt><trkpt lat="43.8990987" lon="11.2260794"><ele>331.0</ele><time>2026-03-22T11:14:18.96Z</time></trkpt><trkpt lat="43.8991897" lon="11.226048"><ele>326.8333333333333</ele><time>2026-03-22T11:14:21.919Z</time></trkpt><trkpt lat="43.8992609" lon="11.2260228"><ele>322.66666666666663</ele><time>2026-03-22T11:14:24.009Z</time></trkpt><trkpt lat="43.8993548" lon="11.2260081"><ele>318.5</ele><time>2026-03-22T11:14:27.013Z</time></trkpt><trkpt lat="43.8994434" lon="11.2260067"><ele>314.3333333333333</ele><time>2026-03-22T11:14:30.005Z</time></trkpt><trkpt lat="43.8995232" lon="11.2259483"><ele>310.1666666666667</ele><time>2026-03-22T11:14:33.014Z</time></trkpt><trkpt lat="43.8995478" lon="11.2258625"><ele>306.0</ele><time>2026-03-22T11:14:35.006Z</time></trkpt><trkpt lat="43.8995854" lon="11.2257577"><ele>306.0</ele><time>2026-03-22T11:14:38.027Z</time></trkpt><trkpt lat="43.8996612" lon="11.2256981"><ele>306.0</ele><time>2026-03-22T11:14:41.013Z</time></trkpt><trkpt lat="43.8997167" lon="11.225639"><ele>306.0</ele><time>2026-03-22T11:14:43.963Z</time></trkpt><trkpt lat="43.8997017" lon="11.2255259"><ele>306.0</ele><time>2026-03-22T11:14:47.027Z</time></trkpt><trkpt lat="43.8996649" lon="11.2254515"><ele>306.0</ele><time>2026-03-22T11:14:49.023Z</time></trkpt><trkpt lat="43.8996172" lon="11.2253926"><ele>306.0</ele><time>2026-03-22T11:14:51.01Z</time></trkpt><trkpt lat="43.8995612" lon="11.2253515"><ele>306.0</ele><time>2026-03-22T11:14:53.022Z</time></trkpt><trkpt lat="43.8994905" lon="11.2252815"><ele>305.5</ele><time>2026-03-22T11:14:56.035Z</time></trkpt><trkpt lat="43.8994681" lon="11.225185"><ele>305.0</ele><time>2026-03-22T11:14:59.019Z</time></trkpt><trkpt lat="43.8995004" lon="11.2250959"><ele>304.5</ele><time>2026-03-22T11:15:02.018Z</time></trkpt><trkpt lat="43.8995308" lon="11.2249956"><ele>304.0</ele><time>2026-03-22T11:15:06.022Z</time></trkpt><trkpt lat="43.8995609" lon="11.224892"><ele>303.5</ele><time>2026-03-22T11:15:10.027Z</time></trkpt><trkpt lat="43.8995883" lon="11.224796"><ele>303.0</ele><time>2026-03-22T11:15:13.004Z</time></trkpt><trkpt lat="43.899618" lon="11.2246829"><ele>301.3333333333333</ele><time>2026-03-22T11:15:16.015Z</time></trkpt><trkpt lat="43.8996377" lon="11.224595"><ele>299.6666666666667</ele><time>2026-03-22T11:15:18.013Z</time></trkpt><trkpt lat="43.8996436" lon="11.224471"><ele>298.0</ele><time>2026-03-22T11:15:21.016Z</time></trkpt><trkpt lat="43.8996266" lon="11.2243452"><ele>296.33333333333337</ele><time>2026-03-22T11:15:24.024Z</time></trkpt><trkpt lat="43.899622" lon="11.2242431"><ele>294.6666666666667</ele><time>2026-03-22T11:15:26.028Z</time></trkpt><trkpt lat="43.8995991" lon="11.2241161"><ele>293.0</ele><time>2026-03-22T11:15:29.035Z</time></trkpt><trkpt lat="43.8995735" lon="11.2240012"><ele>293.1428571428571</ele><time>2026-03-22T11:15:32.018Z</time></trkpt><trkpt lat="43.899556" lon="11.2238913"><ele>293.2857142857143</ele><time>2026-03-22T11:15:34.941Z</time></trkpt><trkpt lat="43.8995648" lon="11.223766"><ele>293.42857142857144</ele><time>2026-03-22T11:15:39.048Z</time></trkpt><trkpt lat="43.899592" lon="11.2236842"><ele>293.57142857142856</ele><time>2026-03-22T11:15:41.012Z</time></trkpt><trkpt lat="43.8996317" lon="11.2236084"><ele>293.7142857142857</ele><time>2026-03-22T11:15:42.986Z</time></trkpt><trkpt lat="43.8996807" lon="11.2235239"><ele>293.85714285714283</ele><time>2026-03-22T11:15:45.034Z</time></trkpt><trkpt lat="43.8997169" lon="11.2234508"><ele>294.0</ele><time>2026-03-22T11:15:47.024Z</time></trkpt><trkpt lat="43.8997592" lon="11.2233632"><ele>294.0</ele><time>2026-03-22T11:15:50.019Z</time></trkpt><trkpt lat="43.8998287" lon="11.223297"><ele>294.0</ele><time>2026-03-22T11:15:54.014Z</time></trkpt><trkpt lat="43.89991" lon="11.2232814"><ele>294.0</ele><time>2026-03-22T11:15:57.018Z</time></trkpt><trkpt lat="43.8999875" lon="11.2232558"><ele>294.0</ele><time>2026-03-22T11:16:00.038Z</time></trkpt><trkpt lat="43.900048" lon="11.2232267"><ele>294.0</ele><time>2026-03-22T11:16:04.01Z</time></trkpt><trkpt lat="43.9001227" lon="11.223199"><ele>294.0</ele><time>2026-03-22T11:16:07.007Z</time></trkpt><trkpt lat="43.9002031" lon="11.2231455"><ele>291.2857142857143</ele><time>2026-03-22T11:16:10.011Z</time></trkpt><trkpt lat="43.9002524" lon="11.2230751"><ele>288.57142857142856</ele><time>2026-03-22T11:16:12.043Z</time></trkpt><trkpt lat="43.9002902" lon="11.223003"><ele>285.8571428571429</ele><time>2026-03-22T11:16:14.026Z</time></trkpt><trkpt lat="43.9003323" lon="11.222933"><ele>283.1428571428571</ele><time>2026-03-22T11:16:16.007Z</time></trkpt><trkpt lat="43.9003865" lon="11.2228311"><ele>280.42857142857144</ele><time>2026-03-22T11:16:19.024Z</time></trkpt><trkpt lat="43.9004242" lon="11.2227366"><ele>277.7142857142857</ele><time>2026-03-22T11:16:22.004Z</time></trkpt><trkpt lat="43.9004569" lon="11.2226421"><ele>275.0</ele><time>2026-03-22T11:16:25.014Z</time></trkpt><trkpt lat="43.9004812" lon="11.2225475"><ele>275.0</ele><time>2026-03-22T11:16:37.022Z</time></trkpt><trkpt lat="43.9005731" lon="11.2223428"><ele>275.0</ele><time>2026-03-22T11:16:39.014Z</time></trkpt><trkpt lat="43.9006369" lon="11.2223225"><ele>275.0</ele><time>2026-03-22T11:16:41.009Z</time></trkpt><trkpt lat="43.9007018" lon="11.2223494"><ele>275.0</ele><time>2026-03-22T11:16:43.021Z</time></trkpt><trkpt lat="43.9007704" lon="11.2223652"><ele>275.0</ele><time>2026-03-22T11:16:45.024Z</time></trkpt><trkpt lat="43.9008395" lon="11.2223747"><ele>275.0</ele><time>2026-03-22T11:16:47.016Z</time></trkpt><trkpt lat="43.9008992" lon="11.2223447"><ele>275.8571428571429</ele><time>2026-03-22T11:16:49.025Z</time></trkpt><trkpt lat="43.9009497" lon="11.2222892"><ele>276.7142857142857</ele><time>2026-03-22T11:16:51.017Z</time></trkpt><trkpt lat="43.9009929" lon="11.222218"><ele>277.57142857142856</ele><time>2026-03-22T11:16:53.024Z</time></trkpt><trkpt lat="43.9010263" lon="11.2221436"><ele>278.42857142857144</ele><time>2026-03-22T11:16:55.036Z</time></trkpt><trkpt lat="43.9010742" lon="11.2220645"><ele>279.2857142857143</ele><time>2026-03-22T11:16:57.022Z</time></trkpt><trkpt lat="43.9011309" lon="11.2220042"><ele>280.14285714285717</ele><time>2026-03-22T11:16:59.021Z</time></trkpt><trkpt lat="43.9011935" lon="11.221919"><ele>281.0</ele><time>2026-03-22T11:17:01.02Z</time></trkpt><trkpt lat="43.9012607" lon="11.2218539"><ele>281.0</ele><time>2026-03-22T11:17:03.01Z</time></trkpt><trkpt lat="43.9013249" lon="11.2217896"><ele>281.0</ele><time>2026-03-22T11:17:05.019Z</time></trkpt><trkpt lat="43.9013972" lon="11.2217589"><ele>281.0</ele><time>2026-03-22T11:17:07.014Z</time></trkpt><trkpt lat="43.9014726" lon="11.221765"><ele>281.0</ele><time>2026-03-22T11:17:09.026Z</time></trkpt><trkpt lat="43.901547" lon="11.2217707"><ele>281.0</ele><time>2026-03-22T11:17:11.002Z</time></trkpt><trkpt lat="43.9016336" lon="11.2217788"><ele>281.0</ele><time>2026-03-22T11:17:13.013Z</time></trkpt><trkpt lat="43.9017218" lon="11.2217987"><ele>280.2</ele><time>2026-03-22T11:17:15.016Z</time></trkpt><trkpt lat="43.9018136" lon="11.2218268"><ele>279.40000000000003</ele><time>2026-03-22T11:17:17.024Z</time></trkpt><trkpt lat="43.9019058" lon="11.2218666"><ele>278.6</ele><time>2026-03-22T11:17:19.012Z</time></trkpt><trkpt lat="43.9019848" lon="11.2219039"><ele>277.8</ele><time>2026-03-22T11:17:21.027Z</time></trkpt><trkpt lat="43.9020613" lon="11.2219552"><ele>277.0</ele><time>2026-03-22T11:17:23.013Z</time></trkpt><trkpt lat="43.9021436" lon="11.2220163"><ele>277.0</ele><time>2026-03-22T11:17:25.02Z</time></trkpt><trkpt lat="43.9022201" lon="11.2220582"><ele>277.0</ele><time>2026-03-22T11:17:27.015Z</time></trkpt><trkpt lat="43.9023014" lon="11.2220702"><ele>277.0</ele><time>2026-03-22T11:17:29.025Z</time></trkpt><trkpt lat="43.9023826" lon="11.222064"><ele>277.0</ele><time>2026-03-22T11:17:31.004Z</time></trkpt><trkpt lat="43.9024631" lon="11.2220495"><ele>277.0</ele><time>2026-03-22T11:17:33.023Z</time></trkpt><trkpt lat="43.9025344" lon="11.2220379"><ele>277.0</ele><time>2026-03-22T11:17:35.028Z</time></trkpt><trkpt lat="43.9026174" lon="11.2220235"><ele>274.0</ele><time>2026-03-22T11:17:37.004Z</time></trkpt><trkpt lat="43.902709" lon="11.2220092"><ele>271.0</ele><time>2026-03-22T11:17:39.018Z</time></trkpt><trkpt lat="43.9027927" lon="11.2219867"><ele>268.0</ele><time>2026-03-22T11:17:41.029Z</time></trkpt><trkpt lat="43.9028721" lon="11.2219797"><ele>265.0</ele><time>2026-03-22T11:17:43.024Z</time></trkpt><trkpt lat="43.902954" lon="11.2219955"><ele>262.0</ele><time>2026-03-22T11:17:44.997Z</time></trkpt><trkpt lat="43.9030559" lon="11.2220536"><ele>262.0</ele><time>2026-03-22T11:17:47.027Z</time></trkpt><trkpt lat="43.9031604" lon="11.2221018"><ele>262.0</ele><time>2026-03-22T11:17:49.05Z</time></trkpt><trkpt lat="43.9032592" lon="11.2221317"><ele>262.0</ele><time>2026-03-22T11:17:51.033Z</time></trkpt><trkpt lat="43.9033444" lon="11.2221519"><ele>262.0</ele><time>2026-03-22T11:17:53.029Z</time></trkpt><trkpt lat="43.9034289" lon="11.2221911"><ele>262.0</ele><time>2026-03-22T11:17:55.004Z</time></trkpt><trkpt lat="43.9035309" lon="11.2222157"><ele>261.0</ele><time>2026-03-22T11:17:57.006Z</time></trkpt><trkpt lat="43.9036243" lon="11.2222437"><ele>260.0</ele><time>2026-03-22T11:17:59.022Z</time></trkpt><trkpt lat="43.9037114" lon="11.2222922"><ele>259.0</ele><time>2026-03-22T11:18:01.035Z</time></trkpt><trkpt lat="43.9038163" lon="11.2223194"><ele>258.0</ele><time>2026-03-22T11:18:03.019Z</time></trkpt><trkpt lat="43.9039147" lon="11.2223735"><ele>257.0</ele><time>2026-03-22T11:18:05.015Z</time></trkpt><trkpt lat="43.9040066" lon="11.222449"><ele>257.0</ele><time>2026-03-22T11:18:07.018Z</time></trkpt><trkpt lat="43.9040822" lon="11.2224887"><ele>257.0</ele><time>2026-03-22T11:18:09.017Z</time></trkpt><trkpt lat="43.9041506" lon="11.2225143"><ele>257.0</ele><time>2026-03-22T11:18:11.007Z</time></trkpt><trkpt lat="43.9042234" lon="11.2224649"><ele>257.0</ele><time>2026-03-22T11:18:13.013Z</time></trkpt><trkpt lat="43.9042837" lon="11.2223731"><ele>257.0</ele><time>2026-03-22T11:18:14.995Z</time></trkpt><trkpt lat="43.9043405" lon="11.2222764"><ele>257.0</ele><time>2026-03-22T11:18:17.018Z</time></trkpt><trkpt lat="43.9044242" lon="11.2221906"><ele>256.4</ele><time>2026-03-22T11:18:19.013Z</time></trkpt><trkpt lat="43.90452" lon="11.2221253"><ele>255.79999999999998</ele><time>2026-03-22T11:18:21.024Z</time></trkpt><trkpt lat="43.9046156" lon="11.2220629"><ele>255.2</ele><time>2026-03-22T11:18:23.01Z</time></trkpt><trkpt lat="43.9047057" lon="11.2220097"><ele>254.6</ele><time>2026-03-22T11:18:25.015Z</time></trkpt><trkpt lat="43.9047786" lon="11.2219848"><ele>254.0</ele><time>2026-03-22T11:18:27.026Z</time></trkpt><trkpt lat="43.9048532" lon="11.2219633"><ele>254.00000000000003</ele><time>2026-03-22T11:18:29.021Z</time></trkpt><trkpt lat="43.9049428" lon="11.2219511"><ele>254.0</ele><time>2026-03-22T11:18:31.02Z</time></trkpt><trkpt lat="43.9050334" lon="11.2219328"><ele>254.0</ele><time>2026-03-22T11:18:33.026Z</time></trkpt><trkpt lat="43.9051178" lon="11.2219267"><ele>254.0</ele><time>2026-03-22T11:18:35.018Z</time></trkpt><trkpt lat="43.9052122" lon="11.2218952"><ele>254.00000000000003</ele><time>2026-03-22T11:18:38.022Z</time></trkpt><trkpt lat="43.9052771" lon="11.2218565"><ele>254.0</ele><time>2026-03-22T11:18:40.013Z</time></trkpt><trkpt lat="43.9053437" lon="11.2218312"><ele>252.0</ele><time>2026-03-22T11:18:42.03Z</time></trkpt><trkpt lat="43.9054275" lon="11.2218061"><ele>249.99999999999997</ele><time>2026-03-22T11:18:44.015Z</time></trkpt><trkpt lat="43.9055246" lon="11.2217692"><ele>247.99999999999997</ele><time>2026-03-22T11:18:46.004Z</time></trkpt><trkpt lat="43.9056185" lon="11.2217267"><ele>246.0</ele><time>2026-03-22T11:18:48.014Z</time></trkpt><trkpt lat="43.9057166" lon="11.2216989"><ele>244.0</ele><time>2026-03-22T11:18:50.026Z</time></trkpt><trkpt lat="43.9057927" lon="11.221662"><ele>243.99999999999997</ele><time>2026-03-22T11:18:52.012Z</time></trkpt><trkpt lat="43.905866" lon="11.2216647"><ele>244.0</ele><time>2026-03-22T11:18:54.005Z</time></trkpt><trkpt lat="43.9059366" lon="11.2216894"><ele>244.0</ele><time>2026-03-22T11:18:56.001Z</time></trkpt><trkpt lat="43.906016" lon="11.2217313"><ele>244.0</ele><time>2026-03-22T11:18:59.013Z</time></trkpt><trkpt lat="43.9061113" lon="11.2217419"><ele>243.99999999999997</ele><time>2026-03-22T11:19:02.008Z</time></trkpt><trkpt lat="43.9061653" lon="11.2216614"><ele>244.0</ele><time>2026-03-22T11:19:04.006Z</time></trkpt><trkpt lat="43.9062251" lon="11.221533"><ele>239.2</ele><time>2026-03-22T11:19:06.011Z</time></trkpt><trkpt lat="43.9062351" lon="11.2213975"><ele>234.39999999999998</ele><time>2026-03-22T11:19:08.008Z</time></trkpt><trkpt lat="43.9062149" lon="11.2212962"><ele>229.6</ele><time>2026-03-22T11:19:10.016Z</time></trkpt><trkpt lat="43.9061456" lon="11.2212178"><ele>224.8</ele><time>2026-03-22T11:19:12.016Z</time></trkpt><trkpt lat="43.906049" lon="11.2211572"><ele>220.0</ele><time>2026-03-22T11:19:14.02Z</time></trkpt><trkpt lat="43.9059731" lon="11.2210826"><ele>221.83333333333331</ele><time>2026-03-22T11:19:16.01Z</time></trkpt><trkpt lat="43.905893" lon="11.2210023"><ele>223.66666666666666</ele><time>2026-03-22T11:19:18.02Z</time></trkpt><trkpt lat="43.9058273" lon="11.2209377"><ele>225.5</ele><time>2026-03-22T11:19:20.007Z</time></trkpt><trkpt lat="43.9057774" lon="11.2208711"><ele>227.33333333333331</ele><time>2026-03-22T11:19:22.013Z</time></trkpt><trkpt lat="43.9057279" lon="11.2208099"><ele>229.16666666666666</ele><time>2026-03-22T11:19:24.01Z</time></trkpt><trkpt lat="43.9056615" lon="11.2207301"><ele>231.0</ele><time>2026-03-22T11:19:27.019Z</time></trkpt><trkpt lat="43.9055857" lon="11.2206572"><ele>229.0</ele><time>2026-03-22T11:19:30.017Z</time></trkpt><trkpt lat="43.9055133" lon="11.2205643"><ele>227.0</ele><time>2026-03-22T11:19:33.025Z</time></trkpt><trkpt lat="43.9054581" lon="11.2204914"><ele>225.0</ele><time>2026-03-22T11:19:35.022Z</time></trkpt><trkpt lat="43.9053942" lon="11.2204162"><ele>223.0</ele><time>2026-03-22T11:19:37.086Z</time></trkpt><trkpt lat="43.9053271" lon="11.2203366"><ele>221.0</ele><time>2026-03-22T11:19:39.057Z</time></trkpt><trkpt lat="43.9052672" lon="11.2202474"><ele>219.0</ele><time>2026-03-22T11:19:41.051Z</time></trkpt><trkpt lat="43.905205" lon="11.2201908"><ele>219.0</ele><time>2026-03-22T11:19:43.063Z</time></trkpt><trkpt lat="43.9051628" lon="11.220091"><ele>219.0</ele><time>2026-03-22T11:19:46.044Z</time></trkpt><trkpt lat="43.9052465" lon="11.2200687"><ele>219.0</ele><time>2026-03-22T11:19:50.056Z</time></trkpt><trkpt lat="43.9053104" lon="11.220097"><ele>219.0</ele><time>2026-03-22T11:19:52.067Z</time></trkpt><trkpt lat="43.9054048" lon="11.2201065"><ele>219.0</ele><time>2026-03-22T11:19:55.045Z</time></trkpt><trkpt lat="43.9054684" lon="11.2201165"><ele>219.0</ele><time>2026-03-22T11:19:57.055Z</time></trkpt><trkpt lat="43.9055326" lon="11.2201007"><ele>219.0</ele><time>2026-03-22T11:19:59.058Z</time></trkpt><trkpt lat="43.905611" lon="11.2200987"><ele>219.0</ele><time>2026-03-22T11:20:02.06Z</time></trkpt><trkpt lat="43.9057036" lon="11.2200847"><ele>219.0</ele><time>2026-03-22T11:20:05.056Z</time></trkpt><trkpt lat="43.9057702" lon="11.220072"><ele>219.0</ele><time>2026-03-22T11:20:07.06Z</time></trkpt><trkpt lat="43.9058537" lon="11.2200282"><ele>219.0</ele><time>2026-03-22T11:20:10.061Z</time></trkpt><trkpt lat="43.9059198" lon="11.2199806"><ele>219.0</ele><time>2026-03-22T11:20:12.072Z</time></trkpt><trkpt lat="43.905988" lon="11.219944"><ele>217.16666666666666</ele><time>2026-03-22T11:20:14.056Z</time></trkpt><trkpt lat="43.9060555" lon="11.2198745"><ele>215.33333333333331</ele><time>2026-03-22T11:20:16.068Z</time></trkpt><trkpt lat="43.9061204" lon="11.2198298"><ele>213.5</ele><time>2026-03-22T11:20:18.065Z</time></trkpt><trkpt lat="43.9061919" lon="11.2197671"><ele>211.66666666666666</ele><time>2026-03-22T11:20:20.063Z</time></trkpt><trkpt lat="43.9062607" lon="11.21971"><ele>209.83333333333331</ele><time>2026-03-22T11:20:22.046Z</time></trkpt><trkpt lat="43.9063336" lon="11.2196636"><ele>208.0</ele><time>2026-03-22T11:20:24.068Z</time></trkpt><trkpt lat="43.9064054" lon="11.219624"><ele>206.8</ele><time>2026-03-22T11:20:26.063Z</time></trkpt><trkpt lat="43.9064832" lon="11.2196051"><ele>205.60000000000002</ele><time>2026-03-22T11:20:28.064Z</time></trkpt><trkpt lat="43.9065729" lon="11.2195921"><ele>204.39999999999998</ele><time>2026-03-22T11:20:30.066Z</time></trkpt><trkpt lat="43.9066731" lon="11.2195862"><ele>203.2</ele><time>2026-03-22T11:20:32.069Z</time></trkpt><trkpt lat="43.9067416" lon="11.2195874"><ele>202.0</ele><time>2026-03-22T11:20:33.064Z</time></trkpt><trkpt lat="43.9068591" lon="11.2195868"><ele>198.6</ele><time>2026-03-22T11:20:35.066Z</time></trkpt><trkpt lat="43.9069713" lon="11.2196009"><ele>195.2</ele><time>2026-03-22T11:20:37.062Z</time></trkpt><trkpt lat="43.9070791" lon="11.2195927"><ele>191.8</ele><time>2026-03-22T11:20:39.057Z</time></trkpt><trkpt lat="43.9071971" lon="11.2196124"><ele>188.4</ele><time>2026-03-22T11:20:41.067Z</time></trkpt><trkpt lat="43.9073022" lon="11.2196137"><ele>185.0</ele><time>2026-03-22T11:20:43.06Z</time></trkpt><trkpt lat="43.9074179" lon="11.2195874"><ele>185.0</ele><time>2026-03-22T11:20:45.052Z</time></trkpt><trkpt lat="43.9075062" lon="11.2194864"><ele>185.0</ele><time>2026-03-22T11:20:47.069Z</time></trkpt><trkpt lat="43.9075486" lon="11.2194038"><ele>185.0</ele><time>2026-03-22T11:20:48.073Z</time></trkpt><trkpt lat="43.9076355" lon="11.2192918"><ele>185.0</ele><time>2026-03-22T11:20:50.051Z</time></trkpt><trkpt lat="43.9076996" lon="11.2192331"><ele>185.0</ele><time>2026-03-22T11:20:51.07Z</time></trkpt><trkpt lat="43.9077741" lon="11.2191735"><ele>183.66666666666666</ele><time>2026-03-22T11:20:52.064Z</time></trkpt><trkpt lat="43.9078438" lon="11.2191218"><ele>182.33333333333331</ele><time>2026-03-22T11:20:53.051Z</time></trkpt><trkpt lat="43.9079166" lon="11.2190765"><ele>181.0</ele><time>2026-03-22T11:20:54.058Z</time></trkpt><trkpt lat="43.9079843" lon="11.2190176"><ele>179.66666666666666</ele><time>2026-03-22T11:20:55.052Z</time></trkpt><trkpt lat="43.9080533" lon="11.2189632"><ele>178.33333333333334</ele><time>2026-03-22T11:20:56.054Z</time></trkpt><trkpt lat="43.9081265" lon="11.2189005"><ele>177.0</ele><time>2026-03-22T11:20:57.062Z</time></trkpt><trkpt lat="43.9081975" lon="11.2188451"><ele>177.0</ele><time>2026-03-22T11:20:58.061Z</time></trkpt><trkpt lat="43.908269" lon="11.2187866"><ele>177.0</ele><time>2026-03-22T11:20:59.06Z</time></trkpt><trkpt lat="43.9083447" lon="11.2187375"><ele>177.0</ele><time>2026-03-22T11:21:00.051Z</time></trkpt><trkpt lat="43.9084779" lon="11.2187139"><ele>177.0</ele><time>2026-03-22T11:21:01.058Z</time></trkpt><trkpt lat="43.9085644" lon="11.2186251"><ele>177.0</ele><time>2026-03-22T11:21:03.067Z</time></trkpt><trkpt lat="43.908649" lon="11.2185369"><ele>177.0</ele><time>2026-03-22T11:21:05.064Z</time></trkpt><trkpt lat="43.9087407" lon="11.2184569"><ele>177.0</ele><time>2026-03-22T11:21:07.057Z</time></trkpt><trkpt lat="43.9088442" lon="11.2183766"><ele>177.0</ele><time>2026-03-22T11:21:09.061Z</time></trkpt><trkpt lat="43.9088965" lon="11.2183275"><ele>177.0</ele><time>2026-03-22T11:21:10.049Z</time></trkpt><trkpt lat="43.908996" lon="11.2182188"><ele>177.0</ele><time>2026-03-22T11:21:12.065Z</time></trkpt><trkpt lat="43.9090988" lon="11.2181024"><ele>176.85714285714286</ele><time>2026-03-22T11:21:14.066Z</time></trkpt><trkpt lat="43.9091587" lon="11.218056"><ele>176.7142857142857</ele><time>2026-03-22T11:21:15.066Z</time></trkpt><trkpt lat="43.9092162" lon="11.2180074"><ele>176.57142857142856</ele><time>2026-03-22T11:21:16.064Z</time></trkpt><trkpt lat="43.9092704" lon="11.2179541"><ele>176.42857142857144</ele><time>2026-03-22T11:21:17.063Z</time></trkpt><trkpt lat="43.9093277" lon="11.2178971"><ele>176.28571428571428</ele><time>2026-03-22T11:21:18.06Z</time></trkpt><trkpt lat="43.9093794" lon="11.2178429"><ele>176.14285714285714</ele><time>2026-03-22T11:21:19.065Z</time></trkpt><trkpt lat="43.9094621" lon="11.2177544"><ele>176.0</ele><time>2026-03-22T11:21:21.053Z</time></trkpt><trkpt lat="43.9095214" lon="11.2176878"><ele>177.0</ele><time>2026-03-22T11:21:23.045Z</time></trkpt><trkpt lat="43.9096034" lon="11.217656"><ele>178.0</ele><time>2026-03-22T11:21:26.046Z</time></trkpt><trkpt lat="43.9096801" lon="11.2177013"><ele>179.0</ele><time>2026-03-22T11:21:28.041Z</time></trkpt><trkpt lat="43.9097413" lon="11.2177434"><ele>180.0</ele><time>2026-03-22T11:21:29.039Z</time></trkpt><trkpt lat="43.909798" lon="11.2177878"><ele>181.0</ele><time>2026-03-22T11:21:30.064Z</time></trkpt><trkpt lat="43.9098519" lon="11.2178375"><ele>182.0</ele><time>2026-03-22T11:21:31.039Z</time></trkpt><trkpt lat="43.9099112" lon="11.2178878"><ele>183.0</ele><time>2026-03-22T11:21:32.044Z</time></trkpt><trkpt lat="43.9099745" lon="11.2179407"><ele>183.0</ele><time>2026-03-22T11:21:33.035Z</time></trkpt><trkpt lat="43.910032" lon="11.2179909"><ele>183.0</ele><time>2026-03-22T11:21:34.077Z</time></trkpt><trkpt lat="43.9100925" lon="11.2180452"><ele>183.0</ele><time>2026-03-22T11:21:35.047Z</time></trkpt><trkpt lat="43.9101595" lon="11.2180999"><ele>183.0</ele><time>2026-03-22T11:21:36.044Z</time></trkpt><trkpt lat="43.9102235" lon="11.2181626"><ele>183.0</ele><time>2026-03-22T11:21:37.048Z</time></trkpt><trkpt lat="43.9102906" lon="11.2182245"><ele>183.0</ele><time>2026-03-22T11:21:38.043Z</time></trkpt><trkpt lat="43.9103624" lon="11.2182887"><ele>183.60000000000002</ele><time>2026-03-22T11:21:39.047Z</time></trkpt><trkpt lat="43.910436" lon="11.2183547"><ele>184.20000000000002</ele><time>2026-03-22T11:21:40.069Z</time></trkpt><trkpt lat="43.9105145" lon="11.2184254"><ele>184.8</ele><time>2026-03-22T11:21:41.052Z</time></trkpt><trkpt lat="43.9105929" lon="11.2185007"><ele>185.4</ele><time>2026-03-22T11:21:42.055Z</time></trkpt><trkpt lat="43.9106756" lon="11.2185734"><ele>186.0</ele><time>2026-03-22T11:21:43.056Z</time></trkpt><trkpt lat="43.9107594" lon="11.2186472"><ele>186.0</ele><time>2026-03-22T11:21:44.052Z</time></trkpt><trkpt lat="43.9108429" lon="11.2187217"><ele>186.0</ele><time>2026-03-22T11:21:45.064Z</time></trkpt><trkpt lat="43.910926" lon="11.2187992"><ele>186.0</ele><time>2026-03-22T11:21:46.063Z</time></trkpt><trkpt lat="43.9110085" lon="11.2188799"><ele>186.0</ele><time>2026-03-22T11:21:47.063Z</time></trkpt><trkpt lat="43.9110889" lon="11.2189643"><ele>186.0</ele><time>2026-03-22T11:21:48.064Z</time></trkpt><trkpt lat="43.9111653" lon="11.2190513"><ele>185.8</ele><time>2026-03-22T11:21:49.047Z</time></trkpt><trkpt lat="43.9112372" lon="11.2191437"><ele>185.60000000000002</ele><time>2026-03-22T11:21:50.06Z</time></trkpt><trkpt lat="43.91131" lon="11.2192374"><ele>185.4</ele><time>2026-03-22T11:21:51.054Z</time></trkpt><trkpt lat="43.9113802" lon="11.2193302"><ele>185.2</ele><time>2026-03-22T11:21:52.058Z</time></trkpt><trkpt lat="43.9114537" lon="11.2194185"><ele>185.0</ele><time>2026-03-22T11:21:53.062Z</time></trkpt><trkpt lat="43.9115296" lon="11.219503"><ele>185.0</ele><time>2026-03-22T11:21:54.06Z</time></trkpt><trkpt lat="43.9116095" lon="11.2195898"><ele>185.0</ele><time>2026-03-22T11:21:55.051Z</time></trkpt><trkpt lat="43.9117023" lon="11.2196745"><ele>185.0</ele><time>2026-03-22T11:21:56.06Z</time></trkpt><trkpt lat="43.9118024" lon="11.2197561"><ele>185.0</ele><time>2026-03-22T11:21:57.054Z</time></trkpt><trkpt lat="43.9119075" lon="11.219831"><ele>185.0</ele><time>2026-03-22T11:21:58.048Z</time></trkpt><trkpt lat="43.912018" lon="11.2198957"><ele>185.75</ele><time>2026-03-22T11:21:59.06Z</time></trkpt><trkpt lat="43.9121283" lon="11.2199557"><ele>186.5</ele><time>2026-03-22T11:22:00.047Z</time></trkpt><trkpt lat="43.9122366" lon="11.2200178"><ele>187.25</ele><time>2026-03-22T11:22:01.063Z</time></trkpt><trkpt lat="43.9123364" lon="11.2200896"><ele>188.0</ele><time>2026-03-22T11:22:02.062Z</time></trkpt><trkpt lat="43.9124389" lon="11.22016"><ele>188.0</ele><time>2026-03-22T11:22:03.046Z</time></trkpt><trkpt lat="43.9125357" lon="11.2202401"><ele>188.0</ele><time>2026-03-22T11:22:04.055Z</time></trkpt><trkpt lat="43.9126234" lon="11.2203348"><ele>188.0</ele><time>2026-03-22T11:22:05.063Z</time></trkpt><trkpt lat="43.9127003" lon="11.22044"><ele>188.0</ele><time>2026-03-22T11:22:06.048Z</time></trkpt><trkpt lat="43.9127637" lon="11.2205623"><ele>188.0</ele><time>2026-03-22T11:22:07.048Z</time></trkpt><trkpt lat="43.9128054" lon="11.2207041"><ele>191.0</ele><time>2026-03-22T11:22:08.06Z</time></trkpt><trkpt lat="43.9128304" lon="11.2208628"><ele>194.0</ele><time>2026-03-22T11:22:09.047Z</time></trkpt><trkpt lat="43.9128589" lon="11.2210233"><ele>197.0</ele><time>2026-03-22T11:22:10.054Z</time></trkpt><trkpt lat="43.9128914" lon="11.2211789"><ele>200.0</ele><time>2026-03-22T11:22:11.059Z</time></trkpt><trkpt lat="43.9129292" lon="11.221342"><ele>198.0</ele><time>2026-03-22T11:22:12.054Z</time></trkpt><trkpt lat="43.912961" lon="11.2215062"><ele>196.0</ele><time>2026-03-22T11:22:13.051Z</time></trkpt><trkpt lat="43.9129822" lon="11.2216708"><ele>194.0</ele><time>2026-03-22T11:22:14.066Z</time></trkpt><trkpt lat="43.9129975" lon="11.221835"><ele>192.0</ele><time>2026-03-22T11:22:15.05Z</time></trkpt><trkpt lat="43.9130096" lon="11.2219972"><ele>192.0</ele><time>2026-03-22T11:22:16.049Z</time></trkpt><trkpt lat="43.9130211" lon="11.2221632"><ele>192.0</ele><time>2026-03-22T11:22:17.074Z</time></trkpt><trkpt lat="43.913031" lon="11.2223283"><ele>192.0</ele><time>2026-03-22T11:22:18.071Z</time></trkpt><trkpt lat="43.9130421" lon="11.2224983"><ele>192.0</ele><time>2026-03-22T11:22:19.069Z</time></trkpt><trkpt lat="43.9130527" lon="11.2226642"><ele>191.8</ele><time>2026-03-22T11:22:20.055Z</time></trkpt><trkpt lat="43.9130674" lon="11.2228142"><ele>191.6</ele><time>2026-03-22T11:22:21.059Z</time></trkpt><trkpt lat="43.9130968" lon="11.2229513"><ele>191.4</ele><time>2026-03-22T11:22:22.07Z</time></trkpt><trkpt lat="43.9131427" lon="11.2230746"><ele>191.20000000000002</ele><time>2026-03-22T11:22:23.052Z</time></trkpt><trkpt lat="43.9132045" lon="11.2231839"><ele>191.0</ele><time>2026-03-22T11:22:24.058Z</time></trkpt><trkpt lat="43.9132705" lon="11.2232944"><ele>191.8</ele><time>2026-03-22T11:22:25.071Z</time></trkpt><trkpt lat="43.9133378" lon="11.2234083"><ele>192.60000000000002</ele><time>2026-03-22T11:22:26.069Z</time></trkpt><trkpt lat="43.9134066" lon="11.2235234"><ele>193.4</ele><time>2026-03-22T11:22:27.06Z</time></trkpt><trkpt lat="43.9134761" lon="11.223643"><ele>194.2</ele><time>2026-03-22T11:22:28.071Z</time></trkpt><trkpt lat="43.9135475" lon="11.2237592"><ele>195.0</ele><time>2026-03-22T11:22:29.067Z</time></trkpt><trkpt lat="43.9136191" lon="11.2238705"><ele>195.4</ele><time>2026-03-22T11:22:30.069Z</time></trkpt><trkpt lat="43.9136941" lon="11.2239717"><ele>195.8</ele><time>2026-03-22T11:22:31.071Z</time></trkpt><trkpt lat="43.9137732" lon="11.2240588"><ele>196.2</ele><time>2026-03-22T11:22:32.062Z</time></trkpt><trkpt lat="43.9138591" lon="11.2241291"><ele>196.6</ele><time>2026-03-22T11:22:33.066Z</time></trkpt><trkpt lat="43.9139494" lon="11.2241883"><ele>197.0</ele><time>2026-03-22T11:22:34.073Z</time></trkpt><trkpt lat="43.9140325" lon="11.224234"><ele>197.00000000000003</ele><time>2026-03-22T11:22:35.063Z</time></trkpt><trkpt lat="43.9141104" lon="11.2242776"><ele>197.0</ele><time>2026-03-22T11:22:36.069Z</time></trkpt><trkpt lat="43.9141752" lon="11.2243298"><ele>197.0</ele><time>2026-03-22T11:22:37.061Z</time></trkpt><trkpt lat="43.9142278" lon="11.2244085"><ele>197.0</ele><time>2026-03-22T11:22:38.063Z</time></trkpt><trkpt lat="43.9142775" lon="11.2245033"><ele>197.00000000000003</ele><time>2026-03-22T11:22:39.054Z</time></trkpt><trkpt lat="43.9143306" lon="11.224596"><ele>197.0</ele><time>2026-03-22T11:22:40.057Z</time></trkpt><trkpt lat="43.9143834" lon="11.2246833"><ele>198.16666666666669</ele><time>2026-03-22T11:22:41.067Z</time></trkpt><trkpt lat="43.9144364" lon="11.2247652"><ele>199.33333333333334</ele><time>2026-03-22T11:22:42.063Z</time></trkpt><trkpt lat="43.9145044" lon="11.2248293"><ele>200.5</ele><time>2026-03-22T11:22:43.053Z</time></trkpt><trkpt lat="43.9145816" lon="11.2248858"><ele>201.66666666666669</ele><time>2026-03-22T11:22:44.044Z</time></trkpt><trkpt lat="43.914667" lon="11.2249324"><ele>202.83333333333334</ele><time>2026-03-22T11:22:45.061Z</time></trkpt><trkpt lat="43.9147605" lon="11.2249748"><ele>204.0</ele><time>2026-03-22T11:22:46.055Z</time></trkpt><trkpt lat="43.9148567" lon="11.2250124"><ele>204.0</ele><time>2026-03-22T11:22:47.054Z</time></trkpt><trkpt lat="43.9149558" lon="11.2250397"><ele>204.0</ele><time>2026-03-22T11:22:48.064Z</time></trkpt><trkpt lat="43.9150531" lon="11.2250637"><ele>204.0</ele><time>2026-03-22T11:22:49.063Z</time></trkpt><trkpt lat="43.915148" lon="11.2250954"><ele>204.0</ele><time>2026-03-22T11:22:50.064Z</time></trkpt><trkpt lat="43.915236" lon="11.2251208"><ele>204.0</ele><time>2026-03-22T11:22:51.069Z</time></trkpt><trkpt lat="43.9153264" lon="11.2251481"><ele>205.39999999999998</ele><time>2026-03-22T11:22:52.07Z</time></trkpt><trkpt lat="43.9154226" lon="11.2251789"><ele>206.8</ele><time>2026-03-22T11:22:53.048Z</time></trkpt><trkpt lat="43.9155158" lon="11.2252264"><ele>208.2</ele><time>2026-03-22T11:22:54.062Z</time></trkpt><trkpt lat="43.9156106" lon="11.2252798"><ele>209.60000000000002</ele><time>2026-03-22T11:22:55.071Z</time></trkpt><trkpt lat="43.9157004" lon="11.2253372"><ele>211.0</ele><time>2026-03-22T11:22:56.059Z</time></trkpt><trkpt lat="43.9157774" lon="11.2253945"><ele>210.99999999999997</ele><time>2026-03-22T11:22:57.075Z</time></trkpt><trkpt lat="43.9158514" lon="11.2254453"><ele>211.0</ele><time>2026-03-22T11:22:58.065Z</time></trkpt><trkpt lat="43.9159267" lon="11.2254761"><ele>211.0</ele><time>2026-03-22T11:22:59.067Z</time></trkpt><trkpt lat="43.9160073" lon="11.2254753"><ele>211.0</ele><time>2026-03-22T11:23:00.056Z</time></trkpt><trkpt lat="43.9160879" lon="11.225442"><ele>210.99999999999997</ele><time>2026-03-22T11:23:01.057Z</time></trkpt><trkpt lat="43.9161625" lon="11.2253772"><ele>211.0</ele><time>2026-03-22T11:23:02.052Z</time></trkpt><trkpt lat="43.9162306" lon="11.2252927"><ele>212.0</ele><time>2026-03-22T11:23:03.061Z</time></trkpt><trkpt lat="43.9163023" lon="11.225211"><ele>213.0</ele><time>2026-03-22T11:23:04.069Z</time></trkpt><trkpt lat="43.9163813" lon="11.2251352"><ele>214.00000000000003</ele><time>2026-03-22T11:23:05.064Z</time></trkpt><trkpt lat="43.9164704" lon="11.2250717"><ele>215.0</ele><time>2026-03-22T11:23:06.074Z</time></trkpt><trkpt lat="43.9165592" lon="11.2250213"><ele>216.0</ele><time>2026-03-22T11:23:07.079Z</time></trkpt><trkpt lat="43.9166552" lon="11.2249894"><ele>218.20000000000002</ele><time>2026-03-22T11:23:08.059Z</time></trkpt><trkpt lat="43.9167524" lon="11.2249855"><ele>220.40000000000003</ele><time>2026-03-22T11:23:09.071Z</time></trkpt><trkpt lat="43.9168502" lon="11.2249956"><ele>222.6</ele><time>2026-03-22T11:23:10.074Z</time></trkpt><trkpt lat="43.9169457" lon="11.2250142"><ele>224.8</ele><time>2026-03-22T11:23:11.064Z</time></trkpt><trkpt lat="43.9170374" lon="11.2250425"><ele>227.0</ele><time>2026-03-22T11:23:12.078Z</time></trkpt><trkpt lat="43.9171299" lon="11.2250862"><ele>227.0</ele><time>2026-03-22T11:23:13.073Z</time></trkpt><trkpt lat="43.9172239" lon="11.2251358"><ele>227.0</ele><time>2026-03-22T11:23:14.076Z</time></trkpt><trkpt lat="43.9173155" lon="11.2252036"><ele>227.0</ele><time>2026-03-22T11:23:15.052Z</time></trkpt><trkpt lat="43.9174091" lon="11.225275"><ele>227.0</ele><time>2026-03-22T11:23:16.068Z</time></trkpt><trkpt lat="43.9174993" lon="11.2253481"><ele>227.0</ele><time>2026-03-22T11:23:17.062Z</time></trkpt><trkpt lat="43.917589" lon="11.2254148"><ele>227.2</ele><time>2026-03-22T11:23:18.05Z</time></trkpt><trkpt lat="43.9176744" lon="11.2254783"><ele>227.39999999999998</ele><time>2026-03-22T11:23:19.054Z</time></trkpt><trkpt lat="43.9177584" lon="11.2255384"><ele>227.60000000000002</ele><time>2026-03-22T11:23:20.07Z</time></trkpt><trkpt lat="43.9178415" lon="11.2256061"><ele>227.8</ele><time>2026-03-22T11:23:21.071Z</time></trkpt><trkpt lat="43.9179137" lon="11.2256825"><ele>228.0</ele><time>2026-03-22T11:23:22.056Z</time></trkpt><trkpt lat="43.9179749" lon="11.225791"><ele>228.0</ele><time>2026-03-22T11:23:23.068Z</time></trkpt><trkpt lat="43.9180401" lon="11.2259099"><ele>228.0</ele><time>2026-03-22T11:23:24.083Z</time></trkpt><trkpt lat="43.9181152" lon="11.2260148"><ele>228.0</ele><time>2026-03-22T11:23:25.072Z</time></trkpt><trkpt lat="43.918195" lon="11.2261261"><ele>228.0</ele><time>2026-03-22T11:23:26.061Z</time></trkpt><trkpt lat="43.9182759" lon="11.2262348"><ele>228.0</ele><time>2026-03-22T11:23:27.039Z</time></trkpt><trkpt lat="43.9183526" lon="11.2263481"><ele>229.4</ele><time>2026-03-22T11:23:28.049Z</time></trkpt><trkpt lat="43.9184237" lon="11.2264544"><ele>230.8</ele><time>2026-03-22T11:23:29.038Z</time></trkpt><trkpt lat="43.9185027" lon="11.2265572"><ele>232.2</ele><time>2026-03-22T11:23:30.071Z</time></trkpt><trkpt lat="43.9185864" lon="11.2266472"><ele>233.6</ele><time>2026-03-22T11:23:31.056Z</time></trkpt><trkpt lat="43.9186533" lon="11.2267675"><ele>235.0</ele><time>2026-03-22T11:23:32.083Z</time></trkpt><trkpt lat="43.9187152" lon="11.226892"><ele>235.0</ele><time>2026-03-22T11:23:33.07Z</time></trkpt><trkpt lat="43.9187888" lon="11.2270077"><ele>235.0</ele><time>2026-03-22T11:23:34.06Z</time></trkpt><trkpt lat="43.9188639" lon="11.2271161"><ele>235.0</ele><time>2026-03-22T11:23:35.047Z</time></trkpt><trkpt lat="43.9189494" lon="11.2272141"><ele>235.0</ele><time>2026-03-22T11:23:36.061Z</time></trkpt><trkpt lat="43.9190426" lon="11.2273052"><ele>235.0</ele><time>2026-03-22T11:23:37.067Z</time></trkpt><trkpt lat="43.9191381" lon="11.2273937"><ele>234.4</ele><time>2026-03-22T11:23:38.058Z</time></trkpt><trkpt lat="43.9192311" lon="11.2274846"><ele>233.8</ele><time>2026-03-22T11:23:39.07Z</time></trkpt><trkpt lat="43.9193183" lon="11.2275734"><ele>233.2</ele><time>2026-03-22T11:23:40.05Z</time></trkpt><trkpt lat="43.9194004" lon="11.2276578"><ele>232.6</ele><time>2026-03-22T11:23:41.063Z</time></trkpt><trkpt lat="43.9194753" lon="11.2277328"><ele>232.0</ele><time>2026-03-22T11:23:42.065Z</time></trkpt><trkpt lat="43.9195487" lon="11.2277997"><ele>233.99999999999997</ele><time>2026-03-22T11:23:43.064Z</time></trkpt><trkpt lat="43.9196134" lon="11.227859"><ele>236.0</ele><time>2026-03-22T11:23:44.078Z</time></trkpt><trkpt lat="43.9196736" lon="11.2279084"><ele>238.0</ele><time>2026-03-22T11:23:45.077Z</time></trkpt><trkpt lat="43.9197329" lon="11.2279474"><ele>240.0</ele><time>2026-03-22T11:23:46.072Z</time></trkpt><trkpt lat="43.9198557" lon="11.2279287"><ele>241.99999999999997</ele><time>2026-03-22T11:23:48.069Z</time></trkpt><trkpt lat="43.919916" lon="11.2278989"><ele>244.0</ele><time>2026-03-22T11:23:49.075Z</time></trkpt><trkpt lat="43.9200028" lon="11.2278983"><ele>243.99999999999997</ele><time>2026-03-22T11:23:51.05Z</time></trkpt><trkpt lat="43.9200438" lon="11.2279881"><ele>244.0</ele><time>2026-03-22T11:23:53.075Z</time></trkpt><trkpt lat="43.9200611" lon="11.2281001"><ele>244.0</ele><time>2026-03-22T11:23:55.062Z</time></trkpt><trkpt lat="43.9201285" lon="11.2281813"><ele>244.0</ele><time>2026-03-22T11:23:57.051Z</time></trkpt><trkpt lat="43.9201857" lon="11.2282748"><ele>243.99999999999997</ele><time>2026-03-22T11:23:59.057Z</time></trkpt><trkpt lat="43.920227" lon="11.2283901"><ele>244.0</ele><time>2026-03-22T11:24:01.062Z</time></trkpt><trkpt lat="43.9202568" lon="11.2285134"><ele>244.16666666666666</ele><time>2026-03-22T11:24:03.069Z</time></trkpt><trkpt lat="43.9202828" lon="11.2286335"><ele>244.33333333333331</ele><time>2026-03-22T11:24:05.058Z</time></trkpt><trkpt lat="43.9203067" lon="11.2287486"><ele>244.5</ele><time>2026-03-22T11:24:07.059Z</time></trkpt><trkpt lat="43.9203409" lon="11.2288489"><ele>244.66666666666669</ele><time>2026-03-22T11:24:09.065Z</time></trkpt><trkpt lat="43.9204006" lon="11.2289156"><ele>244.83333333333334</ele><time>2026-03-22T11:24:11.081Z</time></trkpt><trkpt lat="43.9204766" lon="11.228974"><ele>245.0</ele><time>2026-03-22T11:24:13.07Z</time></trkpt><trkpt lat="43.9205584" lon="11.2290369"><ele>246.00000000000003</ele><time>2026-03-22T11:24:15.073Z</time></trkpt><trkpt lat="43.9206651" lon="11.229114"><ele>247.0</ele><time>2026-03-22T11:24:17.07Z</time></trkpt><trkpt lat="43.9207249" lon="11.2291626"><ele>248.0</ele><time>2026-03-22T11:24:18.101Z</time></trkpt><trkpt lat="43.9207857" lon="11.2292103"><ele>249.0</ele><time>2026-03-22T11:24:19.054Z</time></trkpt><trkpt lat="43.9208509" lon="11.2292617"><ele>250.00000000000003</ele><time>2026-03-22T11:24:20.068Z</time></trkpt><trkpt lat="43.9209192" lon="11.2293193"><ele>251.0</ele><time>2026-03-22T11:24:21.081Z</time></trkpt><trkpt lat="43.9209848" lon="11.2293788"><ele>252.66666666666669</ele><time>2026-03-22T11:24:22.062Z</time></trkpt><trkpt lat="43.9210516" lon="11.2294354"><ele>254.33333333333334</ele><time>2026-03-22T11:24:23.071Z</time></trkpt><trkpt lat="43.921116" lon="11.2294877"><ele>256.0</ele><time>2026-03-22T11:24:24.09Z</time></trkpt><trkpt lat="43.9211815" lon="11.2295449"><ele>257.6666666666667</ele><time>2026-03-22T11:24:25.059Z</time></trkpt><trkpt lat="43.9212469" lon="11.2295986"><ele>259.3333333333333</ele><time>2026-03-22T11:24:26.071Z</time></trkpt><trkpt lat="43.9213168" lon="11.2296467"><ele>261.0</ele><time>2026-03-22T11:24:27.067Z</time></trkpt><trkpt lat="43.9213826" lon="11.2296984"><ele>261.0</ele><time>2026-03-22T11:24:28.072Z</time></trkpt><trkpt lat="43.9214428" lon="11.2297586"><ele>261.0</ele><time>2026-03-22T11:24:29.051Z</time></trkpt><trkpt lat="43.9214996" lon="11.2298274"><ele>261.0</ele><time>2026-03-22T11:24:30.065Z</time></trkpt><trkpt lat="43.9215445" lon="11.2299042"><ele>261.0</ele><time>2026-03-22T11:24:31.072Z</time></trkpt><trkpt lat="43.9215767" lon="11.2299956"><ele>261.0</ele><time>2026-03-22T11:24:32.07Z</time></trkpt><trkpt lat="43.9215863" lon="11.2300894"><ele>261.0</ele><time>2026-03-22T11:24:33.058Z</time></trkpt><trkpt lat="43.921578" lon="11.2301855"><ele>261.0</ele><time>2026-03-22T11:24:34.073Z</time></trkpt><trkpt lat="43.9215599" lon="11.230275"><ele>262.1666666666667</ele><time>2026-03-22T11:24:35.075Z</time></trkpt><trkpt lat="43.9215654" lon="11.2303643"><ele>263.3333333333333</ele><time>2026-03-22T11:24:36.071Z</time></trkpt><trkpt lat="43.9215927" lon="11.2304432"><ele>264.5</ele><time>2026-03-22T11:24:37.066Z</time></trkpt><trkpt lat="43.9216406" lon="11.2305238"><ele>265.66666666666663</ele><time>2026-03-22T11:24:38.089Z</time></trkpt><trkpt lat="43.9216845" lon="11.2306873"><ele>266.8333333333333</ele><time>2026-03-22T11:24:40.06Z</time></trkpt><trkpt lat="43.9217161" lon="11.2307681"><ele>268.0</ele><time>2026-03-22T11:24:41.058Z</time></trkpt><trkpt lat="43.9217626" lon="11.2308334"><ele>271.14285714285717</ele><time>2026-03-22T11:24:42.062Z</time></trkpt><trkpt lat="43.9218112" lon="11.2308904"><ele>274.2857142857143</ele><time>2026-03-22T11:24:43.068Z</time></trkpt><trkpt lat="43.9218578" lon="11.2309572"><ele>277.42857142857144</ele><time>2026-03-22T11:24:44.076Z</time></trkpt><trkpt lat="43.9219036" lon="11.2310287"><ele>280.57142857142856</ele><time>2026-03-22T11:24:45.06Z</time></trkpt><trkpt lat="43.9219533" lon="11.2311061"><ele>283.7142857142857</ele><time>2026-03-22T11:24:46.071Z</time></trkpt><trkpt lat="43.9220029" lon="11.2311861"><ele>286.8571428571429</ele><time>2026-03-22T11:24:47.066Z</time></trkpt><trkpt lat="43.9220557" lon="11.2312682"><ele>290.0</ele><time>2026-03-22T11:24:48.076Z</time></trkpt><trkpt lat="43.9221054" lon="11.231356"><ele>290.0</ele><time>2026-03-22T11:24:49.075Z</time></trkpt><trkpt lat="43.9221546" lon="11.2314434"><ele>290.0</ele><time>2026-03-22T11:24:50.061Z</time></trkpt><trkpt lat="43.9222009" lon="11.2315343"><ele>290.0</ele><time>2026-03-22T11:24:51.076Z</time></trkpt><trkpt lat="43.9222474" lon="11.2316267"><ele>290.0</ele><time>2026-03-22T11:24:52.068Z</time></trkpt><trkpt lat="43.9222828" lon="11.2317279"><ele>290.0</ele><time>2026-03-22T11:24:53.044Z</time></trkpt><trkpt lat="43.9223048" lon="11.2318425"><ele>290.0</ele><time>2026-03-22T11:24:54.06Z</time></trkpt><trkpt lat="43.9223115" lon="11.2319596"><ele>291.6666666666667</ele><time>2026-03-22T11:24:55.069Z</time></trkpt><trkpt lat="43.9223086" lon="11.2320735"><ele>293.33333333333337</ele><time>2026-03-22T11:24:56.064Z</time></trkpt><trkpt lat="43.9223096" lon="11.2321842"><ele>295.0</ele><time>2026-03-22T11:24:57.061Z</time></trkpt><trkpt lat="43.9223413" lon="11.2322879"><ele>296.6666666666667</ele><time>2026-03-22T11:24:58.072Z</time></trkpt><trkpt lat="43.9223885" lon="11.2323755"><ele>298.3333333333333</ele><time>2026-03-22T11:24:59.071Z</time></trkpt><trkpt lat="43.9224416" lon="11.2324475"><ele>300.0</ele><time>2026-03-22T11:25:00.068Z</time></trkpt><trkpt lat="43.9224952" lon="11.232532"><ele>300.8333333333333</ele><time>2026-03-22T11:25:01.08Z</time></trkpt><trkpt lat="43.9225473" lon="11.2326298"><ele>301.6666666666667</ele><time>2026-03-22T11:25:02.072Z</time></trkpt><trkpt lat="43.9225982" lon="11.2327168"><ele>302.5</ele><time>2026-03-22T11:25:03.065Z</time></trkpt><trkpt lat="43.9226586" lon="11.2327992"><ele>303.33333333333337</ele><time>2026-03-22T11:25:04.068Z</time></trkpt><trkpt lat="43.9227222" lon="11.2328703"><ele>304.1666666666667</ele><time>2026-03-22T11:25:05.061Z</time></trkpt><trkpt lat="43.922789" lon="11.2329403"><ele>305.0</ele><time>2026-03-22T11:25:06.073Z</time></trkpt><trkpt lat="43.9228544" lon="11.2329987"><ele>306.8571428571429</ele><time>2026-03-22T11:25:07.079Z</time></trkpt><trkpt lat="43.9229245" lon="11.2330479"><ele>308.71428571428567</ele><time>2026-03-22T11:25:08.06Z</time></trkpt><trkpt lat="43.9229887" lon="11.2330919"><ele>310.57142857142856</ele><time>2026-03-22T11:25:09.074Z</time></trkpt><trkpt lat="43.9230571" lon="11.2331308"><ele>312.42857142857144</ele><time>2026-03-22T11:25:10.076Z</time></trkpt><trkpt lat="43.9231275" lon="11.2331747"><ele>314.28571428571433</ele><time>2026-03-22T11:25:11.067Z</time></trkpt><trkpt lat="43.9231787" lon="11.2332322"><ele>316.1428571428571</ele><time>2026-03-22T11:25:12.064Z</time></trkpt><trkpt lat="43.9232266" lon="11.2332902"><ele>318.0</ele><time>2026-03-22T11:25:13.06Z</time></trkpt><trkpt lat="43.923277" lon="11.2333524"><ele>318.6666666666667</ele><time>2026-03-22T11:25:14.072Z</time></trkpt><trkpt lat="43.9233142" lon="11.233423"><ele>319.3333333333333</ele><time>2026-03-22T11:25:15.059Z</time></trkpt><trkpt lat="43.9233481" lon="11.2335011"><ele>320.0</ele><time>2026-03-22T11:25:16.063Z</time></trkpt><trkpt lat="43.9233794" lon="11.2335871"><ele>320.66666666666663</ele><time>2026-03-22T11:25:17.069Z</time></trkpt><trkpt lat="43.9234162" lon="11.2336803"><ele>321.3333333333333</ele><time>2026-03-22T11:25:18.076Z</time></trkpt><trkpt lat="43.9234583" lon="11.2337846"><ele>322.0</ele><time>2026-03-22T11:25:19.054Z</time></trkpt><trkpt lat="43.9235035" lon="11.233898"><ele>323.8</ele><time>2026-03-22T11:25:20.079Z</time></trkpt><trkpt lat="43.9235585" lon="11.2340213"><ele>325.6</ele><time>2026-03-22T11:25:21.067Z</time></trkpt><trkpt lat="43.9236122" lon="11.2341533"><ele>327.40000000000003</ele><time>2026-03-22T11:25:22.076Z</time></trkpt><trkpt lat="43.9236628" lon="11.234277"><ele>329.20000000000005</ele><time>2026-03-22T11:25:23.077Z</time></trkpt><trkpt lat="43.923714" lon="11.2343916"><ele>331.0</ele><time>2026-03-22T11:25:24.062Z</time></trkpt><trkpt lat="43.9237626" lon="11.2345102"><ele>331.0</ele><time>2026-03-22T11:25:25.078Z</time></trkpt><trkpt lat="43.9238102" lon="11.2346255"><ele>331.0</ele><time>2026-03-22T11:25:26.071Z</time></trkpt><trkpt lat="43.9238475" lon="11.2347379"><ele>331.0</ele><time>2026-03-22T11:25:27.067Z</time></trkpt><trkpt lat="43.9238817" lon="11.2348389"><ele>331.0</ele><time>2026-03-22T11:25:28.058Z</time></trkpt><trkpt lat="43.9239238" lon="11.2349334"><ele>331.0</ele><time>2026-03-22T11:25:29.066Z</time></trkpt><trkpt lat="43.9239798" lon="11.2350163"><ele>331.0</ele><time>2026-03-22T11:25:30.068Z</time></trkpt><trkpt lat="43.9240539" lon="11.23508"><ele>332.0</ele><time>2026-03-22T11:25:31.082Z</time></trkpt><trkpt lat="43.9241341" lon="11.2351366"><ele>333.0</ele><time>2026-03-22T11:25:32.063Z</time></trkpt><trkpt lat="43.9242155" lon="11.2351921"><ele>334.0</ele><time>2026-03-22T11:25:33.076Z</time></trkpt><trkpt lat="43.9243003" lon="11.2352461"><ele>335.0</ele><time>2026-03-22T11:25:34.065Z</time></trkpt><trkpt lat="43.9243853" lon="11.2353047"><ele>336.0</ele><time>2026-03-22T11:25:35.066Z</time></trkpt><trkpt lat="43.9244649" lon="11.2353615"><ele>338.3333333333333</ele><time>2026-03-22T11:25:36.063Z</time></trkpt><trkpt lat="43.9245504" lon="11.2354168"><ele>340.6666666666667</ele><time>2026-03-22T11:25:37.074Z</time></trkpt><trkpt lat="43.9246347" lon="11.2354691"><ele>343.0</ele><time>2026-03-22T11:25:38.069Z</time></trkpt><trkpt lat="43.9247175" lon="11.2355193"><ele>345.33333333333337</ele><time>2026-03-22T11:25:39.078Z</time></trkpt><trkpt lat="43.9247934" lon="11.2355737"><ele>347.6666666666667</ele><time>2026-03-22T11:25:40.072Z</time></trkpt><trkpt lat="43.9248757" lon="11.2356074"><ele>350.0</ele><time>2026-03-22T11:25:41.071Z</time></trkpt><trkpt lat="43.9249617" lon="11.2356126"><ele>350.0</ele><time>2026-03-22T11:25:42.07Z</time></trkpt><trkpt lat="43.9250444" lon="11.2355931"><ele>350.0</ele><time>2026-03-22T11:25:43.058Z</time></trkpt><trkpt lat="43.9251221" lon="11.2355604"><ele>350.0</ele><time>2026-03-22T11:25:44.067Z</time></trkpt><trkpt lat="43.9251903" lon="11.2355177"><ele>350.0</ele><time>2026-03-22T11:25:45.066Z</time></trkpt><trkpt lat="43.9252477" lon="11.2354741"><ele>350.0</ele><time>2026-03-22T11:25:46.072Z</time></trkpt><trkpt lat="43.9253525" lon="11.2354251"><ele>350.0</ele><time>2026-03-22T11:25:48.073Z</time></trkpt><trkpt lat="43.9254466" lon="11.2354802"><ele>351.5</ele><time>2026-03-22T11:25:50.073Z</time></trkpt><trkpt lat="43.925481" lon="11.2355566"><ele>353.0</ele><time>2026-03-22T11:25:51.076Z</time></trkpt><trkpt lat="43.9255191" lon="11.2356443"><ele>354.5</ele><time>2026-03-22T11:25:52.068Z</time></trkpt><trkpt lat="43.9255587" lon="11.2357418"><ele>356.0</ele><time>2026-03-22T11:25:53.059Z</time></trkpt><trkpt lat="43.9256049" lon="11.235848"><ele>357.5</ele><time>2026-03-22T11:25:54.082Z</time></trkpt><trkpt lat="43.9256512" lon="11.2359565"><ele>359.0</ele><time>2026-03-22T11:25:55.071Z</time></trkpt><trkpt lat="43.9257013" lon="11.2360661"><ele>360.4</ele><time>2026-03-22T11:25:56.077Z</time></trkpt><trkpt lat="43.9257533" lon="11.2361792"><ele>361.79999999999995</ele><time>2026-03-22T11:25:57.07Z</time></trkpt><trkpt lat="43.9258082" lon="11.2362872"><ele>363.20000000000005</ele><time>2026-03-22T11:25:58.057Z</time></trkpt><trkpt lat="43.9258571" lon="11.2363974"><ele>364.6</ele><time>2026-03-22T11:25:59.075Z</time></trkpt><trkpt lat="43.9259003" lon="11.2365041"><ele>366.0</ele><time>2026-03-22T11:26:00.061Z</time></trkpt><trkpt lat="43.9259168" lon="11.2366148"><ele>368.1666666666667</ele><time>2026-03-22T11:26:01.066Z</time></trkpt><trkpt lat="43.9259171" lon="11.2367263"><ele>370.3333333333333</ele><time>2026-03-22T11:26:02.071Z</time></trkpt><trkpt lat="43.9259379" lon="11.2368388"><ele>372.5</ele><time>2026-03-22T11:26:03.064Z</time></trkpt><trkpt lat="43.9259765" lon="11.2369518"><ele>374.66666666666663</ele><time>2026-03-22T11:26:04.065Z</time></trkpt><trkpt lat="43.9260239" lon="11.2370366"><ele>376.8333333333333</ele><time>2026-03-22T11:26:05.069Z</time></trkpt><trkpt lat="43.9260816" lon="11.2371147"><ele>379.0</ele><time>2026-03-22T11:26:06.066Z</time></trkpt><trkpt lat="43.9261482" lon="11.2371829"><ele>379.0</ele><time>2026-03-22T11:26:07.063Z</time></trkpt><trkpt lat="43.9262144" lon="11.2372565"><ele>379.0</ele><time>2026-03-22T11:26:08.064Z</time></trkpt><trkpt lat="43.9262871" lon="11.237334"><ele>379.0</ele><time>2026-03-22T11:26:09.061Z</time></trkpt><trkpt lat="43.926362" lon="11.2374071"><ele>379.0</ele><time>2026-03-22T11:26:10.075Z</time></trkpt><trkpt lat="43.9264391" lon="11.2374685"><ele>379.0</ele><time>2026-03-22T11:26:11.067Z</time></trkpt><trkpt lat="43.9265188" lon="11.2375164"><ele>379.0</ele><time>2026-03-22T11:26:12.077Z</time></trkpt><trkpt lat="43.9265978" lon="11.2375581"><ele>380.3333333333333</ele><time>2026-03-22T11:26:13.066Z</time></trkpt><trkpt lat="43.9266745" lon="11.2376043"><ele>381.66666666666663</ele><time>2026-03-22T11:26:14.075Z</time></trkpt><trkpt lat="43.9267465" lon="11.2376585"><ele>383.0</ele><time>2026-03-22T11:26:15.064Z</time></trkpt><trkpt lat="43.9268102" lon="11.2377191"><ele>384.3333333333333</ele><time>2026-03-22T11:26:16.059Z</time></trkpt><trkpt lat="43.9268713" lon="11.2377919"><ele>385.6666666666667</ele><time>2026-03-22T11:26:17.051Z</time></trkpt><trkpt lat="43.926913" lon="11.2378906"><ele>387.0</ele><time>2026-03-22T11:26:18.068Z</time></trkpt><trkpt lat="43.9269357" lon="11.238"><ele>389.20000000000005</ele><time>2026-03-22T11:26:19.07Z</time></trkpt><trkpt lat="43.9269684" lon="11.2381079"><ele>391.4</ele><time>2026-03-22T11:26:20.071Z</time></trkpt><trkpt lat="43.9270063" lon="11.2382237"><ele>393.6</ele><time>2026-03-22T11:26:21.074Z</time></trkpt><trkpt lat="43.9270465" lon="11.2383397"><ele>395.79999999999995</ele><time>2026-03-22T11:26:22.061Z</time></trkpt><trkpt lat="43.9270876" lon="11.238458"><ele>398.0</ele><time>2026-03-22T11:26:23.063Z</time></trkpt><trkpt lat="43.9271323" lon="11.2385771"><ele>397.99999999999994</ele><time>2026-03-22T11:26:24.067Z</time></trkpt><trkpt lat="43.9271793" lon="11.2386971"><ele>398.0</ele><time>2026-03-22T11:26:25.07Z</time></trkpt><trkpt lat="43.9272292" lon="11.2388123"><ele>398.0</ele><time>2026-03-22T11:26:26.085Z</time></trkpt><trkpt lat="43.9272775" lon="11.2389121"><ele>398.0</ele><time>2026-03-22T11:26:27.072Z</time></trkpt><trkpt lat="43.9273239" lon="11.2389937"><ele>397.99999999999994</ele><time>2026-03-22T11:26:28.079Z</time></trkpt><trkpt lat="43.9273703" lon="11.2390532"><ele>398.0</ele><time>2026-03-22T11:26:29.061Z</time></trkpt><trkpt lat="43.9274509" lon="11.2391293"><ele>398.99999999999994</ele><time>2026-03-22T11:26:31.07Z</time></trkpt><trkpt lat="43.9275233" lon="11.2391406"><ele>400.0</ele><time>2026-03-22T11:26:33.052Z</time></trkpt><trkpt lat="43.9276166" lon="11.239125"><ele>401.0</ele><time>2026-03-22T11:26:35.071Z</time></trkpt><trkpt lat="43.9277048" lon="11.2391211"><ele>402.0</ele><time>2026-03-22T11:26:37.061Z</time></trkpt><trkpt lat="43.9277665" lon="11.2390914"><ele>402.99999999999994</ele><time>2026-03-22T11:26:40.054Z</time></trkpt><trkpt lat="43.9278109" lon="11.2389992"><ele>404.0</ele><time>2026-03-22T11:27:19.061Z</time></trkpt><trkpt lat="43.9278708" lon="11.2389289"><ele>404.4</ele><time>2026-03-22T11:27:21.064Z</time></trkpt><trkpt lat="43.927943" lon="11.2388583"><ele>404.79999999999995</ele><time>2026-03-22T11:27:23.075Z</time></trkpt><trkpt lat="43.9280199" lon="11.2387853"><ele>405.20000000000005</ele><time>2026-03-22T11:27:25.068Z</time></trkpt><trkpt lat="43.9280962" lon="11.2387036"><ele>405.6</ele><time>2026-03-22T11:27:27.074Z</time></trkpt><trkpt lat="43.9281734" lon="11.2386154"><ele>406.0</ele><time>2026-03-22T11:27:29.061Z</time></trkpt><trkpt lat="43.9282498" lon="11.2385269"><ele>406.0</ele><time>2026-03-22T11:27:31.066Z</time></trkpt><trkpt lat="43.9283342" lon="11.2384267"><ele>406.0</ele><time>2026-03-22T11:27:33.07Z</time></trkpt><trkpt lat="43.9284287" lon="11.2383167"><ele>406.0</ele><time>2026-03-22T11:27:35.074Z</time></trkpt><trkpt lat="43.9285232" lon="11.2382106"><ele>406.0</ele><time>2026-03-22T11:27:37.073Z</time></trkpt><trkpt lat="43.9286156" lon="11.2381052"><ele>405.5</ele><time>2026-03-22T11:27:39.061Z</time></trkpt><trkpt lat="43.9287081" lon="11.2380026"><ele>405.0</ele><time>2026-03-22T11:27:41.055Z</time></trkpt><trkpt lat="43.9288148" lon="11.2379478"><ele>404.5</ele><time>2026-03-22T11:27:43.067Z</time></trkpt><trkpt lat="43.9289252" lon="11.2379608"><ele>404.0</ele><time>2026-03-22T11:27:45.063Z</time></trkpt><trkpt lat="43.9290296" lon="11.2380039"><ele>404.0</ele><time>2026-03-22T11:27:47.054Z</time></trkpt><trkpt lat="43.9291393" lon="11.2380529"><ele>404.0</ele><time>2026-03-22T11:27:49.062Z</time></trkpt><trkpt lat="43.9292521" lon="11.2381069"><ele>404.0</ele><time>2026-03-22T11:27:51.052Z</time></trkpt><trkpt lat="43.9293627" lon="11.2381435"><ele>404.0</ele><time>2026-03-22T11:27:53.064Z</time></trkpt><trkpt lat="43.9294744" lon="11.2381859"><ele>408.25</ele><time>2026-03-22T11:27:55.053Z</time></trkpt><trkpt lat="43.9295871" lon="11.2382414"><ele>412.5</ele><time>2026-03-22T11:27:57.064Z</time></trkpt><trkpt lat="43.9297018" lon="11.2382984"><ele>416.75</ele><time>2026-03-22T11:27:59.072Z</time></trkpt><trkpt lat="43.9298097" lon="11.2383698"><ele>421.0</ele><time>2026-03-22T11:28:01.061Z</time></trkpt><trkpt lat="43.9299101" lon="11.2383468"><ele>421.00000000000006</ele><time>2026-03-22T11:28:03.068Z</time></trkpt><trkpt lat="43.9299877" lon="11.2382439"><ele>421.0</ele><time>2026-03-22T11:28:05.067Z</time></trkpt><trkpt lat="43.9300628" lon="11.2381601"><ele>421.0</ele><time>2026-03-22T11:28:07.061Z</time></trkpt><trkpt lat="43.9301256" lon="11.2381188"><ele>421.0</ele><time>2026-03-22T11:28:09.064Z</time></trkpt><trkpt lat="43.9301985" lon="11.2381292"><ele>421.00000000000006</ele><time>2026-03-22T11:28:11.054Z</time></trkpt><trkpt lat="43.9302695" lon="11.2381938"><ele>421.0</ele><time>2026-03-22T11:28:13.062Z</time></trkpt><trkpt lat="43.9303145" lon="11.2382999"><ele>422.4</ele><time>2026-03-22T11:28:15.047Z</time></trkpt><trkpt lat="43.9303353" lon="11.2384253"><ele>423.8</ele><time>2026-03-22T11:28:17.054Z</time></trkpt><trkpt lat="43.9303809" lon="11.2385504"><ele>425.19999999999993</ele><time>2026-03-22T11:28:19.057Z</time></trkpt><trkpt lat="43.9304359" lon="11.2386468"><ele>426.59999999999997</ele><time>2026-03-22T11:28:21.061Z</time></trkpt><trkpt lat="43.9305168" lon="11.2386779"><ele>428.0</ele><time>2026-03-22T11:28:23.058Z</time></trkpt><trkpt lat="43.9306155" lon="11.2386933"><ele>428.0</ele><time>2026-03-22T11:28:25.069Z</time></trkpt><trkpt lat="43.930741" lon="11.2386869"><ele>427.99999999999994</ele><time>2026-03-22T11:28:27.067Z</time></trkpt><trkpt lat="43.9308475" lon="11.2386503"><ele>427.99999999999994</ele><time>2026-03-22T11:28:29.064Z</time></trkpt><trkpt lat="43.930942" lon="11.2386071"><ele>428.0</ele><time>2026-03-22T11:28:31.055Z</time></trkpt><trkpt lat="43.9310373" lon="11.2385896"><ele>428.0</ele><time>2026-03-22T11:28:33.067Z</time></trkpt><trkpt lat="43.9311416" lon="11.2385678"><ele>428.99999999999994</ele><time>2026-03-22T11:28:35.071Z</time></trkpt><trkpt lat="43.9312338" lon="11.2385329"><ele>430.0</ele><time>2026-03-22T11:28:37.082Z</time></trkpt><trkpt lat="43.9313249" lon="11.2385197"><ele>431.0</ele><time>2026-03-22T11:28:39.063Z</time></trkpt><trkpt lat="43.9314147" lon="11.2385081"><ele>432.0</ele><time>2026-03-22T11:28:41.052Z</time></trkpt><trkpt lat="43.9314902" lon="11.2385251"><ele>432.99999999999994</ele><time>2026-03-22T11:28:43.066Z</time></trkpt><trkpt lat="43.9315571" lon="11.2385609"><ele>434.0</ele><time>2026-03-22T11:28:45.071Z</time></trkpt><trkpt lat="43.9316444" lon="11.238599"><ele>434.0</ele><time>2026-03-22T11:28:47.065Z</time></trkpt><trkpt lat="43.9317169" lon="11.2386426"><ele>434.0</ele><time>2026-03-22T11:28:49.07Z</time></trkpt><trkpt lat="43.931782" lon="11.2386989"><ele>434.0</ele><time>2026-03-22T11:28:51.063Z</time></trkpt><trkpt lat="43.9318387" lon="11.2387582"><ele>434.0</ele><time>2026-03-22T11:28:53.059Z</time></trkpt><trkpt lat="43.9319094" lon="11.2387926"><ele>434.0</ele><time>2026-03-22T11:28:55.064Z</time></trkpt><trkpt lat="43.9319811" lon="11.2387995"><ele>434.0</ele><time>2026-03-22T11:28:57.055Z</time></trkpt><trkpt lat="43.932047" lon="11.2387978"><ele>434.0</ele><time>2026-03-22T11:28:59.003Z</time></trkpt><trkpt lat="43.9321396" lon="11.238794"><ele>434.3333333333333</ele><time>2026-03-22T11:29:02.071Z</time></trkpt><trkpt lat="43.932236" lon="11.238781"><ele>434.66666666666663</ele><time>2026-03-22T11:29:04.967Z</time></trkpt><trkpt lat="43.9323196" lon="11.2387726"><ele>435.0</ele><time>2026-03-22T11:29:07.06Z</time></trkpt><trkpt lat="43.9323905" lon="11.2387639"><ele>435.33333333333337</ele><time>2026-03-22T11:29:09.062Z</time></trkpt><trkpt lat="43.9324573" lon="11.2387713"><ele>435.6666666666667</ele><time>2026-03-22T11:29:11.002Z</time></trkpt><trkpt lat="43.9325393" lon="11.2388309"><ele>436.0</ele><time>2026-03-22T11:29:13.043Z</time></trkpt><trkpt lat="43.9326073" lon="11.2389024"><ele>439.33333333333337</ele><time>2026-03-22T11:29:15.076Z</time></trkpt><trkpt lat="43.9326689" lon="11.2389722"><ele>442.6666666666667</ele><time>2026-03-22T11:29:17.052Z</time></trkpt><trkpt lat="43.9327312" lon="11.2390219"><ele>446.0</ele><time>2026-03-22T11:29:18.962Z</time></trkpt><trkpt lat="43.9328039" lon="11.2390044"><ele>449.33333333333337</ele><time>2026-03-22T11:29:21.059Z</time></trkpt><trkpt lat="43.9328841" lon="11.2390106"><ele>452.6666666666667</ele><time>2026-03-22T11:29:23.05Z</time></trkpt><trkpt lat="43.9329567" lon="11.2390197"><ele>456.0</ele><time>2026-03-22T11:29:25.079Z</time></trkpt><trkpt lat="43.9330378" lon="11.239021"><ele>456.0</ele><time>2026-03-22T11:29:28.067Z</time></trkpt><trkpt lat="43.9331229" lon="11.2390076"><ele>456.0</ele><time>2026-03-22T11:29:31.055Z</time></trkpt><trkpt lat="43.9332008" lon="11.2389675"><ele>456.0</ele><time>2026-03-22T11:29:33.052Z</time></trkpt><trkpt lat="43.9332718" lon="11.2389219"><ele>456.0</ele><time>2026-03-22T11:29:35.059Z</time></trkpt><trkpt lat="43.9333428" lon="11.2388772"><ele>456.0</ele><time>2026-03-22T11:29:37.059Z</time></trkpt><trkpt lat="43.9334063" lon="11.2388368"><ele>456.0</ele><time>2026-03-22T11:29:39.052Z</time></trkpt><trkpt lat="43.933493" lon="11.2388278"><ele>456.5</ele><time>2026-03-22T11:29:42.062Z</time></trkpt><trkpt lat="43.9335556" lon="11.2388442"><ele>457.0</ele><time>2026-03-22T11:29:44.055Z</time></trkpt><trkpt lat="43.9336391" lon="11.2388962"><ele>457.5</ele><time>2026-03-22T11:29:47.053Z</time></trkpt><trkpt lat="43.9337192" lon="11.2389421"><ele>458.0</ele><time>2026-03-22T11:29:51.063Z</time></trkpt><trkpt lat="43.9338023" lon="11.238969"><ele>458.5</ele><time>2026-03-22T11:29:54.056Z</time></trkpt><trkpt lat="43.933883" lon="11.2389855"><ele>459.0</ele><time>2026-03-22T11:29:57.066Z</time></trkpt><trkpt lat="43.9339616" lon="11.2390096"><ele>459.0</ele><time>2026-03-22T11:30:00.052Z</time></trkpt><trkpt lat="43.9340321" lon="11.2390402"><ele>459.0</ele><time>2026-03-22T11:30:03.051Z</time></trkpt><trkpt lat="43.9341015" lon="11.2390624"><ele>459.0</ele><time>2026-03-22T11:30:06.068Z</time></trkpt><trkpt lat="43.9341711" lon="11.239078"><ele>459.0</ele><time>2026-03-22T11:30:09.067Z</time></trkpt><trkpt lat="43.9342391" lon="11.2390805"><ele>459.0</ele><time>2026-03-22T11:30:11.065Z</time></trkpt><trkpt lat="43.9343305" lon="11.239072"><ele>459.0</ele><time>2026-03-22T11:30:13.057Z</time></trkpt><trkpt lat="43.9343983" lon="11.2390641"><ele>459.0</ele><time>2026-03-22T11:30:15.056Z</time></trkpt><trkpt lat="43.9344847" lon="11.2390487"><ele>460.0</ele><time>2026-03-22T11:30:18.067Z</time></trkpt><trkpt lat="43.9345461" lon="11.2390234"><ele>461.0</ele><time>2026-03-22T11:30:21.062Z</time></trkpt><trkpt lat="43.9346102" lon="11.239017"><ele>462.0</ele><time>2026-03-22T11:30:24.059Z</time></trkpt><trkpt lat="43.9347014" lon="11.2390109"><ele>463.0</ele><time>2026-03-22T11:30:27.061Z</time></trkpt><trkpt lat="43.9347884" lon="11.2390347"><ele>464.0</ele><time>2026-03-22T11:30:30.051Z</time></trkpt><trkpt lat="43.9348716" lon="11.2390649"><ele>465.0</ele><time>2026-03-22T11:30:33.057Z</time></trkpt><trkpt lat="43.9349704" lon="11.2390905"><ele>466.1666666666667</ele><time>2026-03-22T11:30:36.072Z</time></trkpt><trkpt lat="43.9350552" lon="11.2391155"><ele>467.33333333333337</ele><time>2026-03-22T11:30:38.067Z</time></trkpt><trkpt lat="43.9351463" lon="11.2391398"><ele>468.5</ele><time>2026-03-22T11:30:40.06Z</time></trkpt><trkpt lat="43.9352177" lon="11.2391508"><ele>469.6666666666667</ele><time>2026-03-22T11:30:42.066Z</time></trkpt><trkpt lat="43.9352999" lon="11.2391718"><ele>470.83333333333337</ele><time>2026-03-22T11:30:44.059Z</time></trkpt><trkpt lat="43.9353863" lon="11.2391868"><ele>472.0</ele><time>2026-03-22T11:30:46.052Z</time></trkpt><trkpt lat="43.9354722" lon="11.2391685"><ele>472.00000000000006</ele><time>2026-03-22T11:30:48.059Z</time></trkpt><trkpt lat="43.9355365" lon="11.2391543"><ele>472.0</ele><time>2026-03-22T11:30:50.059Z</time></trkpt><trkpt lat="43.9356177" lon="11.2391426"><ele>472.0</ele><time>2026-03-22T11:30:53.019Z</time></trkpt><trkpt lat="43.9356976" lon="11.23914"><ele>472.0</ele><time>2026-03-22T11:30:56.059Z</time></trkpt><trkpt lat="43.935775" lon="11.2391219"><ele>472.00000000000006</ele><time>2026-03-22T11:30:58.068Z</time></trkpt><trkpt lat="43.9358509" lon="11.2391167"><ele>472.0</ele><time>2026-03-22T11:31:00.057Z</time></trkpt><trkpt lat="43.9359293" lon="11.2391221"><ele>471.6666666666667</ele><time>2026-03-22T11:31:02.068Z</time></trkpt><trkpt lat="43.9360126" lon="11.239134"><ele>471.33333333333337</ele><time>2026-03-22T11:31:04.061Z</time></trkpt><trkpt lat="43.9360758" lon="11.2391236"><ele>471.0</ele><time>2026-03-22T11:31:06.083Z</time></trkpt><trkpt lat="43.9361588" lon="11.2391164"><ele>470.66666666666663</ele><time>2026-03-22T11:31:08.062Z</time></trkpt><trkpt lat="43.9362376" lon="11.2390981"><ele>470.3333333333333</ele><time>2026-03-22T11:31:10.065Z</time></trkpt><trkpt lat="43.9363206" lon="11.239071"><ele>470.0</ele><time>2026-03-22T11:31:12.064Z</time></trkpt><trkpt lat="43.9364067" lon="11.2390491"><ele>470.0</ele><time>2026-03-22T11:31:14.052Z</time></trkpt><trkpt lat="43.9364892" lon="11.2390407"><ele>469.99999999999994</ele><time>2026-03-22T11:31:16.069Z</time></trkpt><trkpt lat="43.9365546" lon="11.2390412"><ele>470.0</ele><time>2026-03-22T11:31:18.066Z</time></trkpt><trkpt lat="43.9366182" lon="11.2390444"><ele>470.0</ele><time>2026-03-22T11:31:20.06Z</time></trkpt><trkpt lat="43.9366853" lon="11.2390344"><ele>469.99999999999994</ele><time>2026-03-22T11:31:22.069Z</time></trkpt><trkpt lat="43.9367612" lon="11.2390174"><ele>470.0</ele><time>2026-03-22T11:31:24.06Z</time></trkpt><trkpt lat="43.9368345" lon="11.2389873"><ele>470.0</ele><time>2026-03-22T11:31:26.059Z</time></trkpt><trkpt lat="43.9369244" lon="11.2389433"><ele>469.66666666666663</ele><time>2026-03-22T11:31:29.066Z</time></trkpt><trkpt lat="43.9369848" lon="11.2389161"><ele>469.3333333333333</ele><time>2026-03-22T11:31:31.062Z</time></trkpt><trkpt lat="43.9370729" lon="11.2388719"><ele>469.0</ele><time>2026-03-22T11:31:34.069Z</time></trkpt><trkpt lat="43.9371356" lon="11.2388405"><ele>468.66666666666663</ele><time>2026-03-22T11:31:36.065Z</time></trkpt><trkpt lat="43.9371988" lon="11.2387902"><ele>468.3333333333333</ele><time>2026-03-22T11:31:38.062Z</time></trkpt><trkpt lat="43.9372521" lon="11.238727"><ele>468.0</ele><time>2026-03-22T11:31:41.053Z</time></trkpt><trkpt lat="43.9373031" lon="11.2386339"><ele>468.0</ele><time>2026-03-22T11:31:50.061Z</time></trkpt><trkpt lat="43.9373028" lon="11.2385461"><ele>468.00000000000006</ele><time>2026-03-22T11:31:53.064Z</time></trkpt><trkpt lat="43.9372769" lon="11.2384651"><ele>468.0</ele><time>2026-03-22T11:31:56.051Z</time></trkpt><trkpt lat="43.9372444" lon="11.2383682"><ele>468.0</ele><time>2026-03-22T11:32:00.054Z</time></trkpt><trkpt lat="43.9372136" lon="11.2382919"><ele>468.00000000000006</ele><time>2026-03-22T11:32:03.065Z</time></trkpt><trkpt lat="43.9371879" lon="11.2381946"><ele>468.0</ele><time>2026-03-22T11:32:07.069Z</time></trkpt><trkpt lat="43.9372197" lon="11.2380798"><ele>468.0</ele><time>2026-03-22T11:32:11.061Z</time></trkpt><trkpt lat="43.9372701" lon="11.2380011"><ele>469.7142857142857</ele><time>2026-03-22T11:32:14.071Z</time></trkpt><trkpt lat="43.9373323" lon="11.237959"><ele>471.42857142857144</ele><time>2026-03-22T11:32:32.068Z</time></trkpt><trkpt lat="43.9373962" lon="11.2380006"><ele>473.14285714285717</ele><time>2026-03-22T11:32:36.068Z</time></trkpt><trkpt lat="43.9374678" lon="11.2380052"><ele>474.8571428571429</ele><time>2026-03-22T11:32:40.094Z</time></trkpt><trkpt lat="43.9375411" lon="11.2379949"><ele>476.57142857142856</ele><time>2026-03-22T11:32:44.059Z</time></trkpt><trkpt lat="43.9376188" lon="11.2380081"><ele>478.28571428571433</ele><time>2026-03-22T11:32:51.069Z</time></trkpt><trkpt lat="43.9376824" lon="11.2379916"><ele>480.0</ele><time>2026-03-22T11:32:55.066Z</time></trkpt><trkpt lat="43.9377566" lon="11.2379681"><ele>481.42857142857144</ele><time>2026-03-22T11:33:06.085Z</time></trkpt><trkpt lat="43.9378188" lon="11.237931"><ele>482.85714285714283</ele><time>2026-03-22T11:33:31.079Z</time></trkpt><trkpt lat="43.9378869" lon="11.2379192"><ele>484.2857142857143</ele><time>2026-03-22T11:33:35.072Z</time></trkpt><trkpt lat="43.9379611" lon="11.2378907"><ele>485.7142857142857</ele><time>2026-03-22T11:33:39.074Z</time></trkpt><trkpt lat="43.9380336" lon="11.2378673"><ele>487.1428571428571</ele><time>2026-03-22T11:33:43.062Z</time></trkpt><trkpt lat="43.9381122" lon="11.2378478"><ele>488.57142857142856</ele><time>2026-03-22T11:33:47.067Z</time></trkpt><trkpt lat="43.938182" lon="11.2378188"><ele>490.0</ele><time>2026-03-22T11:33:51.085Z</time></trkpt><trkpt lat="43.938236" lon="11.2377726"><ele>490.00000000000006</ele><time>2026-03-22T11:33:54.068Z</time></trkpt><trkpt lat="43.9382954" lon="11.2376929"><ele>490.0</ele><time>2026-03-22T11:33:58.077Z</time></trkpt><trkpt lat="43.938363" lon="11.2376167"><ele>490.0</ele><time>2026-03-22T11:34:02.064Z</time></trkpt><trkpt lat="43.9384486" lon="11.237556"><ele>490.0</ele><time>2026-03-22T11:34:05.103Z</time></trkpt><trkpt lat="43.938531" lon="11.2375201"><ele>490.00000000000006</ele><time>2026-03-22T11:34:08.057Z</time></trkpt><trkpt lat="43.9385992" lon="11.2375461"><ele>490.0</ele><time>2026-03-22T11:34:11.14Z</time></trkpt><trkpt lat="43.93863" lon="11.2376495"><ele>491.33333333333337</ele><time>2026-03-22T11:34:14.057Z</time></trkpt><trkpt lat="43.9386436" lon="11.2377701"><ele>492.6666666666667</ele><time>2026-03-22T11:34:17.065Z</time></trkpt><trkpt lat="43.9386718" lon="11.2378777"><ele>494.0</ele><time>2026-03-22T11:34:20.056Z</time></trkpt><trkpt lat="43.9387107" lon="11.2379794"><ele>495.33333333333337</ele><time>2026-03-22T11:34:23.072Z</time></trkpt><trkpt lat="43.9387489" lon="11.2380595"><ele>496.6666666666667</ele><time>2026-03-22T11:34:26.072Z</time></trkpt><trkpt lat="43.9387933" lon="11.2381531"><ele>498.0</ele><time>2026-03-22T11:34:29.077Z</time></trkpt><trkpt lat="43.9388453" lon="11.2382544"><ele>498.0</ele><time>2026-03-22T11:34:32.086Z</time></trkpt><trkpt lat="43.9388855" lon="11.2383262"><ele>497.99999999999994</ele><time>2026-03-22T11:34:34.082Z</time></trkpt><trkpt lat="43.9389356" lon="11.2383942"><ele>498.0</ele><time>2026-03-22T11:34:36.078Z</time></trkpt><trkpt lat="43.9389806" lon="11.2384562"><ele>498.0</ele><time>2026-03-22T11:34:38.087Z</time></trkpt><trkpt lat="43.939029" lon="11.2385173"><ele>497.99999999999994</ele><time>2026-03-22T11:34:40.078Z</time></trkpt><trkpt lat="43.9390972" lon="11.2386095"><ele>498.0</ele><time>2026-03-22T11:34:43.08Z</time></trkpt><trkpt lat="43.9391441" lon="11.2386694"><ele>498.0</ele><time>2026-03-22T11:34:45.086Z</time></trkpt><trkpt lat="43.9392138" lon="11.2387512"><ele>497.6666666666667</ele><time>2026-03-22T11:34:48.071Z</time></trkpt><trkpt lat="43.9392773" lon="11.2388047"><ele>497.33333333333337</ele><time>2026-03-22T11:34:51.072Z</time></trkpt><trkpt lat="43.9393556" lon="11.2388648"><ele>497.0</ele><time>2026-03-22T11:34:54.074Z</time></trkpt><trkpt lat="43.9394337" lon="11.2389241"><ele>496.6666666666667</ele><time>2026-03-22T11:34:57.076Z</time></trkpt><trkpt lat="43.9395055" lon="11.2389812"><ele>496.33333333333337</ele><time>2026-03-22T11:35:00.061Z</time></trkpt><trkpt lat="43.9395867" lon="11.2390094"><ele>496.0</ele><time>2026-03-22T11:35:03.07Z</time></trkpt><trkpt lat="43.9396644" lon="11.2389488"><ele>498.00000000000006</ele><time>2026-03-22T11:35:06.087Z</time></trkpt><trkpt lat="43.939714" lon="11.2388721"><ele>500.0</ele><time>2026-03-22T11:35:09.077Z</time></trkpt><trkpt lat="43.9397183" lon="11.2387685"><ele>502.0</ele><time>2026-03-22T11:35:12.059Z</time></trkpt><trkpt lat="43.9397489" lon="11.2386697"><ele>504.0</ele><time>2026-03-22T11:35:15.075Z</time></trkpt><trkpt lat="43.9397633" lon="11.2385642"><ele>506.00000000000006</ele><time>2026-03-22T11:35:18.077Z</time></trkpt><trkpt lat="43.9397391" lon="11.2384383"><ele>508.0</ele><time>2026-03-22T11:35:21.071Z</time></trkpt><trkpt lat="43.939707" lon="11.2383197"><ele>508.00000000000006</ele><time>2026-03-22T11:35:24.072Z</time></trkpt><trkpt lat="43.9396927" lon="11.2381974"><ele>508.0</ele><time>2026-03-22T11:35:27.071Z</time></trkpt><trkpt lat="43.9396907" lon="11.2380727"><ele>508.0</ele><time>2026-03-22T11:35:30.072Z</time></trkpt><trkpt lat="43.9396929" lon="11.2379599"><ele>508.0</ele><time>2026-03-22T11:35:33.086Z</time></trkpt><trkpt lat="43.9397001" lon="11.2378513"><ele>508.00000000000006</ele><time>2026-03-22T11:35:36.066Z</time></trkpt><trkpt lat="43.9397208" lon="11.2377651"><ele>508.0</ele><time>2026-03-22T11:35:39.074Z</time></trkpt><trkpt lat="43.9397592" lon="11.2376932"><ele>509.83333333333337</ele><time>2026-03-22T11:36:15.065Z</time></trkpt><trkpt lat="43.939783" lon="11.2375944"><ele>511.6666666666667</ele><time>2026-03-22T11:36:38.081Z</time></trkpt><trkpt lat="43.9398049" lon="11.2375059"><ele>513.5</ele><time>2026-03-22T11:36:41.059Z</time></trkpt><trkpt lat="43.9398244" lon="11.2374019"><ele>515.3333333333334</ele><time>2026-03-22T11:36:44.061Z</time></trkpt><trkpt lat="43.9398216" lon="11.2372864"><ele>517.1666666666666</ele><time>2026-03-22T11:36:47.07Z</time></trkpt><trkpt lat="43.9398078" lon="11.2371745"><ele>519.0</ele><time>2026-03-22T11:36:50.073Z</time></trkpt><trkpt lat="43.9398186" lon="11.2370588"><ele>519.0</ele><time>2026-03-22T11:36:53.054Z</time></trkpt><trkpt lat="43.9398343" lon="11.236955"><ele>519.0</ele><time>2026-03-22T11:36:56.072Z</time></trkpt><trkpt lat="43.9398748" lon="11.2368557"><ele>519.0</ele><time>2026-03-22T11:36:59.08Z</time></trkpt><trkpt lat="43.9399343" lon="11.2367998"><ele>519.0</ele><time>2026-03-22T11:37:13.063Z</time></trkpt><trkpt lat="43.939868" lon="11.2367228"><ele>519.0</ele><time>2026-03-22T11:39:37.074Z</time></trkpt><trkpt lat="43.9397926" lon="11.2366755"><ele>519.0</ele><time>2026-03-22T11:39:40.067Z</time></trkpt><trkpt lat="43.939721" lon="11.2366408"><ele>519.0</ele><time>2026-03-22T11:39:43.076Z</time></trkpt><trkpt lat="43.9396527" lon="11.2365983"><ele>519.0</ele><time>2026-03-22T11:39:47.075Z</time></trkpt><trkpt lat="43.9396098" lon="11.2365316"><ele>519.0</ele><time>2026-03-22T11:39:51.06Z</time></trkpt><trkpt lat="43.9395657" lon="11.236447"><ele>519.0</ele><time>2026-03-22T11:39:56.055Z</time></trkpt><trkpt lat="43.939527" lon="11.2363539"><ele>519.0</ele><time>2026-03-22T11:40:00.053Z</time></trkpt><trkpt lat="43.9394776" lon="11.236271"><ele>519.0</ele><time>2026-03-22T11:40:04.066Z</time></trkpt><trkpt lat="43.9394128" lon="11.2362239"><ele>519.0</ele><time>2026-03-22T11:40:08.061Z</time></trkpt><trkpt lat="43.9393448" lon="11.2361653"><ele>517.7142857142857</ele><time>2026-03-22T11:40:12.057Z</time></trkpt><trkpt lat="43.9392902" lon="11.2360826"><ele>516.4285714285713</ele><time>2026-03-22T11:40:16.069Z</time></trkpt><trkpt lat="43.9392451" lon="11.2360007"><ele>515.1428571428571</ele><time>2026-03-22T11:40:21.076Z</time></trkpt><trkpt lat="43.9392089" lon="11.2359247"><ele>513.8571428571429</ele><time>2026-03-22T11:40:25.069Z</time></trkpt><trkpt lat="43.9391689" lon="11.2358504"><ele>512.5714285714287</ele><time>2026-03-22T11:40:29.068Z</time></trkpt><trkpt lat="43.9391148" lon="11.2357667"><ele>511.28571428571433</ele><time>2026-03-22T11:40:33.068Z</time></trkpt><trkpt lat="43.9390464" lon="11.2357344"><ele>510.0</ele><time>2026-03-22T11:40:36.074Z</time></trkpt><trkpt lat="43.9389666" lon="11.2357036"><ele>510.0</ele><time>2026-03-22T11:40:40.065Z</time></trkpt><trkpt lat="43.9388927" lon="11.2356757"><ele>510.00000000000006</ele><time>2026-03-22T11:40:44.076Z</time></trkpt><trkpt lat="43.9388294" lon="11.235649"><ele>510.0</ele><time>2026-03-22T11:40:47.07Z</time></trkpt><trkpt lat="43.9387712" lon="11.2356089"><ele>510.0</ele><time>2026-03-22T11:40:50.048Z</time></trkpt><trkpt lat="43.9387108" lon="11.2355308"><ele>510.00000000000006</ele><time>2026-03-22T11:40:54.058Z</time></trkpt><trkpt lat="43.9386543" lon="11.2354579"><ele>510.0</ele><time>2026-03-22T11:40:58.049Z</time></trkpt><trkpt lat="43.9385843" lon="11.2354554"><ele>510.0</ele><time>2026-03-22T11:41:02.061Z</time></trkpt><trkpt lat="43.9385185" lon="11.2354576"><ele>510.42857142857144</ele><time>2026-03-22T11:41:06.079Z</time></trkpt><trkpt lat="43.9384496" lon="11.2354224"><ele>510.8571428571429</ele><time>2026-03-22T11:41:10.051Z</time></trkpt><trkpt lat="43.9383814" lon="11.23538"><ele>511.28571428571433</ele><time>2026-03-22T11:41:14.076Z</time></trkpt><trkpt lat="43.9383236" lon="11.2353237"><ele>511.7142857142858</ele><time>2026-03-22T11:41:22.071Z</time></trkpt><trkpt lat="43.9382668" lon="11.235248"><ele>512.1428571428571</ele><time>2026-03-22T11:41:26.079Z</time></trkpt><trkpt lat="43.9382171" lon="11.2351909"><ele>512.5714285714287</ele><time>2026-03-22T11:41:29.077Z</time></trkpt><trkpt lat="43.9381614" lon="11.2351277"><ele>513.0</ele><time>2026-03-22T11:41:32.087Z</time></trkpt><trkpt lat="43.9381114" lon="11.2350565"><ele>513.0000000000001</ele><time>2026-03-22T11:41:35.068Z</time></trkpt><trkpt lat="43.9380632" lon="11.2349786"><ele>513.0</ele><time>2026-03-22T11:41:38.062Z</time></trkpt><trkpt lat="43.9380007" lon="11.2349137"><ele>513.0</ele><time>2026-03-22T11:41:41.081Z</time></trkpt><trkpt lat="43.9379455" lon="11.2348661"><ele>513.0</ele><time>2026-03-22T11:41:44.066Z</time></trkpt><trkpt lat="43.9378811" lon="11.2347946"><ele>513.0</ele><time>2026-03-22T11:41:47.07Z</time></trkpt><trkpt lat="43.9378326" lon="11.234733"><ele>513.0000000000001</ele><time>2026-03-22T11:41:50.073Z</time></trkpt><trkpt lat="43.9377757" lon="11.2346581"><ele>513.0</ele><time>2026-03-22T11:41:54.066Z</time></trkpt><trkpt lat="43.9377149" lon="11.2346099"><ele>513.4285714285714</ele><time>2026-03-22T11:41:57.071Z</time></trkpt><trkpt lat="43.937649" lon="11.2345769"><ele>513.8571428571429</ele><time>2026-03-22T11:42:01.074Z</time></trkpt><trkpt lat="43.9375824" lon="11.234529"><ele>514.2857142857142</ele><time>2026-03-22T11:42:05.072Z</time></trkpt><trkpt lat="43.9375229" lon="11.2344778"><ele>514.7142857142858</ele><time>2026-03-22T11:42:10.075Z</time></trkpt><trkpt lat="43.9374623" lon="11.2344305"><ele>515.1428571428571</ele><time>2026-03-22T11:42:14.072Z</time></trkpt><trkpt lat="43.9373988" lon="11.2344196"><ele>515.5714285714286</ele><time>2026-03-22T11:42:18.063Z</time></trkpt><trkpt lat="43.9373319" lon="11.2343808"><ele>516.0</ele><time>2026-03-22T11:42:22.074Z</time></trkpt><trkpt lat="43.9372769" lon="11.2343206"><ele>515.9999999999999</ele><time>2026-03-22T11:42:26.072Z</time></trkpt><trkpt lat="43.9372242" lon="11.2342704"><ele>516.0</ele><time>2026-03-22T11:42:29.073Z</time></trkpt><trkpt lat="43.9371624" lon="11.2342154"><ele>516.0</ele><time>2026-03-22T11:42:33.06Z</time></trkpt><trkpt lat="43.937094" lon="11.2341654"><ele>516.0</ele><time>2026-03-22T11:42:37.065Z</time></trkpt><trkpt lat="43.9370412" lon="11.2341027"><ele>516.0</ele><time>2026-03-22T11:42:40.078Z</time></trkpt><trkpt lat="43.9369816" lon="11.2340488"><ele>515.9999999999999</ele><time>2026-03-22T11:42:43.058Z</time></trkpt><trkpt lat="43.9369244" lon="11.234001"><ele>516.0</ele><time>2026-03-22T11:42:46.076Z</time></trkpt><trkpt lat="43.9368774" lon="11.2339284"><ele>515.8571428571428</ele><time>2026-03-22T11:42:49.072Z</time></trkpt><trkpt lat="43.9368209" lon="11.233885"><ele>515.7142857142857</ele><time>2026-03-22T11:42:52.064Z</time></trkpt><trkpt lat="43.9367538" lon="11.2338164"><ele>515.5714285714286</ele><time>2026-03-22T11:42:56.07Z</time></trkpt><trkpt lat="43.936712" lon="11.2337495"><ele>515.4285714285713</ele><time>2026-03-22T11:42:59.062Z</time></trkpt><trkpt lat="43.9366447" lon="11.2337268"><ele>515.2857142857142</ele><time>2026-03-22T11:44:00.086Z</time></trkpt><trkpt lat="43.9365806" lon="11.2336737"><ele>515.1428571428571</ele><time>2026-03-22T11:44:03.063Z</time></trkpt><trkpt lat="43.9365036" lon="11.2336234"><ele>515.0</ele><time>2026-03-22T11:44:06.066Z</time></trkpt><trkpt lat="43.9364356" lon="11.233602"><ele>515.0</ele><time>2026-03-22T11:44:09.069Z</time></trkpt><trkpt lat="43.9363874" lon="11.2335328"><ele>515.0</ele><time>2026-03-22T11:44:13.068Z</time></trkpt><trkpt lat="43.9363517" lon="11.2334544"><ele>515.0</ele><time>2026-03-22T11:44:16.066Z</time></trkpt><trkpt lat="43.9362869" lon="11.2334315"><ele>515.0</ele><time>2026-03-22T11:44:19.055Z</time></trkpt><trkpt lat="43.9362137" lon="11.233426"><ele>515.0</ele><time>2026-03-22T11:44:23.074Z</time></trkpt><trkpt lat="43.9361449" lon="11.2333997"><ele>515.0</ele><time>2026-03-22T11:44:27.057Z</time></trkpt><trkpt lat="43.9360867" lon="11.2333243"><ele>515.0</ele><time>2026-03-22T11:44:32.066Z</time></trkpt><trkpt lat="43.9360314" lon="11.2332806"><ele>515.0</ele><time>2026-03-22T11:44:36.07Z</time></trkpt><trkpt lat="43.9359716" lon="11.23325"><ele>515.0</ele><time>2026-03-22T11:44:40.06Z</time></trkpt><trkpt lat="43.9358849" lon="11.2332141"><ele>515.0</ele><time>2026-03-22T11:44:45.06Z</time></trkpt><trkpt lat="43.9358207" lon="11.2331975"><ele>515.0</ele><time>2026-03-22T11:44:48.068Z</time></trkpt><trkpt lat="43.9357599" lon="11.2331743"><ele>515.0</ele><time>2026-03-22T11:44:51.064Z</time></trkpt><trkpt lat="43.9356913" lon="11.233123"><ele>515.0</ele><time>2026-03-22T11:44:55.06Z</time></trkpt><trkpt lat="43.9356263" lon="11.2330728"><ele>515.0</ele><time>2026-03-22T11:44:59.047Z</time></trkpt><trkpt lat="43.9355598" lon="11.2330252"><ele>515.4285714285714</ele><time>2026-03-22T11:45:03.053Z</time></trkpt><trkpt lat="43.9355151" lon="11.2329528"><ele>515.8571428571429</ele><time>2026-03-22T11:45:07.053Z</time></trkpt><trkpt lat="43.9354663" lon="11.232889"><ele>516.2857142857142</ele><time>2026-03-22T11:45:11.059Z</time></trkpt><trkpt lat="43.9354028" lon="11.2328293"><ele>516.7142857142858</ele><time>2026-03-22T11:45:15.047Z</time></trkpt><trkpt lat="43.9353411" lon="11.2327577"><ele>517.1428571428571</ele><time>2026-03-22T11:45:19.052Z</time></trkpt><trkpt lat="43.9353217" lon="11.2326589"><ele>517.5714285714286</ele><time>2026-03-22T11:45:23.069Z</time></trkpt><trkpt lat="43.9352927" lon="11.2325583"><ele>518.0</ele><time>2026-03-22T11:45:27.05Z</time></trkpt><trkpt lat="43.9352289" lon="11.2324879"><ele>518.0</ele><time>2026-03-22T11:45:31.058Z</time></trkpt><trkpt lat="43.935172" lon="11.2324432"><ele>518.0</ele><time>2026-03-22T11:45:34.068Z</time></trkpt><trkpt lat="43.9350997" lon="11.232409"><ele>518.0</ele><time>2026-03-22T11:45:38.076Z</time></trkpt><trkpt lat="43.9350347" lon="11.2323739"><ele>518.0</ele><time>2026-03-22T11:45:41.072Z</time></trkpt><trkpt lat="43.9349682" lon="11.2323465"><ele>518.0</ele><time>2026-03-22T11:45:45.068Z</time></trkpt><trkpt lat="43.9348997" lon="11.2323331"><ele>518.0</ele><time>2026-03-22T11:45:48.059Z</time></trkpt><trkpt lat="43.9348186" lon="11.2323234"><ele>518.0</ele><time>2026-03-22T11:45:52.056Z</time></trkpt><trkpt lat="43.9347437" lon="11.2322949"><ele>518.8571428571429</ele><time>2026-03-22T11:45:56.073Z</time></trkpt><trkpt lat="43.9346679" lon="11.2322581"><ele>519.7142857142858</ele><time>2026-03-22T11:46:00.06Z</time></trkpt><trkpt lat="43.9346048" lon="11.2322191"><ele>520.5714285714286</ele><time>2026-03-22T11:46:04.082Z</time></trkpt><trkpt lat="43.9345411" lon="11.2321746"><ele>521.4285714285714</ele><time>2026-03-22T11:46:08.065Z</time></trkpt><trkpt lat="43.9344699" lon="11.2321274"><ele>522.2857142857143</ele><time>2026-03-22T11:46:12.064Z</time></trkpt><trkpt lat="43.9343972" lon="11.2321072"><ele>523.1428571428571</ele><time>2026-03-22T11:46:17.067Z</time></trkpt><trkpt lat="43.9343571" lon="11.2320253"><ele>524.0</ele><time>2026-03-22T11:46:22.079Z</time></trkpt><trkpt lat="43.9343202" lon="11.2319528"><ele>524.0</ele><time>2026-03-22T11:46:26.069Z</time></trkpt><trkpt lat="43.9342618" lon="11.2319047"><ele>524.0</ele><time>2026-03-22T11:46:31.056Z</time></trkpt><trkpt lat="43.9342998" lon="11.2318342"><ele>524.0</ele><time>2026-03-22T11:50:16.06Z</time></trkpt><trkpt lat="43.9342789" lon="11.2317508"><ele>524.0</ele><time>2026-03-22T11:50:28.058Z</time></trkpt><trkpt lat="43.9342133" lon="11.2317127"><ele>524.0</ele><time>2026-03-22T11:50:32.068Z</time></trkpt><trkpt lat="43.9341418" lon="11.231664"><ele>524.0</ele><time>2026-03-22T11:50:37.065Z</time></trkpt><trkpt lat="43.9340698" lon="11.2316208"><ele>524.0</ele><time>2026-03-22T11:50:42.067Z</time></trkpt><trkpt lat="43.9340088" lon="11.2315814"><ele>524.5714285714286</ele><time>2026-03-22T11:50:46.078Z</time></trkpt><trkpt lat="43.9339338" lon="11.2315399"><ele>525.1428571428572</ele><time>2026-03-22T11:50:51.067Z</time></trkpt><trkpt lat="43.9338778" lon="11.2314838"><ele>525.7142857142858</ele><time>2026-03-22T11:50:55.064Z</time></trkpt><trkpt lat="43.9338519" lon="11.2313843"><ele>526.2857142857143</ele><time>2026-03-22T11:50:59.061Z</time></trkpt><trkpt lat="43.9338001" lon="11.2312984"><ele>526.8571428571429</ele><time>2026-03-22T11:51:03.055Z</time></trkpt><trkpt lat="43.9337474" lon="11.2312467"><ele>527.4285714285714</ele><time>2026-03-22T11:51:06.071Z</time></trkpt><trkpt lat="43.9336871" lon="11.2311971"><ele>528.0</ele><time>2026-03-22T11:51:09.071Z</time></trkpt><trkpt lat="43.9336187" lon="11.2311775"><ele>528.0</ele><time>2026-03-22T11:51:12.074Z</time></trkpt><trkpt lat="43.9335479" lon="11.2311768"><ele>528.0</ele><time>2026-03-22T11:51:15.052Z</time></trkpt><trkpt lat="43.9334761" lon="11.231183"><ele>528.0</ele><time>2026-03-22T11:51:18.069Z</time></trkpt><trkpt lat="43.9334104" lon="11.2311658"><ele>528.0</ele><time>2026-03-22T11:51:21.073Z</time></trkpt><trkpt lat="43.9333496" lon="11.2311141"><ele>528.0</ele><time>2026-03-22T11:51:24.079Z</time></trkpt><trkpt lat="43.9332813" lon="11.2311005"><ele>528.0</ele><time>2026-03-22T11:51:27.06Z</time></trkpt><trkpt lat="43.9332115" lon="11.231084"><ele>528.0</ele><time>2026-03-22T11:51:30.079Z</time></trkpt><trkpt lat="43.9331455" lon="11.2310668"><ele>527.7142857142857</ele><time>2026-03-22T11:51:33.067Z</time></trkpt><trkpt lat="43.9330781" lon="11.2310452"><ele>527.4285714285714</ele><time>2026-03-22T11:51:36.073Z</time></trkpt><trkpt lat="43.9330135" lon="11.2310284"><ele>527.1428571428571</ele><time>2026-03-22T11:51:39.072Z</time></trkpt><trkpt lat="43.9329434" lon="11.2310029"><ele>526.8571428571429</ele><time>2026-03-22T11:53:52.063Z</time></trkpt><trkpt lat="43.9328814" lon="11.2309868"><ele>526.5714285714286</ele><time>2026-03-22T11:53:57.073Z</time></trkpt><trkpt lat="43.9328133" lon="11.2309727"><ele>526.2857142857142</ele><time>2026-03-22T11:54:01.059Z</time></trkpt><trkpt lat="43.9327391" lon="11.2309605"><ele>526.0</ele><time>2026-03-22T11:54:05.071Z</time></trkpt><trkpt lat="43.9326817" lon="11.2309202"><ele>526.0</ele><time>2026-03-22T11:54:08.062Z</time></trkpt><trkpt lat="43.93263" lon="11.2308648"><ele>526.0</ele><time>2026-03-22T11:54:11.073Z</time></trkpt><trkpt lat="43.9325723" lon="11.2308168"><ele>526.0</ele><time>2026-03-22T11:54:14.069Z</time></trkpt><trkpt lat="43.9325079" lon="11.2307749"><ele>526.0</ele><time>2026-03-22T11:54:17.064Z</time></trkpt><trkpt lat="43.9324419" lon="11.2307488"><ele>526.0</ele><time>2026-03-22T11:54:20.075Z</time></trkpt><trkpt lat="43.9323777" lon="11.2307111"><ele>526.0</ele><time>2026-03-22T11:54:23.068Z</time></trkpt><trkpt lat="43.9323265" lon="11.2306494"><ele>526.0</ele><time>2026-03-22T11:54:26.08Z</time></trkpt><trkpt lat="43.9322574" lon="11.2306032"><ele>524.5</ele><time>2026-03-22T11:54:29.062Z</time></trkpt><trkpt lat="43.9321846" lon="11.2305532"><ele>523.0</ele><time>2026-03-22T11:54:32.065Z</time></trkpt><trkpt lat="43.9321129" lon="11.230505"><ele>521.5</ele><time>2026-03-22T11:54:35.062Z</time></trkpt><trkpt lat="43.9320398" lon="11.2304653"><ele>520.0</ele><time>2026-03-22T11:54:38.067Z</time></trkpt><trkpt lat="43.9319634" lon="11.2304373"><ele>518.5</ele><time>2026-03-22T11:54:41.063Z</time></trkpt><trkpt lat="43.9318928" lon="11.2303819"><ele>517.0</ele><time>2026-03-22T11:54:44.07Z</time></trkpt><trkpt lat="43.9318294" lon="11.2303349"><ele>517.0</ele><time>2026-03-22T11:54:47.063Z</time></trkpt><trkpt lat="43.9317672" lon="11.2302918"><ele>517.0</ele><time>2026-03-22T11:54:50.066Z</time></trkpt><trkpt lat="43.9317079" lon="11.2302406"><ele>517.0</ele><time>2026-03-22T11:54:53.068Z</time></trkpt><trkpt lat="43.9316475" lon="11.2301953"><ele>517.0</ele><time>2026-03-22T11:54:56.065Z</time></trkpt><trkpt lat="43.9315865" lon="11.2301363"><ele>517.0</ele><time>2026-03-22T11:54:59.073Z</time></trkpt><trkpt lat="43.9315328" lon="11.2300827"><ele>517.0</ele><time>2026-03-22T11:55:02.057Z</time></trkpt><trkpt lat="43.9314812" lon="11.2300077"><ele>517.0</ele><time>2026-03-22T11:55:06.076Z</time></trkpt><trkpt lat="43.9314516" lon="11.2298995"><ele>517.1428571428571</ele><time>2026-03-22T11:55:10.073Z</time></trkpt><trkpt lat="43.9314342" lon="11.2298119"><ele>517.2857142857143</ele><time>2026-03-22T11:55:14.073Z</time></trkpt><trkpt lat="43.9314137" lon="11.2297173"><ele>517.4285714285714</ele><time>2026-03-22T11:55:18.071Z</time></trkpt><trkpt lat="43.9313608" lon="11.2296327"><ele>517.5714285714286</ele><time>2026-03-22T11:55:22.074Z</time></trkpt><trkpt lat="43.9313047" lon="11.229575"><ele>517.7142857142858</ele><time>2026-03-22T11:55:26.067Z</time></trkpt><trkpt lat="43.931231" lon="11.2295238"><ele>517.8571428571429</ele><time>2026-03-22T11:55:30.077Z</time></trkpt><trkpt lat="43.9311759" lon="11.2294761"><ele>518.0</ele><time>2026-03-22T11:55:33.065Z</time></trkpt><trkpt lat="43.9311051" lon="11.2294064"><ele>516.0</ele><time>2026-03-22T11:55:37.064Z</time></trkpt><trkpt lat="43.9310623" lon="11.2293406"><ele>514.0</ele><time>2026-03-22T11:55:40.024Z</time></trkpt><trkpt lat="43.9309925" lon="11.2292861"><ele>512.0</ele><time>2026-03-22T11:55:45.066Z</time></trkpt><trkpt lat="43.9309179" lon="11.2292679"><ele>510.0</ele><time>2026-03-22T11:55:49.061Z</time></trkpt><trkpt lat="43.9308466" lon="11.2292291"><ele>508.0</ele><time>2026-03-22T11:55:53.069Z</time></trkpt><trkpt lat="43.9308033" lon="11.2291499"><ele>506.0</ele><time>2026-03-22T11:55:57.066Z</time></trkpt><trkpt lat="43.9307709" lon="11.2290576"><ele>504.0</ele><time>2026-03-22T11:56:01.063Z</time></trkpt><trkpt lat="43.930753" lon="11.2289568"><ele>502.42857142857144</ele><time>2026-03-22T11:56:05.068Z</time></trkpt><trkpt lat="43.9306977" lon="11.2288737"><ele>500.8571428571429</ele><time>2026-03-22T11:56:09.062Z</time></trkpt><trkpt lat="43.9306354" lon="11.2288158"><ele>499.2857142857143</ele><time>2026-03-22T11:56:13.077Z</time></trkpt><trkpt lat="43.930565" lon="11.2287664"><ele>497.7142857142857</ele><time>2026-03-22T11:56:17.068Z</time></trkpt><trkpt lat="43.9305046" lon="11.228739"><ele>496.14285714285717</ele><time>2026-03-22T11:56:20.057Z</time></trkpt><trkpt lat="43.9304443" lon="11.2287127"><ele>494.57142857142856</ele><time>2026-03-22T11:56:23.08Z</time></trkpt><trkpt lat="43.9303687" lon="11.2286719"><ele>493.0</ele><time>2026-03-22T11:56:27.076Z</time></trkpt><trkpt lat="43.9303006" lon="11.2286094"><ele>493.0</ele><time>2026-03-22T11:56:31.074Z</time></trkpt><trkpt lat="43.930254" lon="11.2285461"><ele>493.0</ele><time>2026-03-22T11:56:35.059Z</time></trkpt><trkpt lat="43.9302125" lon="11.2284786"><ele>493.0</ele><time>2026-03-22T11:56:39.068Z</time></trkpt><trkpt lat="43.930163" lon="11.228415"><ele>493.0</ele><time>2026-03-22T11:56:43.081Z</time></trkpt><trkpt lat="43.9301125" lon="11.2283571"><ele>493.0</ele><time>2026-03-22T11:56:46.064Z</time></trkpt><trkpt lat="43.930035" lon="11.2283314"><ele>493.0</ele><time>2026-03-22T11:56:50.076Z</time></trkpt><trkpt lat="43.9299548" lon="11.2283013"><ele>493.0</ele><time>2026-03-22T11:56:54.074Z</time></trkpt><trkpt lat="43.9298981" lon="11.2282179"><ele>493.2857142857143</ele><time>2026-03-22T11:56:58.065Z</time></trkpt><trkpt lat="43.9298627" lon="11.2281448"><ele>493.57142857142856</ele><time>2026-03-22T11:57:01.068Z</time></trkpt><trkpt lat="43.9298088" lon="11.2280917"><ele>493.85714285714283</ele><time>2026-03-22T11:57:05.067Z</time></trkpt><trkpt lat="43.9297494" lon="11.2280413"><ele>494.1428571428571</ele><time>2026-03-22T11:57:08.072Z</time></trkpt><trkpt lat="43.9297111" lon="11.2279455"><ele>494.42857142857144</ele><time>2026-03-22T11:57:12.076Z</time></trkpt><trkpt lat="43.9296904" lon="11.2278409"><ele>494.71428571428567</ele><time>2026-03-22T11:57:16.067Z</time></trkpt><trkpt lat="43.9296358" lon="11.2277527"><ele>494.99999999999994</ele><time>2026-03-22T11:57:20.07Z</time></trkpt><trkpt lat="43.9295738" lon="11.2276843"><ele>494.99999999999994</ele><time>2026-03-22T11:57:23.069Z</time></trkpt><trkpt lat="43.9295226" lon="11.2276248"><ele>495.0</ele><time>2026-03-22T11:57:26.066Z</time></trkpt><trkpt lat="43.9294527" lon="11.2275823"><ele>494.99999999999994</ele><time>2026-03-22T11:57:29.068Z</time></trkpt><trkpt lat="43.9293886" lon="11.2275405"><ele>494.99999999999994</ele><time>2026-03-22T11:57:32.073Z</time></trkpt><trkpt lat="43.9293298" lon="11.2274906"><ele>495.0</ele><time>2026-03-22T11:57:35.068Z</time></trkpt><trkpt lat="43.9292734" lon="11.2274275"><ele>494.99999999999994</ele><time>2026-03-22T11:57:38.063Z</time></trkpt><trkpt lat="43.9292295" lon="11.2273458"><ele>494.99999999999994</ele><time>2026-03-22T11:57:41.073Z</time></trkpt><trkpt lat="43.9291904" lon="11.2272643"><ele>495.99999999999994</ele><time>2026-03-22T11:57:44.081Z</time></trkpt><trkpt lat="43.9291215" lon="11.2272451"><ele>497.0</ele><time>2026-03-22T11:57:47.073Z</time></trkpt><trkpt lat="43.929062" lon="11.2272065"><ele>497.99999999999994</ele><time>2026-03-22T11:57:50.068Z</time></trkpt><trkpt lat="43.9290102" lon="11.227141"><ele>498.99999999999994</ele><time>2026-03-22T11:57:53.08Z</time></trkpt><trkpt lat="43.9289739" lon="11.2270617"><ele>500.0</ele><time>2026-03-22T11:57:56.067Z</time></trkpt><trkpt lat="43.9289311" lon="11.2269882"><ele>500.99999999999994</ele><time>2026-03-22T11:57:59.065Z</time></trkpt><trkpt lat="43.928896" lon="11.2268996"><ele>501.99999999999994</ele><time>2026-03-22T11:58:02.061Z</time></trkpt><trkpt lat="43.9288812" lon="11.2268047"><ele>501.99999999999994</ele><time>2026-03-22T11:58:05.06Z</time></trkpt><trkpt lat="43.9288476" lon="11.2267158"><ele>502.0</ele><time>2026-03-22T11:58:08.069Z</time></trkpt><trkpt lat="43.9287939" lon="11.2266406"><ele>501.99999999999994</ele><time>2026-03-22T11:58:11.074Z</time></trkpt><trkpt lat="43.9287419" lon="11.226575"><ele>501.99999999999994</ele><time>2026-03-22T11:58:14.064Z</time></trkpt><trkpt lat="43.9287059" lon="11.2264755"><ele>502.0</ele><time>2026-03-22T11:58:17.086Z</time></trkpt><trkpt lat="43.9286608" lon="11.2263971"><ele>501.99999999999994</ele><time>2026-03-22T11:58:20.07Z</time></trkpt><trkpt lat="43.9286104" lon="11.2263346"><ele>501.99999999999994</ele><time>2026-03-22T11:58:23.079Z</time></trkpt><trkpt lat="43.9285585" lon="11.2262795"><ele>502.8571428571428</ele><time>2026-03-22T11:58:26.063Z</time></trkpt><trkpt lat="43.9285042" lon="11.2262148"><ele>503.71428571428567</ele><time>2026-03-22T11:58:29.081Z</time></trkpt><trkpt lat="43.9284476" lon="11.2261604"><ele>504.57142857142856</ele><time>2026-03-22T11:58:32.07Z</time></trkpt><trkpt lat="43.928405" lon="11.2260828"><ele>505.4285714285714</ele><time>2026-03-22T11:58:35.069Z</time></trkpt><trkpt lat="43.9283798" lon="11.2259976"><ele>506.2857142857142</ele><time>2026-03-22T11:58:38.059Z</time></trkpt><trkpt lat="43.9283211" lon="11.2259377"><ele>507.14285714285717</ele><time>2026-03-22T11:58:41.075Z</time></trkpt><trkpt lat="43.9282651" lon="11.2258773"><ele>508.0</ele><time>2026-03-22T11:58:44.056Z</time></trkpt><trkpt lat="43.9282437" lon="11.2257805"><ele>508.0</ele><time>2026-03-22T11:58:47.062Z</time></trkpt><trkpt lat="43.9282142" lon="11.2256873"><ele>508.0</ele><time>2026-03-22T11:58:50.057Z</time></trkpt><trkpt lat="43.928153" lon="11.2256394"><ele>508.0</ele><time>2026-03-22T11:58:53.086Z</time></trkpt><trkpt lat="43.9280969" lon="11.2255932"><ele>508.0</ele><time>2026-03-22T11:58:56.06Z</time></trkpt><trkpt lat="43.9280405" lon="11.225539"><ele>508.0</ele><time>2026-03-22T11:58:59.061Z</time></trkpt><trkpt lat="43.9279738" lon="11.2254847"><ele>508.0</ele><time>2026-03-22T11:59:02.074Z</time></trkpt><trkpt lat="43.9279303" lon="11.2254002"><ele>508.0</ele><time>2026-03-22T11:59:05.074Z</time></trkpt><trkpt lat="43.9278835" lon="11.2253353"><ele>507.42857142857144</ele><time>2026-03-22T11:59:08.062Z</time></trkpt><trkpt lat="43.9278339" lon="11.2252733"><ele>506.85714285714283</ele><time>2026-03-22T11:59:11.075Z</time></trkpt><trkpt lat="43.9277772" lon="11.2252104"><ele>506.2857142857143</ele><time>2026-03-22T11:59:14.072Z</time></trkpt><trkpt lat="43.9277233" lon="11.225142"><ele>505.7142857142857</ele><time>2026-03-22T11:59:17.076Z</time></trkpt><trkpt lat="43.9276799" lon="11.2250524"><ele>505.1428571428571</ele><time>2026-03-22T11:59:20.069Z</time></trkpt><trkpt lat="43.9276411" lon="11.2249824"><ele>504.57142857142856</ele><time>2026-03-22T11:59:23.063Z</time></trkpt><trkpt lat="43.9275886" lon="11.224903"><ele>504.0</ele><time>2026-03-22T11:59:26.076Z</time></trkpt><trkpt lat="43.9275493" lon="11.2248216"><ele>506.3333333333333</ele><time>2026-03-22T11:59:30.079Z</time></trkpt><trkpt lat="43.9274975" lon="11.2247347"><ele>508.66666666666663</ele><time>2026-03-22T11:59:34.087Z</time></trkpt><trkpt lat="43.9274501" lon="11.2246478"><ele>511.0</ele><time>2026-03-22T11:59:38.072Z</time></trkpt><trkpt lat="43.9274227" lon="11.2245614"><ele>513.3333333333333</ele><time>2026-03-22T11:59:41.061Z</time></trkpt><trkpt lat="43.9274037" lon="11.2244579"><ele>515.6666666666666</ele><time>2026-03-22T11:59:44.066Z</time></trkpt><trkpt lat="43.9273741" lon="11.2243584"><ele>518.0</ele><time>2026-03-22T11:59:47.081Z</time></trkpt><trkpt lat="43.9273315" lon="11.2242598"><ele>518.0</ele><time>2026-03-22T11:59:50.085Z</time></trkpt><trkpt lat="43.9273053" lon="11.2241581"><ele>518.0</ele><time>2026-03-22T11:59:53.071Z</time></trkpt><trkpt lat="43.9272722" lon="11.2240775"><ele>518.0</ele><time>2026-03-22T11:59:56.067Z</time></trkpt><trkpt lat="43.9272253" lon="11.2239857"><ele>518.0</ele><time>2026-03-22T12:00:00.098Z</time></trkpt><trkpt lat="43.9271835" lon="11.2238907"><ele>518.0</ele><time>2026-03-22T12:00:04.074Z</time></trkpt><trkpt lat="43.9271218" lon="11.2238288"><ele>518.0</ele><time>2026-03-22T12:00:08.073Z</time></trkpt><trkpt lat="43.9270638" lon="11.2237525"><ele>516.7142857142857</ele><time>2026-03-22T12:00:13.068Z</time></trkpt><trkpt lat="43.9270238" lon="11.2236593"><ele>515.4285714285714</ele><time>2026-03-22T12:00:17.071Z</time></trkpt><trkpt lat="43.9269843" lon="11.2235749"><ele>514.1428571428571</ele><time>2026-03-22T12:00:21.081Z</time></trkpt><trkpt lat="43.9269349" lon="11.223487"><ele>512.8571428571429</ele><time>2026-03-22T12:00:25.079Z</time></trkpt><trkpt lat="43.9268868" lon="11.2233997"><ele>511.57142857142856</ele><time>2026-03-22T12:00:29.066Z</time></trkpt><trkpt lat="43.9268636" lon="11.2233086"><ele>510.2857142857142</ele><time>2026-03-22T12:00:33.081Z</time></trkpt><trkpt lat="43.9268553" lon="11.2232203"><ele>508.99999999999994</ele><time>2026-03-22T12:00:37.073Z</time></trkpt><trkpt lat="43.9268211" lon="11.2231385"><ele>506.8571428571428</ele><time>2026-03-22T12:00:50.059Z</time></trkpt><trkpt lat="43.926784" lon="11.2230385"><ele>504.71428571428567</ele><time>2026-03-22T12:04:23.071Z</time></trkpt><trkpt lat="43.9268096" lon="11.222947"><ele>502.57142857142856</ele><time>2026-03-22T12:04:34.06Z</time></trkpt><trkpt lat="43.9268382" lon="11.2228618"><ele>500.4285714285714</ele><time>2026-03-22T12:04:38.072Z</time></trkpt><trkpt lat="43.9268813" lon="11.2227679"><ele>498.2857142857142</ele><time>2026-03-22T12:04:42.068Z</time></trkpt><trkpt lat="43.9269043" lon="11.2226733"><ele>496.14285714285717</ele><time>2026-03-22T12:04:46.056Z</time></trkpt><trkpt lat="43.9269056" lon="11.2225686"><ele>494.0</ele><time>2026-03-22T12:04:50.054Z</time></trkpt><trkpt lat="43.9268861" lon="11.2224833"><ele>494.0</ele><time>2026-03-22T12:04:57.072Z</time></trkpt><trkpt lat="43.9268743" lon="11.2223841"><ele>494.0</ele><time>2026-03-22T12:05:01.066Z</time></trkpt><trkpt lat="43.9268382" lon="11.2223015"><ele>494.0</ele><time>2026-03-22T12:05:05.07Z</time></trkpt><trkpt lat="43.9268079" lon="11.2222176"><ele>494.0</ele><time>2026-03-22T12:05:13.071Z</time></trkpt><trkpt lat="43.9268064" lon="11.2221198"><ele>494.0</ele><time>2026-03-22T12:05:17.061Z</time></trkpt><trkpt lat="43.92674" lon="11.2220795"><ele>494.0</ele><time>2026-03-22T12:05:22.056Z</time></trkpt><trkpt lat="43.9267123" lon="11.2221583"><ele>494.0</ele><time>2026-03-22T12:10:09.09Z</time></trkpt><trkpt lat="43.9267307" lon="11.222242"><ele>477.0</ele><time>2026-03-22T12:11:52.091Z</time></trkpt><trkpt lat="43.9267412" lon="11.222397"><ele>494.0</ele><time>2026-03-22T12:15:09.069Z</time></trkpt></trkseg><trkseg><trkpt lat="43.9266861" lon="11.2220267"><ele>495.7142857142857</ele><time>2026-03-22T14:32:32.155Z</time></trkpt><trkpt lat="43.9267362" lon="11.2220856"><ele>495.42857142857144</ele><time>2026-03-22T14:32:45.15Z</time></trkpt><trkpt lat="43.9267986" lon="11.2221262"><ele>495.14285714285717</ele><time>2026-03-22T14:33:21.182Z</time></trkpt><trkpt lat="43.9268276" lon="11.2222054"><ele>494.8571428571429</ele><time>2026-03-22T14:33:41.135Z</time></trkpt><trkpt lat="43.9268164" lon="11.2222966"><ele>494.57142857142856</ele><time>2026-03-22T14:33:50.143Z</time></trkpt><trkpt lat="43.9268406" lon="11.2223931"><ele>494.28571428571433</ele><time>2026-03-22T14:33:55.142Z</time></trkpt><trkpt lat="43.9268698" lon="11.2225004"><ele>494.0</ele><time>2026-03-22T14:33:59.168Z</time></trkpt><trkpt lat="43.9268969" lon="11.2225862"><ele>494.0</ele><time>2026-03-22T14:34:02.155Z</time></trkpt><trkpt lat="43.9268912" lon="11.222683"><ele>494.0</ele><time>2026-03-22T14:34:05.144Z</time></trkpt><trkpt lat="43.9268913" lon="11.2227811"><ele>494.0</ele><time>2026-03-22T14:34:08.146Z</time></trkpt><trkpt lat="43.9268444" lon="11.2228797"><ele>494.0</ele><time>2026-03-22T14:34:12.153Z</time></trkpt><trkpt lat="43.9268132" lon="11.2229723"><ele>494.0</ele><time>2026-03-22T14:34:16.15Z</time></trkpt><trkpt lat="43.9268147" lon="11.2230733"><ele>494.0</ele><time>2026-03-22T14:34:21.154Z</time></trkpt><trkpt lat="43.9268058" lon="11.2231612"><ele>494.0</ele><time>2026-03-22T14:34:25.14Z</time></trkpt><trkpt lat="43.9268454" lon="11.2232474"><ele>496.14285714285717</ele><time>2026-03-22T14:34:30.129Z</time></trkpt><trkpt lat="43.9268659" lon="11.2233351"><ele>498.2857142857142</ele><time>2026-03-22T14:34:34.149Z</time></trkpt><trkpt lat="43.9267918" lon="11.2233606"><ele>500.4285714285714</ele><time>2026-03-22T14:34:45.152Z</time></trkpt><trkpt lat="43.9267292" lon="11.2233222"><ele>502.57142857142856</ele><time>2026-03-22T14:34:50.149Z</time></trkpt><trkpt lat="43.9266649" lon="11.2233034"><ele>504.71428571428567</ele><time>2026-03-22T14:36:22.136Z</time></trkpt><trkpt lat="43.9265989" lon="11.223304"><ele>506.8571428571428</ele><time>2026-03-22T14:36:27.135Z</time></trkpt><trkpt lat="43.9265358" lon="11.2233146"><ele>508.99999999999994</ele><time>2026-03-22T14:36:31.157Z</time></trkpt><trkpt lat="43.9264707" lon="11.2233077"><ele>509.8571428571428</ele><time>2026-03-22T14:36:35.135Z</time></trkpt><trkpt lat="43.9264015" lon="11.2232927"><ele>510.71428571428567</ele><time>2026-03-22T14:36:40.138Z</time></trkpt><trkpt lat="43.9263328" lon="11.2232914"><ele>511.57142857142856</ele><time>2026-03-22T14:36:45.134Z</time></trkpt><trkpt lat="43.9262708" lon="11.2233409"><ele>512.4285714285713</ele><time>2026-03-22T14:36:50.139Z</time></trkpt><trkpt lat="43.926231" lon="11.2234093"><ele>513.2857142857142</ele><time>2026-03-22T14:36:53.15Z</time></trkpt><trkpt lat="43.9261739" lon="11.2234856"><ele>514.1428571428571</ele><time>2026-03-22T14:36:58.168Z</time></trkpt><trkpt lat="43.9261171" lon="11.223554"><ele>515.0</ele><time>2026-03-22T14:37:02.145Z</time></trkpt><trkpt lat="43.9260935" lon="11.2236444"><ele>515.0</ele><time>2026-03-22T14:37:07.161Z</time></trkpt><trkpt lat="43.9261447" lon="11.2235923"><ele>515.0</ele><time>2026-03-22T14:37:36.157Z</time></trkpt><trkpt lat="43.9261687" lon="11.2234849"><ele>515.0</ele><time>2026-03-22T14:37:40.14Z</time></trkpt><trkpt lat="43.9262147" lon="11.2234008"><ele>515.0</ele><time>2026-03-22T14:37:44.134Z</time></trkpt><trkpt lat="43.9262682" lon="11.2233248"><ele>515.0</ele><time>2026-03-22T14:37:48.148Z</time></trkpt><trkpt lat="43.9263303" lon="11.2232784"><ele>515.0</ele><time>2026-03-22T14:37:52.146Z</time></trkpt><trkpt lat="43.9264051" lon="11.2232928"><ele>515.0</ele><time>2026-03-22T14:37:56.145Z</time></trkpt><trkpt lat="43.9264882" lon="11.2233145"><ele>515.0</ele><time>2026-03-22T14:38:00.145Z</time></trkpt><trkpt lat="43.9265637" lon="11.2233079"><ele>515.0</ele><time>2026-03-22T14:38:04.158Z</time></trkpt><trkpt lat="43.9266396" lon="11.223311"><ele>515.0</ele><time>2026-03-22T14:38:08.142Z</time></trkpt><trkpt lat="43.9267114" lon="11.2233029"><ele>515.0</ele><time>2026-03-22T14:38:12.16Z</time></trkpt><trkpt lat="43.9267609" lon="11.2233634"><ele>515.0</ele><time>2026-03-22T14:38:18.147Z</time></trkpt><trkpt lat="43.9268312" lon="11.2234144"><ele>515.0</ele><time>2026-03-22T14:38:22.155Z</time></trkpt><trkpt lat="43.9268731" lon="11.2234799"><ele>515.0</ele><time>2026-03-22T14:38:26.15Z</time></trkpt><trkpt lat="43.9269086" lon="11.2235674"><ele>515.4285714285714</ele><time>2026-03-22T14:38:31.148Z</time></trkpt><trkpt lat="43.9269435" lon="11.2236429"><ele>515.8571428571429</ele><time>2026-03-22T14:38:35.147Z</time></trkpt><trkpt lat="43.9269812" lon="11.2237143"><ele>516.2857142857142</ele><time>2026-03-22T14:38:39.135Z</time></trkpt><trkpt lat="43.9270198" lon="11.2237964"><ele>516.7142857142858</ele><time>2026-03-22T14:38:43.146Z</time></trkpt><trkpt lat="43.927062" lon="11.2238646"><ele>517.1428571428571</ele><time>2026-03-22T14:38:47.149Z</time></trkpt><trkpt lat="43.9271157" lon="11.2239331"><ele>517.5714285714286</ele><time>2026-03-22T14:38:51.153Z</time></trkpt><trkpt lat="43.9271785" lon="11.2239904"><ele>518.0</ele><time>2026-03-22T14:38:55.14Z</time></trkpt><trkpt lat="43.927213" lon="11.2240674"><ele>518.0</ele><time>2026-03-22T14:38:58.142Z</time></trkpt><trkpt lat="43.9272605" lon="11.2241575"><ele>518.0</ele><time>2026-03-22T14:39:02.154Z</time></trkpt><trkpt lat="43.927293" lon="11.224237"><ele>518.0</ele><time>2026-03-22T14:39:05.159Z</time></trkpt><trkpt lat="43.9273191" lon="11.2243174"><ele>518.0</ele><time>2026-03-22T14:39:08.14Z</time></trkpt><trkpt lat="43.9273426" lon="11.2244001"><ele>518.0</ele><time>2026-03-22T14:39:11.143Z</time></trkpt><trkpt lat="43.9273898" lon="11.2244945"><ele>518.0</ele><time>2026-03-22T14:39:15.147Z</time></trkpt><trkpt lat="43.9274172" lon="11.2245906"><ele>518.0</ele><time>2026-03-22T14:39:19.144Z</time></trkpt><trkpt lat="43.9274436" lon="11.2246946"><ele>518.0</ele><time>2026-03-22T14:39:23.145Z</time></trkpt><trkpt lat="43.9274968" lon="11.2247719"><ele>518.0</ele><time>2026-03-22T14:39:28.138Z</time></trkpt><trkpt lat="43.9275479" lon="11.2248552"><ele>518.0</ele><time>2026-03-22T14:39:32.149Z</time></trkpt><trkpt lat="43.9275892" lon="11.2249249"><ele>518.0</ele><time>2026-03-22T14:39:35.142Z</time></trkpt><trkpt lat="43.927633" lon="11.2250142"><ele>518.0</ele><time>2026-03-22T14:39:38.125Z</time></trkpt><trkpt lat="43.9276837" lon="11.2250778"><ele>518.0</ele><time>2026-03-22T14:39:41.143Z</time></trkpt><trkpt lat="43.9277282" lon="11.2251446"><ele>518.0</ele><time>2026-03-22T14:39:45.135Z</time></trkpt><trkpt lat="43.9277831" lon="11.225215"><ele>516.3333333333333</ele><time>2026-03-22T14:39:50.147Z</time></trkpt><trkpt lat="43.9278272" lon="11.2252799"><ele>514.6666666666666</ele><time>2026-03-22T14:39:53.15Z</time></trkpt><trkpt lat="43.9278821" lon="11.2253609"><ele>513.0</ele><time>2026-03-22T14:39:57.151Z</time></trkpt><trkpt lat="43.9279384" lon="11.2254525"><ele>511.33333333333337</ele><time>2026-03-22T14:40:01.159Z</time></trkpt><trkpt lat="43.9279911" lon="11.2255436"><ele>509.6666666666667</ele><time>2026-03-22T14:40:05.157Z</time></trkpt><trkpt lat="43.9280494" lon="11.225596"><ele>508.0</ele><time>2026-03-22T14:40:09.148Z</time></trkpt><trkpt lat="43.9281181" lon="11.2256547"><ele>508.0</ele><time>2026-03-22T14:40:13.154Z</time></trkpt><trkpt lat="43.9281789" lon="11.2257097"><ele>508.0</ele><time>2026-03-22T14:40:16.147Z</time></trkpt><trkpt lat="43.9282287" lon="11.2257809"><ele>508.0</ele><time>2026-03-22T14:40:19.133Z</time></trkpt><trkpt lat="43.9282413" lon="11.2258791"><ele>508.0</ele><time>2026-03-22T14:40:22.143Z</time></trkpt><trkpt lat="43.9282874" lon="11.2259432"><ele>508.0</ele><time>2026-03-22T14:40:25.151Z</time></trkpt><trkpt lat="43.9283512" lon="11.2259961"><ele>508.0</ele><time>2026-03-22T14:40:28.147Z</time></trkpt><trkpt lat="43.9283994" lon="11.2260888"><ele>508.0</ele><time>2026-03-22T14:40:32.149Z</time></trkpt><trkpt lat="43.9284301" lon="11.2261675"><ele>507.14285714285717</ele><time>2026-03-22T14:40:35.159Z</time></trkpt><trkpt lat="43.9284827" lon="11.2262276"><ele>506.2857142857142</ele><time>2026-03-22T14:40:38.153Z</time></trkpt><trkpt lat="43.9285355" lon="11.2262912"><ele>505.4285714285714</ele><time>2026-03-22T14:40:41.139Z</time></trkpt><trkpt lat="43.9285951" lon="11.2263598"><ele>504.57142857142856</ele><time>2026-03-22T14:40:45.15Z</time></trkpt><trkpt lat="43.9286459" lon="11.2264189"><ele>503.71428571428567</ele><time>2026-03-22T14:40:48.15Z</time></trkpt><trkpt lat="43.9286893" lon="11.2264996"><ele>502.8571428571428</ele><time>2026-03-22T14:40:51.134Z</time></trkpt><trkpt lat="43.9287256" lon="11.2265923"><ele>501.99999999999994</ele><time>2026-03-22T14:40:54.147Z</time></trkpt><trkpt lat="43.9287731" lon="11.2266702"><ele>501.99999999999994</ele><time>2026-03-22T14:40:57.17Z</time></trkpt><trkpt lat="43.9288181" lon="11.2267326"><ele>502.0</ele><time>2026-03-22T14:41:00.132Z</time></trkpt><trkpt lat="43.9288516" lon="11.2268142"><ele>501.99999999999994</ele><time>2026-03-22T14:41:03.153Z</time></trkpt><trkpt lat="43.9288875" lon="11.2269111"><ele>501.99999999999994</ele><time>2026-03-22T14:41:07.147Z</time></trkpt><trkpt lat="43.9289229" lon="11.2270073"><ele>502.0</ele><time>2026-03-22T14:41:11.157Z</time></trkpt><trkpt lat="43.928964" lon="11.227086"><ele>501.99999999999994</ele><time>2026-03-22T14:41:14.141Z</time></trkpt><trkpt lat="43.9290001" lon="11.2271706"><ele>501.99999999999994</ele><time>2026-03-22T14:41:18.146Z</time></trkpt><trkpt lat="43.9290511" lon="11.2272384"><ele>502.00000000000006</ele><time>2026-03-22T14:41:22.144Z</time></trkpt><trkpt lat="43.9291313" lon="11.2272715"><ele>502.0</ele><time>2026-03-22T14:41:26.141Z</time></trkpt><trkpt lat="43.9292034" lon="11.2273249"><ele>502.0</ele><time>2026-03-22T14:41:30.139Z</time></trkpt><trkpt lat="43.9292439" lon="11.2274074"><ele>502.0</ele><time>2026-03-22T14:41:33.141Z</time></trkpt><trkpt lat="43.9292998" lon="11.2274891"><ele>502.00000000000006</ele><time>2026-03-22T14:41:36.151Z</time></trkpt><trkpt lat="43.9293705" lon="11.2275575"><ele>502.0</ele><time>2026-03-22T14:41:40.159Z</time></trkpt><trkpt lat="43.9294453" lon="11.2276111"><ele>500.99999999999994</ele><time>2026-03-22T14:41:44.153Z</time></trkpt><trkpt lat="43.9295043" lon="11.2276471"><ele>500.0</ele><time>2026-03-22T14:41:47.156Z</time></trkpt><trkpt lat="43.929554" lon="11.2277227"><ele>498.99999999999994</ele><time>2026-03-22T14:41:50.154Z</time></trkpt><trkpt lat="43.9296111" lon="11.2277833"><ele>497.99999999999994</ele><time>2026-03-22T14:41:53.155Z</time></trkpt><trkpt lat="43.9296561" lon="11.227845"><ele>497.0</ele><time>2026-03-22T14:41:56.146Z</time></trkpt><trkpt lat="43.9296905" lon="11.2279232"><ele>495.99999999999994</ele><time>2026-03-22T14:41:59.136Z</time></trkpt><trkpt lat="43.9297038" lon="11.2280337"><ele>494.99999999999994</ele><time>2026-03-22T14:42:03.164Z</time></trkpt><trkpt lat="43.9297677" lon="11.2281047"><ele>494.71428571428567</ele><time>2026-03-22T14:42:07.156Z</time></trkpt><trkpt lat="43.9298235" lon="11.2281557"><ele>494.42857142857144</ele><time>2026-03-22T14:42:10.133Z</time></trkpt><trkpt lat="43.9298784" lon="11.2282293"><ele>494.1428571428571</ele><time>2026-03-22T14:42:14.138Z</time></trkpt><trkpt lat="43.9299205" lon="11.2283089"><ele>493.85714285714283</ele><time>2026-03-22T14:42:17.151Z</time></trkpt><trkpt lat="43.9299834" lon="11.2283692"><ele>493.57142857142856</ele><time>2026-03-22T14:42:21.136Z</time></trkpt><trkpt lat="43.9300579" lon="11.2283622"><ele>493.2857142857143</ele><time>2026-03-22T14:42:26.167Z</time></trkpt><trkpt lat="43.9301296" lon="11.2284035"><ele>493.0</ele><time>2026-03-22T14:42:30.153Z</time></trkpt><trkpt lat="43.9301883" lon="11.2284849"><ele>493.0</ele><time>2026-03-22T14:42:34.152Z</time></trkpt><trkpt lat="43.9302442" lon="11.2285598"><ele>493.0</ele><time>2026-03-22T14:42:38.147Z</time></trkpt><trkpt lat="43.9302855" lon="11.2286329"><ele>493.0</ele><time>2026-03-22T14:42:41.15Z</time></trkpt><trkpt lat="43.9303422" lon="11.2286931"><ele>493.0</ele><time>2026-03-22T14:42:44.168Z</time></trkpt><trkpt lat="43.9304205" lon="11.2287405"><ele>493.0</ele><time>2026-03-22T14:42:48.14Z</time></trkpt><trkpt lat="43.9304887" lon="11.2287743"><ele>493.0</ele><time>2026-03-22T14:42:51.148Z</time></trkpt><trkpt lat="43.9305519" lon="11.2288031"><ele>493.0</ele><time>2026-03-22T14:42:54.161Z</time></trkpt><trkpt lat="43.930613" lon="11.2288375"><ele>493.0</ele><time>2026-03-22T14:42:57.151Z</time></trkpt><trkpt lat="43.9306855" lon="11.2288908"><ele>493.0</ele><time>2026-03-22T14:43:01.171Z</time></trkpt><trkpt lat="43.9307347" lon="11.2289624"><ele>493.0</ele><time>2026-03-22T14:43:05.144Z</time></trkpt><trkpt lat="43.9307666" lon="11.2290523"><ele>493.0</ele><time>2026-03-22T14:43:09.151Z</time></trkpt><trkpt lat="43.9307789" lon="11.2291427"><ele>493.0</ele><time>2026-03-22T14:43:13.146Z</time></trkpt><trkpt lat="43.930819" lon="11.2292322"><ele>493.0</ele><time>2026-03-22T14:43:17.161Z</time></trkpt><trkpt lat="43.9308691" lon="11.2292916"><ele>493.0</ele><time>2026-03-22T14:43:20.142Z</time></trkpt><trkpt lat="43.9309418" lon="11.2293247"><ele>494.57142857142856</ele><time>2026-03-22T14:43:23.148Z</time></trkpt><trkpt lat="43.9310099" lon="11.2293429"><ele>496.14285714285717</ele><time>2026-03-22T14:43:26.15Z</time></trkpt><trkpt lat="43.9310669" lon="11.2294029"><ele>497.7142857142857</ele><time>2026-03-22T14:43:29.156Z</time></trkpt><trkpt lat="43.9311281" lon="11.2294869"><ele>499.2857142857143</ele><time>2026-03-22T14:43:33.144Z</time></trkpt><trkpt lat="43.9311874" lon="11.2295319"><ele>500.8571428571429</ele><time>2026-03-22T14:43:36.15Z</time></trkpt><trkpt lat="43.9312401" lon="11.2295823"><ele>502.42857142857144</ele><time>2026-03-22T14:43:39.145Z</time></trkpt><trkpt lat="43.9313013" lon="11.2296089"><ele>504.0</ele><time>2026-03-22T14:43:42.138Z</time></trkpt><trkpt lat="43.9313603" lon="11.2296934"><ele>504.0</ele><time>2026-03-22T14:43:46.141Z</time></trkpt><trkpt lat="43.9314067" lon="11.2297734"><ele>504.0</ele><time>2026-03-22T14:43:50.146Z</time></trkpt><trkpt lat="43.9314325" lon="11.2298596"><ele>504.0</ele><time>2026-03-22T14:43:54.149Z</time></trkpt><trkpt lat="43.9314578" lon="11.2299462"><ele>504.0</ele><time>2026-03-22T14:43:58.135Z</time></trkpt><trkpt lat="43.9314762" lon="11.2300315"><ele>504.0</ele><time>2026-03-22T14:44:01.158Z</time></trkpt><trkpt lat="43.9315223" lon="11.2301275"><ele>504.0</ele><time>2026-03-22T14:44:05.149Z</time></trkpt><trkpt lat="43.9315759" lon="11.2301915"><ele>504.0</ele><time>2026-03-22T14:44:08.158Z</time></trkpt><trkpt lat="43.9316362" lon="11.2302301"><ele>505.8571428571429</ele><time>2026-03-22T14:44:11.161Z</time></trkpt><trkpt lat="43.9316886" lon="11.2302813"><ele>507.7142857142857</ele><time>2026-03-22T14:44:14.158Z</time></trkpt><trkpt lat="43.931748" lon="11.2303206"><ele>509.57142857142856</ele><time>2026-03-22T14:44:17.153Z</time></trkpt><trkpt lat="43.9318222" lon="11.2303631"><ele>511.42857142857144</ele><time>2026-03-22T14:44:21.158Z</time></trkpt><trkpt lat="43.9318949" lon="11.2304154"><ele>513.2857142857143</ele><time>2026-03-22T14:44:25.167Z</time></trkpt><trkpt lat="43.9319551" lon="11.230457"><ele>515.1428571428571</ele><time>2026-03-22T14:44:28.155Z</time></trkpt><trkpt lat="43.9320362" lon="11.2304963"><ele>517.0</ele><time>2026-03-22T14:44:31.145Z</time></trkpt><trkpt lat="43.9320998" lon="11.2305182"><ele>517.0</ele><time>2026-03-22T14:44:33.145Z</time></trkpt><trkpt lat="43.9321602" lon="11.2305547"><ele>517.0</ele><time>2026-03-22T14:44:35.135Z</time></trkpt><trkpt lat="43.9322202" lon="11.2305948"><ele>517.0</ele><time>2026-03-22T14:44:37.154Z</time></trkpt><trkpt lat="43.9322758" lon="11.230651"><ele>517.0</ele><time>2026-03-22T14:44:39.158Z</time></trkpt><trkpt lat="43.932349" lon="11.2307089"><ele>517.0</ele><time>2026-03-22T14:44:42.133Z</time></trkpt><trkpt lat="43.9324164" lon="11.2307762"><ele>517.0</ele><time>2026-03-22T14:44:45.157Z</time></trkpt><trkpt lat="43.9324986" lon="11.2308082"><ele>518.5</ele><time>2026-03-22T14:44:48.169Z</time></trkpt><trkpt lat="43.9325743" lon="11.2308524"><ele>520.0</ele><time>2026-03-22T14:44:51.151Z</time></trkpt><trkpt lat="43.9326488" lon="11.2309026"><ele>521.5</ele><time>2026-03-22T14:44:54.156Z</time></trkpt><trkpt lat="43.9327224" lon="11.2309643"><ele>523.0</ele><time>2026-03-22T14:44:57.153Z</time></trkpt><trkpt lat="43.9327986" lon="11.2309995"><ele>524.5</ele><time>2026-03-22T14:45:00.148Z</time></trkpt><trkpt lat="43.9328874" lon="11.230996"><ele>526.0</ele><time>2026-03-22T14:45:03.137Z</time></trkpt><trkpt lat="43.9329753" lon="11.231013"><ele>526.0</ele><time>2026-03-22T14:45:06.18Z</time></trkpt><trkpt lat="43.9330526" lon="11.2310537"><ele>526.0</ele><time>2026-03-22T14:45:09.151Z</time></trkpt><trkpt lat="43.9331385" lon="11.2310898"><ele>526.0</ele><time>2026-03-22T14:45:12.135Z</time></trkpt><trkpt lat="43.933224" lon="11.2311205"><ele>526.0</ele><time>2026-03-22T14:45:15.148Z</time></trkpt><trkpt lat="43.9332992" lon="11.231146"><ele>526.0</ele><time>2026-03-22T14:45:19.141Z</time></trkpt><trkpt lat="43.9333787" lon="11.2311561"><ele>526.0</ele><time>2026-03-22T14:45:22.159Z</time></trkpt><trkpt lat="43.9334461" lon="11.2312058"><ele>526.3333333333334</ele><time>2026-03-22T14:45:24.158Z</time></trkpt><trkpt lat="43.93354" lon="11.2312149"><ele>526.6666666666667</ele><time>2026-03-22T14:45:27.134Z</time></trkpt><trkpt lat="43.9336289" lon="11.2312121"><ele>527.0</ele><time>2026-03-22T14:45:30.151Z</time></trkpt><trkpt lat="43.9337116" lon="11.2312339"><ele>527.3333333333334</ele><time>2026-03-22T14:45:33.154Z</time></trkpt><trkpt lat="43.9337678" lon="11.2312885"><ele>527.6666666666666</ele><time>2026-03-22T14:45:35.144Z</time></trkpt><trkpt lat="43.9338359" lon="11.2313608"><ele>528.0</ele><time>2026-03-22T14:45:38.158Z</time></trkpt><trkpt lat="43.9338881" lon="11.2314524"><ele>527.4285714285714</ele><time>2026-03-22T14:45:41.145Z</time></trkpt><trkpt lat="43.9339172" lon="11.231546"><ele>526.8571428571429</ele><time>2026-03-22T14:45:44.143Z</time></trkpt><trkpt lat="43.9339656" lon="11.2316109"><ele>526.2857142857143</ele><time>2026-03-22T14:45:47.132Z</time></trkpt><trkpt lat="43.9340396" lon="11.2316548"><ele>525.7142857142858</ele><time>2026-03-22T14:45:50.15Z</time></trkpt><trkpt lat="43.9341052" lon="11.2317073"><ele>525.1428571428572</ele><time>2026-03-22T14:45:53.156Z</time></trkpt><trkpt lat="43.9341673" lon="11.2317692"><ele>524.5714285714286</ele><time>2026-03-22T14:45:56.153Z</time></trkpt><trkpt lat="43.9342226" lon="11.2318307"><ele>524.0</ele><time>2026-03-22T14:45:59.148Z</time></trkpt><trkpt lat="43.9342925" lon="11.2318823"><ele>524.0</ele><time>2026-03-22T14:46:02.16Z</time></trkpt><trkpt lat="43.9343669" lon="11.2319377"><ele>524.0</ele><time>2026-03-22T14:46:05.148Z</time></trkpt><trkpt lat="43.9344252" lon="11.2320077"><ele>524.0</ele><time>2026-03-22T14:46:08.157Z</time></trkpt><trkpt lat="43.934492" lon="11.2320755"><ele>524.0</ele><time>2026-03-22T14:46:11.148Z</time></trkpt><trkpt lat="43.93457" lon="11.2321263"><ele>524.0</ele><time>2026-03-22T14:46:14.151Z</time></trkpt><trkpt lat="43.9346319" lon="11.2321709"><ele>524.0</ele><time>2026-03-22T14:46:17.143Z</time></trkpt><trkpt lat="43.9346806" lon="11.2322441"><ele>524.2857142857143</ele><time>2026-03-22T14:46:21.141Z</time></trkpt><trkpt lat="43.9347386" lon="11.2323128"><ele>524.5714285714287</ele><time>2026-03-22T14:46:24.148Z</time></trkpt><trkpt lat="43.9347982" lon="11.2323605"><ele>524.8571428571429</ele><time>2026-03-22T14:46:27.143Z</time></trkpt><trkpt lat="43.9348709" lon="11.2323932"><ele>525.1428571428571</ele><time>2026-03-22T14:46:30.161Z</time></trkpt><trkpt lat="43.9349436" lon="11.2323925"><ele>525.4285714285713</ele><time>2026-03-22T14:46:33.16Z</time></trkpt><trkpt lat="43.9350178" lon="11.2324075"><ele>525.7142857142857</ele><time>2026-03-22T14:46:36.157Z</time></trkpt><trkpt lat="43.9350849" lon="11.2324499"><ele>526.0</ele><time>2026-03-22T14:46:40.16Z</time></trkpt><trkpt lat="43.9351485" lon="11.2324984"><ele>524.8571428571429</ele><time>2026-03-22T14:46:44.163Z</time></trkpt><trkpt lat="43.9352059" lon="11.2325398"><ele>523.7142857142857</ele><time>2026-03-22T14:46:47.142Z</time></trkpt><trkpt lat="43.9352713" lon="11.2325955"><ele>522.5714285714286</ele><time>2026-03-22T14:46:51.148Z</time></trkpt><trkpt lat="43.9353135" lon="11.2326816"><ele>521.4285714285714</ele><time>2026-03-22T14:46:55.145Z</time></trkpt><trkpt lat="43.9353462" lon="11.2327723"><ele>520.2857142857142</ele><time>2026-03-22T14:46:58.137Z</time></trkpt><trkpt lat="43.93538" lon="11.2328519"><ele>519.1428571428571</ele><time>2026-03-22T14:47:01.148Z</time></trkpt><trkpt lat="43.935448" lon="11.2329042"><ele>518.0</ele><time>2026-03-22T14:47:05.144Z</time></trkpt><trkpt lat="43.9355093" lon="11.2329688"><ele>518.0</ele><time>2026-03-22T14:47:09.154Z</time></trkpt><trkpt lat="43.9355691" lon="11.2330391"><ele>518.0</ele><time>2026-03-22T14:47:13.147Z</time></trkpt><trkpt lat="43.9356293" lon="11.2331111"><ele>518.0</ele><time>2026-03-22T14:47:17.143Z</time></trkpt><trkpt lat="43.9356983" lon="11.2331516"><ele>518.0</ele><time>2026-03-22T14:47:21.155Z</time></trkpt><trkpt lat="43.9357602" lon="11.2331987"><ele>518.0</ele><time>2026-03-22T14:47:25.152Z</time></trkpt><trkpt lat="43.9358268" lon="11.2332354"><ele>518.0</ele><time>2026-03-22T14:47:29.15Z</time></trkpt><trkpt lat="43.9358881" lon="11.2332622"><ele>518.0</ele><time>2026-03-22T14:47:36.15Z</time></trkpt><trkpt lat="43.9359471" lon="11.2333157"><ele>517.5714285714286</ele><time>2026-03-22T14:47:42.154Z</time></trkpt><trkpt lat="43.9360068" lon="11.2333473"><ele>517.1428571428571</ele><time>2026-03-22T14:47:47.138Z</time></trkpt><trkpt lat="43.9360781" lon="11.2334017"><ele>516.7142857142858</ele><time>2026-03-22T14:47:52.151Z</time></trkpt><trkpt lat="43.9361401" lon="11.2334593"><ele>516.2857142857142</ele><time>2026-03-22T14:47:56.14Z</time></trkpt><trkpt lat="43.9362064" lon="11.2334729"><ele>515.8571428571429</ele><time>2026-03-22T14:48:00.138Z</time></trkpt><trkpt lat="43.9362722" lon="11.2334849"><ele>515.4285714285714</ele><time>2026-03-22T14:48:04.153Z</time></trkpt><trkpt lat="43.9363439" lon="11.2335102"><ele>515.0</ele><time>2026-03-22T14:48:09.148Z</time></trkpt><trkpt lat="43.9363931" lon="11.2335759"><ele>515.0</ele><time>2026-03-22T14:48:13.143Z</time></trkpt><trkpt lat="43.9364362" lon="11.2336486"><ele>515.0</ele><time>2026-03-22T14:48:17.145Z</time></trkpt><trkpt lat="43.9365102" lon="11.2336808"><ele>515.0</ele><time>2026-03-22T14:48:21.154Z</time></trkpt><trkpt lat="43.936578" lon="11.2337158"><ele>515.0</ele><time>2026-03-22T14:48:24.143Z</time></trkpt><trkpt lat="43.9366375" lon="11.2337638"><ele>515.0</ele><time>2026-03-22T14:48:27.148Z</time></trkpt><trkpt lat="43.936705" lon="11.2338052"><ele>515.0</ele><time>2026-03-22T14:48:31.153Z</time></trkpt><trkpt lat="43.9367652" lon="11.2338632"><ele>515.0</ele><time>2026-03-22T14:48:35.143Z</time></trkpt><trkpt lat="43.9368266" lon="11.2339159"><ele>515.1428571428571</ele><time>2026-03-22T14:48:38.132Z</time></trkpt><trkpt lat="43.9368858" lon="11.2339663"><ele>515.2857142857142</ele><time>2026-03-22T14:48:41.151Z</time></trkpt><trkpt lat="43.9369377" lon="11.23403"><ele>515.4285714285713</ele><time>2026-03-22T14:48:44.141Z</time></trkpt><trkpt lat="43.9370033" lon="11.2341001"><ele>515.5714285714286</ele><time>2026-03-22T14:48:48.145Z</time></trkpt><trkpt lat="43.9370582" lon="11.2341525"><ele>515.7142857142857</ele><time>2026-03-22T14:48:51.14Z</time></trkpt><trkpt lat="43.9371277" lon="11.234218"><ele>515.8571428571428</ele><time>2026-03-22T14:48:55.148Z</time></trkpt><trkpt lat="43.937189" lon="11.234268"><ele>516.0</ele><time>2026-03-22T14:48:58.155Z</time></trkpt><trkpt lat="43.9372428" lon="11.2343153"><ele>515.9999999999999</ele><time>2026-03-22T14:49:01.154Z</time></trkpt><trkpt lat="43.9372973" lon="11.2343715"><ele>516.0</ele><time>2026-03-22T14:49:04.147Z</time></trkpt><trkpt lat="43.9373521" lon="11.2344197"><ele>516.0</ele><time>2026-03-22T14:49:07.139Z</time></trkpt><trkpt lat="43.9374187" lon="11.2344572"><ele>516.0</ele><time>2026-03-22T14:49:10.139Z</time></trkpt><trkpt lat="43.9374801" lon="11.2344977"><ele>516.0</ele><time>2026-03-22T14:49:13.139Z</time></trkpt><trkpt lat="43.9375331" lon="11.2345527"><ele>515.9999999999999</ele><time>2026-03-22T14:49:17.147Z</time></trkpt><trkpt lat="43.9375997" lon="11.2346071"><ele>516.0</ele><time>2026-03-22T14:49:24.135Z</time></trkpt><trkpt lat="43.9376606" lon="11.2346454"><ele>515.5</ele><time>2026-03-22T14:49:29.145Z</time></trkpt><trkpt lat="43.9377286" lon="11.2346909"><ele>515.0</ele><time>2026-03-22T14:49:34.131Z</time></trkpt><trkpt lat="43.9377999" lon="11.2347408"><ele>514.5</ele><time>2026-03-22T14:49:38.16Z</time></trkpt><trkpt lat="43.9378605" lon="11.2348222"><ele>514.0</ele><time>2026-03-22T14:49:42.147Z</time></trkpt><trkpt lat="43.9379125" lon="11.2348899"><ele>513.5</ele><time>2026-03-22T14:49:45.146Z</time></trkpt><trkpt lat="43.9379754" lon="11.2349474"><ele>513.0</ele><time>2026-03-22T14:49:48.136Z</time></trkpt><trkpt lat="43.9380258" lon="11.2350037"><ele>513.0000000000001</ele><time>2026-03-22T14:49:51.15Z</time></trkpt><trkpt lat="43.9380786" lon="11.2350593"><ele>513.0</ele><time>2026-03-22T14:49:54.161Z</time></trkpt><trkpt lat="43.9381241" lon="11.2351207"><ele>513.0</ele><time>2026-03-22T14:49:58.146Z</time></trkpt><trkpt lat="43.9381741" lon="11.2351752"><ele>513.0</ele><time>2026-03-22T14:50:02.151Z</time></trkpt><trkpt lat="43.9382365" lon="11.2352439"><ele>513.0</ele><time>2026-03-22T14:50:06.153Z</time></trkpt><trkpt lat="43.9383048" lon="11.235313"><ele>513.0000000000001</ele><time>2026-03-22T14:50:10.144Z</time></trkpt><trkpt lat="43.9383574" lon="11.2353757"><ele>513.0</ele><time>2026-03-22T14:50:13.147Z</time></trkpt><trkpt lat="43.9384225" lon="11.2354326"><ele>512.5714285714287</ele><time>2026-03-22T14:50:17.16Z</time></trkpt><trkpt lat="43.9384944" lon="11.2354668"><ele>512.1428571428571</ele><time>2026-03-22T14:50:21.156Z</time></trkpt><trkpt lat="43.9385708" lon="11.2354848"><ele>511.7142857142858</ele><time>2026-03-22T14:50:25.142Z</time></trkpt><trkpt lat="43.938636" lon="11.2354784"><ele>511.28571428571433</ele><time>2026-03-22T14:50:28.136Z</time></trkpt><trkpt lat="43.9386955" lon="11.2355225"><ele>510.8571428571429</ele><time>2026-03-22T14:50:31.148Z</time></trkpt><trkpt lat="43.9387445" lon="11.2355975"><ele>510.42857142857144</ele><time>2026-03-22T14:50:34.142Z</time></trkpt><trkpt lat="43.9387914" lon="11.2356686"><ele>510.0</ele><time>2026-03-22T14:50:37.136Z</time></trkpt><trkpt lat="43.9388619" lon="11.2357078"><ele>510.0</ele><time>2026-03-22T14:50:40.152Z</time></trkpt><trkpt lat="43.9389269" lon="11.2357389"><ele>510.00000000000006</ele><time>2026-03-22T14:50:43.151Z</time></trkpt><trkpt lat="43.9389918" lon="11.2357567"><ele>510.0</ele><time>2026-03-22T14:50:46.151Z</time></trkpt><trkpt lat="43.9390573" lon="11.2357878"><ele>510.0</ele><time>2026-03-22T14:50:49.132Z</time></trkpt><trkpt lat="43.9391235" lon="11.2358454"><ele>510.00000000000006</ele><time>2026-03-22T14:50:52.155Z</time></trkpt><trkpt lat="43.939167" lon="11.2359192"><ele>510.0</ele><time>2026-03-22T14:50:55.148Z</time></trkpt><trkpt lat="43.9392107" lon="11.2360067"><ele>510.0</ele><time>2026-03-22T14:50:59.135Z</time></trkpt><trkpt lat="43.9392612" lon="11.2360784"><ele>509.28571428571433</ele><time>2026-03-22T14:51:03.144Z</time></trkpt><trkpt lat="43.9393073" lon="11.2361672"><ele>508.5714285714286</ele><time>2026-03-22T14:51:07.133Z</time></trkpt><trkpt lat="43.939364" lon="11.2362341"><ele>507.8571428571429</ele><time>2026-03-22T14:51:10.134Z</time></trkpt><trkpt lat="43.9394233" lon="11.236284"><ele>507.1428571428571</ele><time>2026-03-22T14:51:13.147Z</time></trkpt><trkpt lat="43.9394794" lon="11.2363407"><ele>506.4285714285714</ele><time>2026-03-22T14:51:16.141Z</time></trkpt><trkpt lat="43.9395324" lon="11.2364186"><ele>505.71428571428567</ele><time>2026-03-22T14:51:20.155Z</time></trkpt><trkpt lat="43.939571" lon="11.2365045"><ele>505.0</ele><time>2026-03-22T14:51:23.153Z</time></trkpt><trkpt lat="43.93962" lon="11.2365984"><ele>507.0</ele><time>2026-03-22T14:51:27.148Z</time></trkpt><trkpt lat="43.9396754" lon="11.2366711"><ele>508.99999999999994</ele><time>2026-03-22T14:51:31.136Z</time></trkpt><trkpt lat="43.9397399" lon="11.236711"><ele>511.0</ele><time>2026-03-22T14:51:35.148Z</time></trkpt><trkpt lat="43.9398054" lon="11.2367808"><ele>513.0</ele><time>2026-03-22T14:51:39.147Z</time></trkpt><trkpt lat="43.9398489" lon="11.2368537"><ele>515.0</ele><time>2026-03-22T14:51:43.153Z</time></trkpt><trkpt lat="43.939814" lon="11.2369404"><ele>517.0</ele><time>2026-03-22T14:51:46.131Z</time></trkpt><trkpt lat="43.9397794" lon="11.237038"><ele>519.0</ele><time>2026-03-22T14:51:50.136Z</time></trkpt><trkpt lat="43.939768" lon="11.2371408"><ele>519.0</ele><time>2026-03-22T14:51:54.141Z</time></trkpt><trkpt lat="43.9397568" lon="11.237238"><ele>519.0</ele><time>2026-03-22T14:51:58.157Z</time></trkpt><trkpt lat="43.9397665" lon="11.2373513"><ele>519.0</ele><time>2026-03-22T14:52:02.149Z</time></trkpt><trkpt lat="43.9397653" lon="11.2374427"><ele>519.0</ele><time>2026-03-22T14:52:05.153Z</time></trkpt><trkpt lat="43.9397434" lon="11.2375344"><ele>519.0</ele><time>2026-03-22T14:52:09.159Z</time></trkpt><trkpt lat="43.9397129" lon="11.2376319"><ele>519.0</ele><time>2026-03-22T14:52:13.141Z</time></trkpt><trkpt lat="43.9396851" lon="11.2377441"><ele>519.0</ele><time>2026-03-22T14:52:17.139Z</time></trkpt><trkpt lat="43.9396644" lon="11.2378388"><ele>519.0</ele><time>2026-03-22T14:52:20.154Z</time></trkpt><trkpt lat="43.939653" lon="11.237934"><ele>519.0</ele><time>2026-03-22T14:52:23.147Z</time></trkpt><trkpt lat="43.9396517" lon="11.2380243"><ele>519.0</ele><time>2026-03-22T14:52:26.152Z</time></trkpt><trkpt lat="43.9396538" lon="11.2381302"><ele>519.0</ele><time>2026-03-22T14:52:29.135Z</time></trkpt><trkpt lat="43.9396522" lon="11.2382447"><ele>519.0</ele><time>2026-03-22T14:52:32.148Z</time></trkpt><trkpt lat="43.9396632" lon="11.2383356"><ele>519.0</ele><time>2026-03-22T14:52:35.138Z</time></trkpt><trkpt lat="43.9396896" lon="11.2384226"><ele>517.4285714285714</ele><time>2026-03-22T14:52:38.172Z</time></trkpt><trkpt lat="43.9397208" lon="11.2385157"><ele>515.8571428571428</ele><time>2026-03-22T14:52:41.145Z</time></trkpt><trkpt lat="43.9397312" lon="11.2386061"><ele>514.2857142857142</ele><time>2026-03-22T14:52:44.146Z</time></trkpt><trkpt lat="43.939707" lon="11.2386926"><ele>512.7142857142857</ele><time>2026-03-22T14:52:47.155Z</time></trkpt><trkpt lat="43.9396817" lon="11.2387782"><ele>511.1428571428571</ele><time>2026-03-22T14:52:50.14Z</time></trkpt><trkpt lat="43.9396759" lon="11.23888"><ele>509.57142857142856</ele><time>2026-03-22T14:52:54.157Z</time></trkpt><trkpt lat="43.9396386" lon="11.2389546"><ele>508.0</ele><time>2026-03-22T14:52:58.142Z</time></trkpt><trkpt lat="43.9395675" lon="11.2389835"><ele>508.0</ele><time>2026-03-22T14:53:02.149Z</time></trkpt><trkpt lat="43.9394883" lon="11.2389597"><ele>508.0</ele><time>2026-03-22T14:53:06.147Z</time></trkpt><trkpt lat="43.9394311" lon="11.2389033"><ele>508.0</ele><time>2026-03-22T14:53:09.158Z</time></trkpt><trkpt lat="43.9393631" lon="11.2388406"><ele>508.0</ele><time>2026-03-22T14:53:13.15Z</time></trkpt><trkpt lat="43.9392941" lon="11.2387808"><ele>508.0</ele><time>2026-03-22T14:53:17.165Z</time></trkpt><trkpt lat="43.9392436" lon="11.2387258"><ele>508.0</ele><time>2026-03-22T14:53:20.153Z</time></trkpt><trkpt lat="43.9391883" lon="11.2386774"><ele>508.0</ele><time>2026-03-22T14:53:23.13Z</time></trkpt><trkpt lat="43.9391262" lon="11.2386098"><ele>507.7142857142857</ele><time>2026-03-22T14:53:27.171Z</time></trkpt><trkpt lat="43.9390789" lon="11.2385388"><ele>507.42857142857144</ele><time>2026-03-22T14:53:30.163Z</time></trkpt><trkpt lat="43.9390307" lon="11.2384719"><ele>507.14285714285717</ele><time>2026-03-22T14:53:33.141Z</time></trkpt><trkpt lat="43.9389839" lon="11.2384106"><ele>506.8571428571429</ele><time>2026-03-22T14:53:36.197Z</time></trkpt><trkpt lat="43.9389275" lon="11.2383353"><ele>506.57142857142856</ele><time>2026-03-22T14:53:40.189Z</time></trkpt><trkpt lat="43.9388827" lon="11.2382724"><ele>506.28571428571433</ele><time>2026-03-22T14:53:43.174Z</time></trkpt><trkpt lat="43.9388331" lon="11.238176"><ele>506.00000000000006</ele><time>2026-03-22T14:53:47.134Z</time></trkpt><trkpt lat="43.9387845" lon="11.2380993"><ele>506.00000000000006</ele><time>2026-03-22T14:53:50.143Z</time></trkpt><trkpt lat="43.9387501" lon="11.2380124"><ele>506.0</ele><time>2026-03-22T14:53:54.158Z</time></trkpt><trkpt lat="43.93871" lon="11.2379272"><ele>506.00000000000006</ele><time>2026-03-22T14:53:57.145Z</time></trkpt><trkpt lat="43.9386704" lon="11.2378569"><ele>506.00000000000006</ele><time>2026-03-22T14:54:00.14Z</time></trkpt><trkpt lat="43.9386426" lon="11.2377707"><ele>506.0</ele><time>2026-03-22T14:54:03.144Z</time></trkpt><trkpt lat="43.9386348" lon="11.2376763"><ele>506.00000000000006</ele><time>2026-03-22T14:54:06.148Z</time></trkpt><trkpt lat="43.9386181" lon="11.2375754"><ele>506.00000000000006</ele><time>2026-03-22T14:54:09.153Z</time></trkpt><trkpt lat="43.9385746" lon="11.2375082"><ele>506.00000000000006</ele><time>2026-03-22T14:54:12.149Z</time></trkpt><trkpt lat="43.9385056" lon="11.2374819"><ele>506.0</ele><time>2026-03-22T14:54:15.15Z</time></trkpt><trkpt lat="43.9384378" lon="11.2375097"><ele>506.00000000000006</ele><time>2026-03-22T14:54:18.15Z</time></trkpt><trkpt lat="43.9383775" lon="11.2375527"><ele>506.00000000000006</ele><time>2026-03-22T14:54:21.137Z</time></trkpt><trkpt lat="43.9383207" lon="11.2375996"><ele>506.0</ele><time>2026-03-22T14:54:24.154Z</time></trkpt><trkpt lat="43.938267" lon="11.2376772"><ele>506.00000000000006</ele><time>2026-03-22T14:54:27.152Z</time></trkpt><trkpt lat="43.9382143" lon="11.2377546"><ele>506.00000000000006</ele><time>2026-03-22T14:54:30.14Z</time></trkpt><trkpt lat="43.938144" lon="11.2378007"><ele>503.7142857142858</ele><time>2026-03-22T14:54:35.147Z</time></trkpt><trkpt lat="43.9380734" lon="11.237825"><ele>501.42857142857144</ele><time>2026-03-22T14:54:39.154Z</time></trkpt><trkpt lat="43.9379966" lon="11.2378539"><ele>499.14285714285717</ele><time>2026-03-22T14:54:43.157Z</time></trkpt><trkpt lat="43.937928" lon="11.237894"><ele>496.8571428571429</ele><time>2026-03-22T14:54:47.141Z</time></trkpt><trkpt lat="43.9378566" lon="11.2379222"><ele>494.57142857142856</ele><time>2026-03-22T14:54:51.149Z</time></trkpt><trkpt lat="43.9377889" lon="11.2379538"><ele>492.2857142857143</ele><time>2026-03-22T14:54:55.138Z</time></trkpt><trkpt lat="43.9377214" lon="11.2379789"><ele>490.0</ele><time>2026-03-22T14:56:05.141Z</time></trkpt><trkpt lat="43.9376824" lon="11.2380705"><ele>488.1428571428571</ele><time>2026-03-22T14:56:28.142Z</time></trkpt><trkpt lat="43.9376377" lon="11.238143"><ele>486.2857142857143</ele><time>2026-03-22T14:56:32.141Z</time></trkpt><trkpt lat="43.9375918" lon="11.2382231"><ele>484.42857142857144</ele><time>2026-03-22T14:56:37.139Z</time></trkpt><trkpt lat="43.9375403" lon="11.2382746"><ele>482.57142857142856</ele><time>2026-03-22T14:56:42.138Z</time></trkpt><trkpt lat="43.9376009" lon="11.2382198"><ele>480.71428571428567</ele><time>2026-03-22T14:58:00.139Z</time></trkpt><trkpt lat="43.9376373" lon="11.2381407"><ele>478.85714285714283</ele><time>2026-03-22T14:58:06.142Z</time></trkpt><trkpt lat="43.9376038" lon="11.2382217"><ele>477.0</ele><time>2026-03-22T14:59:39.147Z</time></trkpt><trkpt lat="43.9375434" lon="11.2382653"><ele>475.5</ele><time>2026-03-22T15:00:56.131Z</time></trkpt><trkpt lat="43.9374854" lon="11.2383597"><ele>474.0</ele><time>2026-03-22T15:01:05.135Z</time></trkpt><trkpt lat="43.9374208" lon="11.2384337"><ele>472.5</ele><time>2026-03-22T15:01:09.134Z</time></trkpt><trkpt lat="43.9373698" lon="11.2385072"><ele>471.0</ele><time>2026-03-22T15:01:23.129Z</time></trkpt><trkpt lat="43.9373333" lon="11.2384088"><ele>469.5</ele><time>2026-03-22T15:01:38.174Z</time></trkpt><trkpt lat="43.9373403" lon="11.2383111"><ele>468.0</ele><time>2026-03-22T15:01:41.155Z</time></trkpt><trkpt lat="43.9373394" lon="11.2381803"><ele>468.0</ele><time>2026-03-22T15:01:44.135Z</time></trkpt><trkpt lat="43.9372781" lon="11.2381448"><ele>468.00000000000006</ele><time>2026-03-22T15:01:48.168Z</time></trkpt><trkpt lat="43.9372112" lon="11.2381603"><ele>468.0</ele><time>2026-03-22T15:01:53.139Z</time></trkpt><trkpt lat="43.9371539" lon="11.2381998"><ele>468.0</ele><time>2026-03-22T15:02:02.129Z</time></trkpt><trkpt lat="43.9371549" lon="11.238109"><ele>468.00000000000006</ele><time>2026-03-22T15:03:57.125Z</time></trkpt><trkpt lat="43.9372138" lon="11.2380655"><ele>468.0</ele><time>2026-03-22T15:03:59.123Z</time></trkpt><trkpt lat="43.937271" lon="11.2380251"><ele>468.0</ele><time>2026-03-22T15:04:02.088Z</time></trkpt><trkpt lat="43.9372658" lon="11.2379354"><ele>468.0</ele><time>2026-03-22T15:04:38.126Z</time></trkpt><trkpt lat="43.9372491" lon="11.2380297"><ele>468.0</ele><time>2026-03-22T15:05:05.127Z</time></trkpt><trkpt lat="43.9371984" lon="11.2381187"><ele>468.0</ele><time>2026-03-22T15:05:11.123Z</time></trkpt><trkpt lat="43.9371694" lon="11.2382218"><ele>468.0</ele><time>2026-03-22T15:05:15.132Z</time></trkpt><trkpt lat="43.9371904" lon="11.2383331"><ele>468.0</ele><time>2026-03-22T15:05:19.126Z</time></trkpt><trkpt lat="43.9372231" lon="11.2384265"><ele>468.0</ele><time>2026-03-22T15:05:22.127Z</time></trkpt><trkpt lat="43.9372608" lon="11.2385199"><ele>468.0</ele><time>2026-03-22T15:05:25.125Z</time></trkpt><trkpt lat="43.9372792" lon="11.2386265"><ele>468.0</ele><time>2026-03-22T15:05:28.128Z</time></trkpt><trkpt lat="43.937327" lon="11.2386874"><ele>468.0</ele><time>2026-03-22T15:06:19.125Z</time></trkpt><trkpt lat="43.9373398" lon="11.2387911"><ele>468.0</ele><time>2026-03-22T15:13:56.122Z</time></trkpt><trkpt lat="43.9372692" lon="11.2387893"><ele>468.0</ele><time>2026-03-22T15:14:00.127Z</time></trkpt><trkpt lat="43.9371906" lon="11.2387574"><ele>468.0</ele><time>2026-03-22T15:14:07.135Z</time></trkpt><trkpt lat="43.9371113" lon="11.2388035"><ele>468.0</ele><time>2026-03-22T15:14:10.131Z</time></trkpt><trkpt lat="43.9370408" lon="11.2388408"><ele>468.0</ele><time>2026-03-22T15:14:13.132Z</time></trkpt><trkpt lat="43.9369684" lon="11.2388647"><ele>468.0</ele><time>2026-03-22T15:14:16.135Z</time></trkpt><trkpt lat="43.9369028" lon="11.2388897"><ele>468.0</ele><time>2026-03-22T15:14:19.148Z</time></trkpt><trkpt lat="43.9368226" lon="11.2389153"><ele>468.0</ele><time>2026-03-22T15:14:22.156Z</time></trkpt><trkpt lat="43.9367365" lon="11.2389634"><ele>468.0</ele><time>2026-03-22T15:14:25.153Z</time></trkpt><trkpt lat="43.9366558" lon="11.2389889"><ele>468.28571428571433</ele><time>2026-03-22T15:14:28.145Z</time></trkpt><trkpt lat="43.9365804" lon="11.2390071"><ele>468.5714285714286</ele><time>2026-03-22T15:14:31.152Z</time></trkpt><trkpt lat="43.9365094" lon="11.2390171"><ele>468.8571428571429</ele><time>2026-03-22T15:14:35.128Z</time></trkpt><trkpt lat="43.9364368" lon="11.2390136"><ele>469.1428571428571</ele><time>2026-03-22T15:14:39.132Z</time></trkpt><trkpt lat="43.9363572" lon="11.239019"><ele>469.4285714285714</ele><time>2026-03-22T15:14:43.146Z</time></trkpt><trkpt lat="43.9362836" lon="11.2390477"><ele>469.71428571428567</ele><time>2026-03-22T15:14:46.152Z</time></trkpt><trkpt lat="43.9362199" lon="11.2390689"><ele>470.0</ele><time>2026-03-22T15:14:49.127Z</time></trkpt><trkpt lat="43.9361481" lon="11.239093"><ele>469.99999999999994</ele><time>2026-03-22T15:14:52.141Z</time></trkpt><trkpt lat="43.9360704" lon="11.2391043"><ele>470.0</ele><time>2026-03-22T15:14:55.14Z</time></trkpt><trkpt lat="43.935995" lon="11.2390922"><ele>470.0</ele><time>2026-03-22T15:14:58.15Z</time></trkpt><trkpt lat="43.9359101" lon="11.2390756"><ele>470.0</ele><time>2026-03-22T15:15:01.141Z</time></trkpt><trkpt lat="43.9358228" lon="11.2390742"><ele>469.99999999999994</ele><time>2026-03-22T15:15:04.124Z</time></trkpt><trkpt lat="43.9357415" lon="11.2390729"><ele>470.0</ele><time>2026-03-22T15:15:07.144Z</time></trkpt><trkpt lat="43.9356675" lon="11.2390858"><ele>470.3333333333333</ele><time>2026-03-22T15:15:10.14Z</time></trkpt><trkpt lat="43.9355871" lon="11.2390929"><ele>470.66666666666663</ele><time>2026-03-22T15:15:13.149Z</time></trkpt><trkpt lat="43.935499" lon="11.2390893"><ele>471.0</ele><time>2026-03-22T15:15:16.135Z</time></trkpt><trkpt lat="43.9354187" lon="11.2391136"><ele>471.33333333333337</ele><time>2026-03-22T15:15:19.142Z</time></trkpt><trkpt lat="43.9353263" lon="11.239115"><ele>471.6666666666667</ele><time>2026-03-22T15:15:22.132Z</time></trkpt><trkpt lat="43.9352415" lon="11.2391003"><ele>472.0</ele><time>2026-03-22T15:15:25.131Z</time></trkpt><trkpt lat="43.9351504" lon="11.2390798"><ele>472.00000000000006</ele><time>2026-03-22T15:15:28.13Z</time></trkpt><trkpt lat="43.9350592" lon="11.2390617"><ele>472.0</ele><time>2026-03-22T15:15:31.137Z</time></trkpt><trkpt lat="43.9349638" lon="11.2390326"><ele>472.0</ele><time>2026-03-22T15:15:34.126Z</time></trkpt><trkpt lat="43.934872" lon="11.2390133"><ele>472.0</ele><time>2026-03-22T15:15:37.143Z</time></trkpt><trkpt lat="43.9348078" lon="11.2389939"><ele>472.00000000000006</ele><time>2026-03-22T15:15:39.149Z</time></trkpt><trkpt lat="43.9347262" lon="11.2389715"><ele>472.0</ele><time>2026-03-22T15:15:42.169Z</time></trkpt><trkpt lat="43.9346468" lon="11.2389446"><ele>446.0</ele><time>2026-03-22T15:15:45.144Z</time></trkpt><trkpt lat="43.9345077" lon="11.2389578"><ele>446.0</ele><time>2026-03-22T15:15:50.129Z</time></trkpt><trkpt lat="43.9344147" lon="11.2389755"><ele>465.0</ele><time>2026-03-22T15:15:53.138Z</time></trkpt></trkseg></trk></gpx>